<?xml version="1.0" encoding="UTF-8" standalone="no" ?>
<gpx xmlns="http://www.topografix.com/GPX/1/1" creator="MapSource 6.13.4" version="1.1" xmlns:xsi="http://www.w3.org/2001/XMLSchema-instance" xsi:schemaLocation="http://www.garmin.com/xmlschemas/GpxExtensions/v3 http://www.garmin.com/xmlschemas/GpxExtensions/v3/GpxExtensionsv3.xsd http://www.topografix.com/GPX/1/1 http://www.topografix.com/GPX/1/1/gpx.xsd">

  <metadata>
    <link href="http://www.garmin.com">
      <text>Garmin International</text>
    </link>
    <time>2008-02-20T11:18:48Z</time>
    <bounds maxlat="51.6139360" maxlon="6.5881464" minlat="51.2137503" minlon="6.1114140"/>
  </metadata>

  <trk>
    <name>170 NL+Weeze</name>
    <extensions>
      <gpxx:TrackExtension xmlns:gpxx="http://www.garmin.com/xmlschemas/GpxExtensions/v3">
        <gpxx:DisplayColor>White</gpxx:DisplayColor>
      </gpxx:TrackExtension>
    </extensions>
    <trkseg>
      <trkpt lat="51.2298660" lon="6.5481100">
        <ele>0.0000000</ele>
        <time>2006-11-30T07:03:23Z</time>
      </trkpt>
      <trkpt lat="51.2316380" lon="6.5319060">
        <ele>0.0000000</ele>
        <time>2006-11-30T06:57:39Z</time>
      </trkpt>
      <trkpt lat="51.2327660" lon="6.5321320">
        <ele>0.0000000</ele>
        <time>2006-11-30T06:57:01Z</time>
      </trkpt>
      <trkpt lat="51.2341760" lon="6.5201710">
        <ele>0.0000000</ele>
        <time>2006-11-30T06:52:47Z</time>
      </trkpt>
      <trkpt lat="51.2342770" lon="6.5203310">
        <ele>35.7060550</ele>
        <time>2007-03-08T13:08:36Z</time>
      </trkpt>
      <trkpt lat="51.2345780" lon="6.5204210">
        <ele>38.1093750</ele>
        <time>2007-03-08T13:08:32Z</time>
      </trkpt>
      <trkpt lat="51.2349530" lon="6.5205160">
        <ele>39.5512700</ele>
        <time>2007-03-08T13:08:27Z</time>
      </trkpt>
      <trkpt lat="51.2350180" lon="6.5205340">
        <ele>40.5128170</ele>
        <time>2007-03-08T13:08:26Z</time>
      </trkpt>
      <trkpt lat="51.2352260" lon="6.5205800">
        <ele>40.5128170</ele>
        <time>2007-03-08T13:08:22Z</time>
      </trkpt>
      <trkpt lat="51.2353010" lon="6.5205710">
        <ele>40.9934080</ele>
        <time>2007-03-08T13:08:18Z</time>
      </trkpt>
      <trkpt lat="51.2353610" lon="6.5205630">
        <ele>41.4739990</ele>
        <time>2007-03-08T13:08:13Z</time>
      </trkpt>
      <trkpt lat="51.2354520" lon="6.5205550">
        <ele>41.9547120</ele>
        <time>2007-03-08T13:08:09Z</time>
      </trkpt>
      <trkpt lat="51.2357690" lon="6.5205140">
        <ele>43.3966060</ele>
        <time>2007-03-08T13:08:03Z</time>
      </trkpt>
      <trkpt lat="51.2361430" lon="6.5204760">
        <ele>42.4354250</ele>
        <time>2007-03-08T13:07:57Z</time>
      </trkpt>
      <trkpt lat="51.2364920" lon="6.5204360">
        <ele>40.9934080</ele>
        <time>2007-03-08T13:07:51Z</time>
      </trkpt>
      <trkpt lat="51.2369980" lon="6.5204010">
        <ele>39.0706790</ele>
        <time>2007-03-08T13:07:43Z</time>
      </trkpt>
      <trkpt lat="51.2370450" lon="6.5203970">
        <ele>38.1093750</ele>
        <time>2007-03-08T13:07:42Z</time>
      </trkpt>
      <trkpt lat="51.2372420" lon="6.5203520">
        <ele>36.1867680</ele>
        <time>2007-03-08T13:07:38Z</time>
      </trkpt>
      <trkpt lat="51.2374940" lon="6.5203280">
        <ele>35.7060550</ele>
        <time>2007-03-08T13:07:34Z</time>
      </trkpt>
      <trkpt lat="51.2380000" lon="6.5202720">
        <ele>35.2254640</ele>
        <time>2007-03-08T13:07:27Z</time>
      </trkpt>
      <trkpt lat="51.2386480" lon="6.5201810">
        <ele>34.7448730</ele>
        <time>2007-03-08T13:07:18Z</time>
      </trkpt>
      <trkpt lat="51.2393990" lon="6.5200920">
        <ele>35.2254640</ele>
        <time>2007-03-08T13:07:08Z</time>
      </trkpt>
      <trkpt lat="51.2402410" lon="6.5199910">
        <ele>37.1480710</ele>
        <time>2007-03-08T13:06:57Z</time>
      </trkpt>
      <trkpt lat="51.2409400" lon="6.5199060">
        <ele>36.1867680</ele>
        <time>2007-03-08T13:06:48Z</time>
      </trkpt>
      <trkpt lat="51.2416140" lon="6.5196410">
        <ele>36.1867680</ele>
        <time>2007-03-08T13:06:39Z</time>
      </trkpt>
      <trkpt lat="51.2421170" lon="6.5193990">
        <ele>36.1867680</ele>
        <time>2007-03-08T13:06:32Z</time>
      </trkpt>
      <trkpt lat="51.2424460" lon="6.5192800">
        <ele>36.6674800</ele>
        <time>2007-03-08T13:06:27Z</time>
      </trkpt>
      <trkpt lat="51.2424970" lon="6.5192550">
        <ele>36.1867680</ele>
        <time>2007-03-08T13:06:26Z</time>
      </trkpt>
      <trkpt lat="51.2425150" lon="6.5190100">
        <ele>36.6674800</ele>
        <time>2007-03-08T13:06:22Z</time>
      </trkpt>
      <trkpt lat="51.2424540" lon="6.5188200">
        <ele>36.6674800</ele>
        <time>2007-03-08T13:06:20Z</time>
      </trkpt>
      <trkpt lat="51.2422610" lon="6.5180730">
        <ele>36.6674800</ele>
        <time>2007-03-08T13:06:13Z</time>
      </trkpt>
      <trkpt lat="51.2422240" lon="6.5176400">
        <ele>37.1480710</ele>
        <time>2007-03-08T13:06:09Z</time>
      </trkpt>
      <trkpt lat="51.2421960" lon="6.5171180">
        <ele>37.6286620</ele>
        <time>2007-03-08T13:06:03Z</time>
      </trkpt>
      <trkpt lat="51.2421840" lon="6.5170090">
        <ele>37.6286620</ele>
        <time>2007-03-08T13:06:02Z</time>
      </trkpt>
      <trkpt lat="51.2420770" lon="6.5162790">
        <ele>37.6286620</ele>
        <time>2007-03-08T13:05:56Z</time>
      </trkpt>
      <trkpt lat="51.2419160" lon="6.5154660">
        <ele>38.1093750</ele>
        <time>2007-03-08T13:05:49Z</time>
      </trkpt>
      <trkpt lat="51.2416890" lon="6.5145530">
        <ele>37.6286620</ele>
        <time>2007-03-08T13:05:41Z</time>
      </trkpt>
      <trkpt lat="51.2414580" lon="6.5135430">
        <ele>37.1480710</ele>
        <time>2007-03-08T13:05:32Z</time>
      </trkpt>
      <trkpt lat="51.2413010" lon="6.5128260">
        <ele>36.6674800</ele>
        <time>2007-03-08T13:05:25Z</time>
      </trkpt>
      <trkpt lat="51.2412690" lon="6.5126610">
        <ele>36.6674800</ele>
        <time>2007-03-08T13:05:23Z</time>
      </trkpt>
      <trkpt lat="51.2412710" lon="6.5124650">
        <ele>37.1480710</ele>
        <time>2007-03-08T13:05:20Z</time>
      </trkpt>
      <trkpt lat="51.2414070" lon="6.5123940">
        <ele>37.1480710</ele>
        <time>2007-03-08T13:05:16Z</time>
      </trkpt>
      <trkpt lat="51.2416200" lon="6.5124270">
        <ele>37.6286620</ele>
        <time>2007-03-08T13:05:13Z</time>
      </trkpt>
      <trkpt lat="51.2421030" lon="6.5124550">
        <ele>37.1480710</ele>
        <time>2007-03-08T13:05:07Z</time>
      </trkpt>
      <trkpt lat="51.2426650" lon="6.5124840">
        <ele>37.6286620</ele>
        <time>2007-03-08T13:05:00Z</time>
      </trkpt>
      <trkpt lat="51.2431280" lon="6.5124230">
        <ele>36.6674800</ele>
        <time>2007-03-08T13:04:54Z</time>
      </trkpt>
      <trkpt lat="51.2434850" lon="6.5122650">
        <ele>37.1480710</ele>
        <time>2007-03-08T13:04:49Z</time>
      </trkpt>
      <trkpt lat="51.2438350" lon="6.5118810">
        <ele>37.1480710</ele>
        <time>2007-03-08T13:04:43Z</time>
      </trkpt>
      <trkpt lat="51.2441120" lon="6.5115910">
        <ele>36.6674800</ele>
        <time>2007-03-08T13:04:38Z</time>
      </trkpt>
      <trkpt lat="51.2443130" lon="6.5113550">
        <ele>37.1480710</ele>
        <time>2007-03-08T13:04:33Z</time>
      </trkpt>
      <trkpt lat="51.2443420" lon="6.5112460">
        <ele>36.6674800</ele>
        <time>2007-03-08T13:04:31Z</time>
      </trkpt>
      <trkpt lat="51.2444160" lon="6.5111160">
        <ele>37.6286620</ele>
        <time>2007-03-08T13:04:28Z</time>
      </trkpt>
      <trkpt lat="51.2447410" lon="6.5105190">
        <ele>37.6286620</ele>
        <time>2007-03-08T13:04:21Z</time>
      </trkpt>
      <trkpt lat="51.2451070" lon="6.5096960">
        <ele>37.6286620</ele>
        <time>2007-03-08T13:04:13Z</time>
      </trkpt>
      <trkpt lat="51.2451890" lon="6.5094720">
        <ele>37.6286620</ele>
        <time>2007-03-08T13:04:11Z</time>
      </trkpt>
      <trkpt lat="51.2455090" lon="6.5087290">
        <ele>38.1093750</ele>
        <time>2007-03-08T13:04:04Z</time>
      </trkpt>
      <trkpt lat="51.2458560" lon="6.5080440">
        <ele>38.1093750</ele>
        <time>2007-03-08T13:03:57Z</time>
      </trkpt>
      <trkpt lat="51.2462690" lon="6.5074820">
        <ele>37.1480710</ele>
        <time>2007-03-08T13:03:50Z</time>
      </trkpt>
      <trkpt lat="51.2466310" lon="6.5070650">
        <ele>38.1093750</ele>
        <time>2007-03-08T13:03:44Z</time>
      </trkpt>
      <trkpt lat="51.2469940" lon="6.5066670">
        <ele>37.6286620</ele>
        <time>2007-03-08T13:03:38Z</time>
      </trkpt>
      <trkpt lat="51.2471800" lon="6.5059340">
        <ele>0.0000000</ele>
        <time>2006-11-30T06:39:00Z</time>
      </trkpt>
      <trkpt lat="51.2476370" lon="6.5041900">
        <ele>0.0000000</ele>
        <time>2006-11-30T06:38:21Z</time>
      </trkpt>
      <trkpt lat="51.2477860" lon="6.5027500">
        <ele>0.0000000</ele>
        <time>2006-11-30T06:37:50Z</time>
      </trkpt>
      <trkpt lat="51.2482150" lon="6.5017960">
        <ele>0.0000000</ele>
        <time>2006-11-30T06:37:26Z</time>
      </trkpt>
      <trkpt lat="51.2483240" lon="6.5005720">
        <ele>0.0000000</ele>
        <time>2006-11-30T06:37:00Z</time>
      </trkpt>
      <trkpt lat="51.2482200" lon="6.4999330">
        <ele>0.0000000</ele>
        <time>2006-11-30T06:36:46Z</time>
      </trkpt>
      <trkpt lat="51.2481970" lon="6.4988600">
        <ele>0.0000000</ele>
        <time>2006-11-30T06:36:24Z</time>
      </trkpt>
      <trkpt lat="51.2487350" lon="6.4946050">
        <ele>0.0000000</ele>
        <time>2006-11-30T06:34:53Z</time>
      </trkpt>
      <trkpt lat="51.2489670" lon="6.4928010">
        <ele>0.0000000</ele>
        <time>2006-11-30T06:34:14Z</time>
      </trkpt>
      <trkpt lat="51.2492770" lon="6.4904930">
        <ele>0.0000000</ele>
        <time>2006-11-30T06:33:25Z</time>
      </trkpt>
      <trkpt lat="51.2494190" lon="6.4887660">
        <ele>0.0000000</ele>
        <time>2006-11-30T06:32:48Z</time>
      </trkpt>
      <trkpt lat="51.2493320" lon="6.4867650">
        <ele>0.0000000</ele>
        <time>2006-11-30T06:32:07Z</time>
      </trkpt>
      <trkpt lat="51.2493920" lon="6.4854010">
        <ele>0.0000000</ele>
        <time>2006-11-30T06:31:38Z</time>
      </trkpt>
      <trkpt lat="51.2496010" lon="6.4846730">
        <ele>0.0000000</ele>
        <time>2006-11-30T06:31:21Z</time>
      </trkpt>
      <trkpt lat="51.2501200" lon="6.4837140">
        <ele>0.0000000</ele>
        <time>2006-11-30T06:30:55Z</time>
      </trkpt>
      <trkpt lat="51.2498940" lon="6.4836540">
        <ele>0.0000000</ele>
        <time>2006-11-30T06:30:47Z</time>
      </trkpt>
      <trkpt lat="51.2501760" lon="6.4821350">
        <ele>0.0000000</ele>
        <time>2006-11-30T06:30:14Z</time>
      </trkpt>
      <trkpt lat="51.2504130" lon="6.4806180">
        <ele>0.0000000</ele>
        <time>2006-11-30T06:29:41Z</time>
      </trkpt>
      <trkpt lat="51.2506920" lon="6.4789550">
        <ele>0.0000000</ele>
        <time>2006-11-30T06:29:05Z</time>
      </trkpt>
      <trkpt lat="51.2509690" lon="6.4772210">
        <ele>0.0000000</ele>
        <time>2006-11-30T06:28:28Z</time>
      </trkpt>
      <trkpt lat="51.2513320" lon="6.4752670">
        <ele>0.0000000</ele>
        <time>2006-11-30T06:27:46Z</time>
      </trkpt>
      <trkpt lat="51.2515250" lon="6.4738240">
        <ele>0.0000000</ele>
        <time>2006-11-30T06:27:15Z</time>
      </trkpt>
      <trkpt lat="51.2522480" lon="6.4719210">
        <ele>0.0000000</ele>
        <time>2006-11-30T06:26:28Z</time>
      </trkpt>
      <trkpt lat="51.2503700" lon="6.4703050">
        <ele>0.0000000</ele>
        <time>2006-11-30T06:25:17Z</time>
      </trkpt>
      <trkpt lat="51.2501370" lon="6.4698880">
        <ele>0.0000000</ele>
        <time>2006-11-30T06:25:05Z</time>
      </trkpt>
      <trkpt lat="51.2499490" lon="6.4695410">
        <ele>0.0000000</ele>
        <time>2006-11-30T06:24:56Z</time>
      </trkpt>
      <trkpt lat="51.2491070" lon="6.4680110">
        <ele>0.0000000</ele>
        <time>2006-11-30T06:24:13Z</time>
      </trkpt>
      <trkpt lat="51.2482150" lon="6.4662690">
        <ele>0.0000000</ele>
        <time>2006-11-30T06:23:26Z</time>
      </trkpt>
      <trkpt lat="51.2443470" lon="6.4599650">
        <ele>0.0000000</ele>
        <time>2006-11-30T06:20:22Z</time>
      </trkpt>
      <trkpt lat="51.2438190" lon="6.4584180">
        <ele>0.0000000</ele>
        <time>2006-11-30T06:19:45Z</time>
      </trkpt>
      <trkpt lat="51.2431670" lon="6.4573800">
        <ele>0.0000000</ele>
        <time>2006-11-30T06:19:14Z</time>
      </trkpt>
      <trkpt lat="51.2423870" lon="6.4566350">
        <ele>0.0000000</ele>
        <time>2006-11-30T06:18:44Z</time>
      </trkpt>
      <trkpt lat="51.2434320" lon="6.4550740">
        <ele>0.0000000</ele>
        <time>2006-11-30T06:17:56Z</time>
      </trkpt>
      <trkpt lat="51.2436690" lon="6.4535560">
        <ele>0.0000000</ele>
        <time>2006-11-30T06:17:24Z</time>
      </trkpt>
      <trkpt lat="51.2434210" lon="6.4524960">
        <ele>0.0000000</ele>
        <time>2006-11-30T06:17:00Z</time>
      </trkpt>
      <trkpt lat="51.2441170" lon="6.4514550">
        <ele>0.0000000</ele>
        <time>2006-11-30T06:16:28Z</time>
      </trkpt>
      <trkpt lat="51.2444500" lon="6.4502190">
        <ele>0.0000000</ele>
        <time>2006-11-30T06:16:00Z</time>
      </trkpt>
      <trkpt lat="51.2459090" lon="6.4470580">
        <ele>0.0000000</ele>
        <time>2006-11-30T06:14:38Z</time>
      </trkpt>
      <trkpt lat="51.2463880" lon="6.4463160">
        <ele>0.0000000</ele>
        <time>2006-11-30T06:14:16Z</time>
      </trkpt>
      <trkpt lat="51.2467870" lon="6.4460790">
        <ele>0.0000000</ele>
        <time>2006-11-30T06:13:56Z</time>
      </trkpt>
      <trkpt lat="51.2472140" lon="6.4450520">
        <ele>0.0000000</ele>
        <time>2006-11-30T06:13:30Z</time>
      </trkpt>
      <trkpt lat="51.2475000" lon="6.4437470">
        <ele>0.0000000</ele>
        <time>2006-11-30T06:13:01Z</time>
      </trkpt>
      <trkpt lat="51.2482780" lon="6.4381890">
        <ele>0.0000000</ele>
        <time>2006-11-30T06:11:02Z</time>
      </trkpt>
      <trkpt lat="51.2486660" lon="6.4353740">
        <ele>0.0000000</ele>
        <time>2006-11-30T06:10:02Z</time>
      </trkpt>
      <trkpt lat="51.2487450" lon="6.4328620">
        <ele>0.0000000</ele>
        <time>2006-11-30T06:09:10Z</time>
      </trkpt>
      <trkpt lat="51.2488440" lon="6.4312100">
        <ele>0.0000000</ele>
        <time>2006-11-30T06:08:35Z</time>
      </trkpt>
      <trkpt lat="51.2492600" lon="6.4296820">
        <ele>0.0000000</ele>
        <time>2006-11-30T06:08:00Z</time>
      </trkpt>
      <trkpt lat="51.2499070" lon="6.4284280">
        <ele>0.0000000</ele>
        <time>2006-11-30T06:07:26Z</time>
      </trkpt>
      <trkpt lat="51.2503750" lon="6.4272560">
        <ele>0.0000000</ele>
        <time>2006-11-30T06:06:57Z</time>
      </trkpt>
      <trkpt lat="51.2508320" lon="6.4235060">
        <ele>0.0000000</ele>
        <time>2006-11-30T06:05:37Z</time>
      </trkpt>
      <trkpt lat="51.2495740" lon="6.4214990">
        <ele>0.0000000</ele>
        <time>2006-11-30T06:04:38Z</time>
      </trkpt>
      <trkpt lat="51.2490550" lon="6.4203820">
        <ele>0.0000000</ele>
        <time>2006-11-30T06:04:09Z</time>
      </trkpt>
      <trkpt lat="51.2482050" lon="6.4184960">
        <ele>0.0000000</ele>
        <time>2006-11-30T06:03:20Z</time>
      </trkpt>
      <trkpt lat="51.2474070" lon="6.4169650">
        <ele>0.0000000</ele>
        <time>2006-11-30T06:02:39Z</time>
      </trkpt>
      <trkpt lat="51.2461170" lon="6.4135280">
        <ele>0.0000000</ele>
        <time>2006-11-30T06:01:15Z</time>
      </trkpt>
      <trkpt lat="51.2458530" lon="6.4117520">
        <ele>0.0000000</ele>
        <time>2006-11-30T06:00:37Z</time>
      </trkpt>
      <trkpt lat="51.2456610" lon="6.4091840">
        <ele>0.0000000</ele>
        <time>2006-11-30T05:59:43Z</time>
      </trkpt>
      <trkpt lat="51.2456530" lon="6.4085810">
        <ele>37.6286620</ele>
        <time>2007-03-08T12:43:25Z</time>
      </trkpt>
      <trkpt lat="51.2454810" lon="6.4080070">
        <ele>37.6286620</ele>
        <time>2007-03-08T12:43:20Z</time>
      </trkpt>
      <trkpt lat="51.2452640" lon="6.4074160">
        <ele>38.1093750</ele>
        <time>2007-03-08T12:43:14Z</time>
      </trkpt>
      <trkpt lat="51.2452210" lon="6.4070880">
        <ele>38.5900880</ele>
        <time>2007-03-08T12:43:10Z</time>
      </trkpt>
      <trkpt lat="51.2451850" lon="6.4068840">
        <ele>38.1093750</ele>
        <time>2007-03-08T12:43:07Z</time>
      </trkpt>
      <trkpt lat="51.2451910" lon="6.4067070">
        <ele>38.5900880</ele>
        <time>2007-03-08T12:43:04Z</time>
      </trkpt>
      <trkpt lat="51.2451220" lon="6.4065270">
        <ele>38.5900880</ele>
        <time>2007-03-08T12:43:00Z</time>
      </trkpt>
      <trkpt lat="51.2451060" lon="6.4064600">
        <ele>38.1093750</ele>
        <time>2007-03-08T12:42:58Z</time>
      </trkpt>
      <trkpt lat="51.2451870" lon="6.4063330">
        <ele>38.5900880</ele>
        <time>2007-03-08T12:42:26Z</time>
      </trkpt>
      <trkpt lat="51.2453190" lon="6.4062090">
        <ele>38.1093750</ele>
        <time>2007-03-08T12:42:22Z</time>
      </trkpt>
      <trkpt lat="51.2456910" lon="6.4058870">
        <ele>38.5900880</ele>
        <time>2007-03-08T12:42:14Z</time>
      </trkpt>
      <trkpt lat="51.2460740" lon="6.4055470">
        <ele>38.1093750</ele>
        <time>2007-03-08T12:42:06Z</time>
      </trkpt>
      <trkpt lat="51.2463500" lon="6.4052930">
        <ele>39.0706790</ele>
        <time>2007-03-08T12:41:59Z</time>
      </trkpt>
      <trkpt lat="51.2464320" lon="6.4052200">
        <ele>39.5512700</ele>
        <time>2007-03-08T12:41:56Z</time>
      </trkpt>
      <trkpt lat="51.2464130" lon="6.4051080">
        <ele>39.5512700</ele>
        <time>2007-03-08T12:41:47Z</time>
      </trkpt>
      <trkpt lat="51.2463250" lon="6.4048410">
        <ele>39.0706790</ele>
        <time>2007-03-08T12:41:42Z</time>
      </trkpt>
      <trkpt lat="51.2461920" lon="6.4044510">
        <ele>39.0706790</ele>
        <time>2007-03-08T12:41:37Z</time>
      </trkpt>
      <trkpt lat="51.2461340" lon="6.4043110">
        <ele>39.0706790</ele>
        <time>2007-03-08T12:41:35Z</time>
      </trkpt>
      <trkpt lat="51.2460170" lon="6.4042890">
        <ele>39.0706790</ele>
        <time>2007-03-08T12:41:32Z</time>
      </trkpt>
      <trkpt lat="51.2459270" lon="6.4043670">
        <ele>39.5512700</ele>
        <time>2007-03-08T12:41:30Z</time>
      </trkpt>
      <trkpt lat="51.2456240" lon="6.4046510">
        <ele>37.6286620</ele>
        <time>2007-03-08T12:41:24Z</time>
      </trkpt>
      <trkpt lat="51.2452980" lon="6.4049170">
        <ele>38.1093750</ele>
        <time>2007-03-08T12:41:17Z</time>
      </trkpt>
      <trkpt lat="51.2451180" lon="6.4050430">
        <ele>37.6286620</ele>
        <time>2007-03-08T12:41:13Z</time>
      </trkpt>
      <trkpt lat="51.2450610" lon="6.4050800">
        <ele>38.1093750</ele>
        <time>2007-03-08T12:41:12Z</time>
      </trkpt>
      <trkpt lat="51.2450300" lon="6.4050660">
        <ele>0.0000000</ele>
        <time>2006-11-30T05:58:03Z</time>
      </trkpt>
      <trkpt lat="51.2447090" lon="6.4027200">
        <ele>0.0000000</ele>
        <time>2006-11-30T05:57:09Z</time>
      </trkpt>
      <trkpt lat="51.2443980" lon="6.4008760">
        <ele>0.0000000</ele>
        <time>2006-11-30T05:56:12Z</time>
      </trkpt>
      <trkpt lat="51.2468790" lon="6.3992320">
        <ele>0.0000000</ele>
        <time>2006-11-30T05:54:43Z</time>
      </trkpt>
      <trkpt lat="51.2463770" lon="6.3968960">
        <ele>0.0000000</ele>
        <time>2006-11-30T05:53:51Z</time>
      </trkpt>
      <trkpt lat="51.2459170" lon="6.3944160">
        <ele>0.0000000</ele>
        <time>2006-11-30T05:52:57Z</time>
      </trkpt>
      <trkpt lat="51.2454950" lon="6.3915750">
        <ele>0.0000000</ele>
        <time>2006-11-30T05:51:56Z</time>
      </trkpt>
      <trkpt lat="51.2453700" lon="6.3900060">
        <ele>0.0000000</ele>
        <time>2006-11-30T05:51:23Z</time>
      </trkpt>
      <trkpt lat="51.2455570" lon="6.3883480">
        <ele>0.0000000</ele>
        <time>2006-11-30T05:50:48Z</time>
      </trkpt>
      <trkpt lat="51.2459280" lon="6.3868230">
        <ele>0.0000000</ele>
        <time>2006-11-30T05:50:14Z</time>
      </trkpt>
      <trkpt lat="51.2460690" lon="6.3850960">
        <ele>0.0000000</ele>
        <time>2006-11-30T05:49:37Z</time>
      </trkpt>
      <trkpt lat="51.2459810" lon="6.3831670">
        <ele>0.0000000</ele>
        <time>2006-11-30T05:48:57Z</time>
      </trkpt>
      <trkpt lat="51.2459510" lon="6.3818080">
        <ele>0.0000000</ele>
        <time>2006-11-30T05:48:29Z</time>
      </trkpt>
      <trkpt lat="51.2454870" lon="6.3791840">
        <ele>0.0000000</ele>
        <time>2006-11-30T05:47:32Z</time>
      </trkpt>
      <trkpt lat="51.2453350" lon="6.3784050">
        <ele>0.0000000</ele>
        <time>2006-11-30T05:47:15Z</time>
      </trkpt>
      <trkpt lat="51.2449500" lon="6.3772810">
        <ele>0.0000000</ele>
        <time>2006-11-30T05:46:48Z</time>
      </trkpt>
      <trkpt lat="51.2442060" lon="6.3761780">
        <ele>0.0000000</ele>
        <time>2006-11-30T05:46:14Z</time>
      </trkpt>
      <trkpt lat="51.2424250" lon="6.3729130">
        <ele>0.0000000</ele>
        <time>2006-11-30T05:44:44Z</time>
      </trkpt>
      <trkpt lat="51.2417710" lon="6.3718040">
        <ele>0.0000000</ele>
        <time>2006-11-30T05:44:12Z</time>
      </trkpt>
      <trkpt lat="51.2419020" lon="6.3676430">
        <ele>0.0000000</ele>
        <time>2006-11-30T05:42:45Z</time>
      </trkpt>
      <trkpt lat="51.2435130" lon="6.3673360">
        <ele>0.0000000</ele>
        <time>2006-11-30T05:41:51Z</time>
      </trkpt>
      <trkpt lat="51.2452990" lon="6.3668040">
        <ele>0.0000000</ele>
        <time>2006-11-30T05:40:50Z</time>
      </trkpt>
      <trkpt lat="51.2465470" lon="6.3663030">
        <ele>0.0000000</ele>
        <time>2006-11-30T05:40:07Z</time>
      </trkpt>
      <trkpt lat="51.2488410" lon="6.3663870">
        <ele>0.0000000</ele>
        <time>2006-11-30T05:38:51Z</time>
      </trkpt>
      <trkpt lat="51.2498820" lon="6.3666860">
        <ele>0.0000000</ele>
        <time>2006-11-30T05:38:15Z</time>
      </trkpt>
      <trkpt lat="51.2512430" lon="6.3672530">
        <ele>0.0000000</ele>
        <time>2006-11-30T05:37:28Z</time>
      </trkpt>
      <trkpt lat="51.2524550" lon="6.3671830">
        <ele>0.0000000</ele>
        <time>2006-11-30T05:36:48Z</time>
      </trkpt>
      <trkpt lat="51.2534960" lon="6.3674150">
        <ele>60.2197270</ele>
        <time>2007-03-08T12:31:38Z</time>
      </trkpt>
      <trkpt lat="51.2534960" lon="6.3674150">
        <ele>60.2197270</ele>
        <time>2007-03-08T12:31:38Z</time>
      </trkpt>
      <trkpt lat="51.2539600" lon="6.3675050">
        <ele>60.2197270</ele>
        <time>2007-03-08T12:31:30Z</time>
      </trkpt>
      <trkpt lat="51.2544910" lon="6.3676110">
        <ele>59.7391360</ele>
        <time>2007-03-08T12:31:21Z</time>
      </trkpt>
      <trkpt lat="51.2549840" lon="6.3677030">
        <ele>60.7003170</ele>
        <time>2007-03-08T12:31:13Z</time>
      </trkpt>
      <trkpt lat="51.2553110" lon="6.3678300">
        <ele>60.7003170</ele>
        <time>2007-03-08T12:31:06Z</time>
      </trkpt>
      <trkpt lat="51.2554380" lon="6.3679690">
        <ele>60.2197270</ele>
        <time>2007-03-08T12:31:02Z</time>
      </trkpt>
      <trkpt lat="51.2554550" lon="6.3681200">
        <ele>59.7391360</ele>
        <time>2007-03-08T12:31:00Z</time>
      </trkpt>
      <trkpt lat="51.2554920" lon="6.3685290">
        <ele>59.2584230</ele>
        <time>2007-03-08T12:30:55Z</time>
      </trkpt>
      <trkpt lat="51.2555250" lon="6.3687770">
        <ele>58.2971190</ele>
        <time>2007-03-08T12:30:52Z</time>
      </trkpt>
      <trkpt lat="51.2555840" lon="6.3692180">
        <ele>58.2971190</ele>
        <time>2007-03-08T12:30:46Z</time>
      </trkpt>
      <trkpt lat="51.2555950" lon="6.3694770">
        <ele>57.8165280</ele>
        <time>2007-03-08T12:30:41Z</time>
      </trkpt>
      <trkpt lat="51.2556100" lon="6.3696680">
        <ele>57.3358150</ele>
        <time>2007-03-08T12:30:37Z</time>
      </trkpt>
      <trkpt lat="51.2556530" lon="6.3697410">
        <ele>57.3358150</ele>
        <time>2007-03-08T12:30:24Z</time>
      </trkpt>
      <trkpt lat="51.2557450" lon="6.3697230">
        <ele>57.3358150</ele>
        <time>2007-03-08T12:30:20Z</time>
      </trkpt>
      <trkpt lat="51.2558100" lon="6.3696490">
        <ele>56.3745120</ele>
        <time>2007-03-08T12:29:53Z</time>
      </trkpt>
      <trkpt lat="51.2558090" lon="6.3694520">
        <ele>56.8551030</ele>
        <time>2007-03-08T12:29:48Z</time>
      </trkpt>
      <trkpt lat="51.2559860" lon="6.3691850">
        <ele>56.8551030</ele>
        <time>2007-03-08T12:28:20Z</time>
      </trkpt>
      <trkpt lat="51.2561320" lon="6.3690590">
        <ele>56.8551030</ele>
        <time>2007-03-08T12:28:18Z</time>
      </trkpt>
      <trkpt lat="51.2563710" lon="6.3688100">
        <ele>58.7777100</ele>
        <time>2007-03-08T12:28:15Z</time>
      </trkpt>
      <trkpt lat="51.2570190" lon="6.3682120">
        <ele>0.0000000</ele>
        <time>2006-11-30T05:33:43Z</time>
      </trkpt>
      <trkpt lat="51.2578040" lon="6.3671640">
        <ele>0.0000000</ele>
        <time>2006-11-30T05:33:09Z</time>
      </trkpt>
      <trkpt lat="51.2584550" lon="6.3661240">
        <ele>0.0000000</ele>
        <time>2006-11-30T05:32:38Z</time>
      </trkpt>
      <trkpt lat="51.2601690" lon="6.3623720">
        <ele>0.0000000</ele>
        <time>2006-11-30T05:31:01Z</time>
      </trkpt>
      <trkpt lat="51.2617110" lon="6.3589880">
        <ele>0.0000000</ele>
        <time>2006-11-30T05:29:34Z</time>
      </trkpt>
      <trkpt lat="51.2620200" lon="6.3587550">
        <ele>0.0000000</ele>
        <time>2006-11-30T05:29:22Z</time>
      </trkpt>
      <trkpt lat="51.2627170" lon="6.3577840">
        <ele>0.0000000</ele>
        <time>2006-11-30T05:28:51Z</time>
      </trkpt>
      <trkpt lat="51.2637830" lon="6.3552150">
        <ele>0.0000000</ele>
        <time>2006-11-30T05:27:46Z</time>
      </trkpt>
      <trkpt lat="51.2644240" lon="6.3537450">
        <ele>0.0000000</ele>
        <time>2006-11-30T05:27:09Z</time>
      </trkpt>
      <trkpt lat="51.2649480" lon="6.3530700">
        <ele>0.0000000</ele>
        <time>2006-11-30T05:26:46Z</time>
      </trkpt>
      <trkpt lat="51.2668460" lon="6.3495220">
        <ele>0.0000000</ele>
        <time>2006-11-30T05:25:09Z</time>
      </trkpt>
      <trkpt lat="51.2673680" lon="6.3487750">
        <ele>0.0000000</ele>
        <time>2006-11-30T05:24:45Z</time>
      </trkpt>
      <trkpt lat="51.2680760" lon="6.3462980">
        <ele>0.0000000</ele>
        <time>2006-11-30T05:23:49Z</time>
      </trkpt>
      <trkpt lat="51.2683280" lon="6.3454950">
        <ele>0.0000000</ele>
        <time>2006-11-30T05:23:30Z</time>
      </trkpt>
      <trkpt lat="51.2690920" lon="6.3435160">
        <ele>0.0000000</ele>
        <time>2006-11-30T05:22:41Z</time>
      </trkpt>
      <trkpt lat="51.2696870" lon="6.3419770">
        <ele>0.0000000</ele>
        <time>2006-11-30T05:22:04Z</time>
      </trkpt>
      <trkpt lat="51.2699330" lon="6.3409600">
        <ele>0.0000000</ele>
        <time>2006-11-30T05:21:41Z</time>
      </trkpt>
      <trkpt lat="51.2704540" lon="6.3401410">
        <ele>0.0000000</ele>
        <time>2006-11-30T05:21:16Z</time>
      </trkpt>
      <trkpt lat="51.2709850" lon="6.3397520">
        <ele>0.0000000</ele>
        <time>2006-11-30T05:20:57Z</time>
      </trkpt>
      <trkpt lat="51.2715150" lon="6.3393630">
        <ele>0.0000000</ele>
        <time>2006-11-30T05:20:37Z</time>
      </trkpt>
      <trkpt lat="51.2723950" lon="6.3385240">
        <ele>0.0000000</ele>
        <time>2006-11-30T05:20:03Z</time>
      </trkpt>
      <trkpt lat="51.2726480" lon="6.3377930">
        <ele>0.0000000</ele>
        <time>2006-11-30T05:19:46Z</time>
      </trkpt>
      <trkpt lat="51.2731230" lon="6.3369050">
        <ele>0.0000000</ele>
        <time>2006-11-30T05:19:22Z</time>
      </trkpt>
      <trkpt lat="51.2736560" lon="6.3366600">
        <ele>0.0000000</ele>
        <time>2006-11-30T05:19:03Z</time>
      </trkpt>
      <trkpt lat="51.2739610" lon="6.3362120">
        <ele>0.0000000</ele>
        <time>2006-11-30T05:18:49Z</time>
      </trkpt>
      <trkpt lat="51.2746650" lon="6.3355260">
        <ele>0.0000000</ele>
        <time>2006-11-30T05:18:22Z</time>
      </trkpt>
      <trkpt lat="51.2750170" lon="6.3352190">
        <ele>0.0000000</ele>
        <time>2006-11-30T05:18:08Z</time>
      </trkpt>
      <trkpt lat="51.2757720" lon="6.3348170">
        <ele>0.0000000</ele>
        <time>2006-11-30T05:17:42Z</time>
      </trkpt>
      <trkpt lat="51.2761660" lon="6.3343640">
        <ele>0.0000000</ele>
        <time>2006-11-30T05:17:26Z</time>
      </trkpt>
      <trkpt lat="51.2766600" lon="6.3343360">
        <ele>0.0000000</ele>
        <time>2006-11-30T05:17:09Z</time>
      </trkpt>
      <trkpt lat="51.2781800" lon="6.3339610">
        <ele>0.0000000</ele>
        <time>2006-11-30T05:16:18Z</time>
      </trkpt>
      <trkpt lat="51.2809520" lon="6.3332980">
        <ele>0.0000000</ele>
        <time>2006-11-30T05:14:44Z</time>
      </trkpt>
      <trkpt lat="51.2811520" lon="6.3322120">
        <ele>0.0000000</ele>
        <time>2006-11-30T05:14:20Z</time>
      </trkpt>
      <trkpt lat="51.2809800" lon="6.3305730">
        <ele>0.0000000</ele>
        <time>2006-11-30T05:13:46Z</time>
      </trkpt>
      <trkpt lat="51.2805400" lon="6.3250800">
        <ele>0.0000000</ele>
        <time>2006-11-30T05:11:50Z</time>
      </trkpt>
      <trkpt lat="51.2836980" lon="6.3236060">
        <ele>0.0000000</ele>
        <time>2006-11-30T05:10:00Z</time>
      </trkpt>
      <trkpt lat="51.2847970" lon="6.3225380">
        <ele>0.0000000</ele>
        <time>2006-11-30T05:09:17Z</time>
      </trkpt>
      <trkpt lat="51.2854640" lon="6.3222130">
        <ele>0.0000000</ele>
        <time>2006-11-30T05:08:54Z</time>
      </trkpt>
      <trkpt lat="51.2858170" lon="6.3219050">
        <ele>0.0000000</ele>
        <time>2006-11-30T05:08:41Z</time>
      </trkpt>
      <trkpt lat="51.2866610" lon="6.3214980">
        <ele>0.0000000</ele>
        <time>2006-11-30T05:08:11Z</time>
      </trkpt>
      <trkpt lat="51.2887430" lon="6.3201580">
        <ele>0.0000000</ele>
        <time>2006-11-30T05:06:56Z</time>
      </trkpt>
      <trkpt lat="51.2892670" lon="6.3194820">
        <ele>0.0000000</ele>
        <time>2006-11-30T05:06:34Z</time>
      </trkpt>
      <trkpt lat="51.2899790" lon="6.3191540">
        <ele>0.0000000</ele>
        <time>2006-11-30T05:06:09Z</time>
      </trkpt>
      <trkpt lat="51.2912260" lon="6.3186510">
        <ele>0.0000000</ele>
        <time>2006-11-30T05:05:26Z</time>
      </trkpt>
      <trkpt lat="51.2940200" lon="6.3189180">
        <ele>0.0000000</ele>
        <time>2006-11-30T05:03:53Z</time>
      </trkpt>
      <trkpt lat="51.2955750" lon="6.3201180">
        <ele>0.0000000</ele>
        <time>2006-11-30T05:02:55Z</time>
      </trkpt>
      <trkpt lat="51.2976110" lon="6.3128290">
        <ele>0.0000000</ele>
        <time>2006-11-30T05:00:09Z</time>
      </trkpt>
      <trkpt lat="51.2990620" lon="6.3133900">
        <ele>0.0000000</ele>
        <time>2006-11-30T04:59:19Z</time>
      </trkpt>
      <trkpt lat="51.2998690" lon="6.3132710">
        <ele>0.0000000</ele>
        <time>2006-11-30T04:58:52Z</time>
      </trkpt>
      <trkpt lat="51.3049900" lon="6.3111790">
        <ele>0.0000000</ele>
        <time>2006-11-30T04:55:55Z</time>
      </trkpt>
      <trkpt lat="51.3069770" lon="6.3096280">
        <ele>0.0000000</ele>
        <time>2006-11-30T04:54:42Z</time>
      </trkpt>
      <trkpt lat="51.3081650" lon="6.3084830">
        <ele>0.0000000</ele>
        <time>2006-11-30T04:53:55Z</time>
      </trkpt>
      <trkpt lat="51.3089150" lon="6.3078650">
        <ele>0.0000000</ele>
        <time>2006-11-30T04:53:27Z</time>
      </trkpt>
      <trkpt lat="51.3112490" lon="6.3077290">
        <ele>0.0000000</ele>
        <time>2006-11-30T04:52:09Z</time>
      </trkpt>
      <trkpt lat="51.3118710" lon="6.3074050">
        <ele>0.0000000</ele>
        <time>2006-11-30T04:51:47Z</time>
      </trkpt>
      <trkpt lat="51.3124960" lon="6.3072250">
        <ele>0.0000000</ele>
        <time>2006-11-30T04:51:26Z</time>
      </trkpt>
      <trkpt lat="51.3130270" lon="6.3068350">
        <ele>0.0000000</ele>
        <time>2006-11-30T04:51:07Z</time>
      </trkpt>
      <trkpt lat="51.3139900" lon="6.3057030">
        <ele>0.0000000</ele>
        <time>2006-11-30T04:50:27Z</time>
      </trkpt>
      <trkpt lat="51.3146900" lon="6.3048730">
        <ele>0.0000000</ele>
        <time>2006-11-30T04:49:58Z</time>
      </trkpt>
      <trkpt lat="51.3164610" lon="6.3036930">
        <ele>0.0000000</ele>
        <time>2006-11-30T04:48:54Z</time>
      </trkpt>
      <trkpt lat="51.3170930" lon="6.3038000">
        <ele>0.0000000</ele>
        <time>2006-11-30T04:48:33Z</time>
      </trkpt>
      <trkpt lat="51.3197710" lon="6.3029970">
        <ele>0.0000000</ele>
        <time>2006-11-30T04:47:02Z</time>
      </trkpt>
      <trkpt lat="51.3202200" lon="6.3029700">
        <ele>0.0000000</ele>
        <time>2006-11-30T04:46:47Z</time>
      </trkpt>
      <trkpt lat="51.3197900" lon="6.3018480">
        <ele>0.0000000</ele>
        <time>2006-11-30T04:46:19Z</time>
      </trkpt>
      <trkpt lat="51.3204030" lon="6.3011660">
        <ele>0.0000000</ele>
        <time>2006-11-30T04:45:54Z</time>
      </trkpt>
      <trkpt lat="51.3209910" lon="6.2993380">
        <ele>0.0000000</ele>
        <time>2006-11-30T04:45:12Z</time>
      </trkpt>
      <trkpt lat="51.3210170" lon="6.2985470">
        <ele>0.0000000</ele>
        <time>2006-11-30T04:44:55Z</time>
      </trkpt>
      <trkpt lat="51.3210470" lon="6.2979000">
        <ele>0.0000000</ele>
        <time>2006-11-30T04:44:42Z</time>
      </trkpt>
      <trkpt lat="51.3214410" lon="6.2974460">
        <ele>0.0000000</ele>
        <time>2006-11-30T04:44:25Z</time>
      </trkpt>
      <trkpt lat="51.3248130" lon="6.2955260">
        <ele>0.0000000</ele>
        <time>2006-11-30T04:42:26Z</time>
      </trkpt>
      <trkpt lat="51.3255070" lon="6.2944090">
        <ele>0.0000000</ele>
        <time>2006-11-30T04:41:53Z</time>
      </trkpt>
      <trkpt lat="51.3256670" lon="6.2935390">
        <ele>0.0000000</ele>
        <time>2006-11-30T04:41:34Z</time>
      </trkpt>
      <trkpt lat="51.3252860" lon="6.2926280">
        <ele>0.0000000</ele>
        <time>2006-11-30T04:41:11Z</time>
      </trkpt>
      <trkpt lat="51.3254070" lon="6.2920470">
        <ele>0.0000000</ele>
        <time>2006-11-30T04:40:59Z</time>
      </trkpt>
      <trkpt lat="51.3262020" lon="6.2914260">
        <ele>0.0000000</ele>
        <time>2006-11-30T04:40:29Z</time>
      </trkpt>
      <trkpt lat="51.3267720" lon="6.2908190">
        <ele>0.0000000</ele>
        <time>2006-11-30T04:40:06Z</time>
      </trkpt>
      <trkpt lat="51.3269720" lon="6.2897310">
        <ele>0.0000000</ele>
        <time>2006-11-30T04:39:43Z</time>
      </trkpt>
      <trkpt lat="51.3274890" lon="6.2887680">
        <ele>0.0000000</ele>
        <time>2006-11-30T04:39:16Z</time>
      </trkpt>
      <trkpt lat="51.3279880" lon="6.2870160">
        <ele>0.0000000</ele>
        <time>2006-11-30T04:38:36Z</time>
      </trkpt>
      <trkpt lat="51.3286780" lon="6.2857550">
        <ele>0.0000000</ele>
        <time>2006-11-30T04:38:01Z</time>
      </trkpt>
      <trkpt lat="51.3295910" lon="6.2844100">
        <ele>0.0000000</ele>
        <time>2006-11-30T04:37:20Z</time>
      </trkpt>
      <trkpt lat="51.3297140" lon="6.2839000">
        <ele>0.0000000</ele>
        <time>2006-11-30T04:37:08Z</time>
      </trkpt>
      <trkpt lat="51.3296840" lon="6.2826110">
        <ele>0.0000000</ele>
        <time>2006-11-30T04:36:41Z</time>
      </trkpt>
      <trkpt lat="51.3296620" lon="6.2816790">
        <ele>0.0000000</ele>
        <time>2006-11-30T04:36:22Z</time>
      </trkpt>
      <trkpt lat="51.3296890" lon="6.2808880">
        <ele>0.0000000</ele>
        <time>2006-11-30T04:36:05Z</time>
      </trkpt>
      <trkpt lat="51.3315040" lon="6.2816420">
        <ele>0.0000000</ele>
        <time>2006-11-30T04:35:03Z</time>
      </trkpt>
      <trkpt lat="51.3325500" lon="6.2821540">
        <ele>0.0000000</ele>
        <time>2006-11-30T04:34:26Z</time>
      </trkpt>
      <trkpt lat="51.3330810" lon="6.2817640">
        <ele>0.0000000</ele>
        <time>2006-11-30T04:34:07Z</time>
      </trkpt>
      <trkpt lat="51.3334220" lon="6.2809540">
        <ele>0.0000000</ele>
        <time>2006-11-30T04:33:47Z</time>
      </trkpt>
      <trkpt lat="51.3350490" lon="6.2813600">
        <ele>0.0000000</ele>
        <time>2006-11-30T04:32:52Z</time>
      </trkpt>
      <trkpt lat="51.3351840" lon="6.2813520">
        <ele>0.0000000</ele>
        <time>2006-11-30T04:32:47Z</time>
      </trkpt>
      <trkpt lat="51.3360600" lon="6.2803680">
        <ele>0.0000000</ele>
        <time>2006-11-30T04:32:11Z</time>
      </trkpt>
      <trkpt lat="51.3367470" lon="6.2809010">
        <ele>0.0000000</ele>
        <time>2006-11-30T04:31:46Z</time>
      </trkpt>
      <trkpt lat="51.3375250" lon="6.2815010">
        <ele>0.0000000</ele>
        <time>2006-11-30T04:31:17Z</time>
      </trkpt>
      <trkpt lat="51.3380640" lon="6.2814690">
        <ele>0.0000000</ele>
        <time>2006-11-30T04:30:59Z</time>
      </trkpt>
      <trkpt lat="51.3389400" lon="6.2804840">
        <ele>0.0000000</ele>
        <time>2006-11-30T04:30:23Z</time>
      </trkpt>
      <trkpt lat="51.3400060" lon="6.2799180">
        <ele>0.0000000</ele>
        <time>2006-11-30T04:29:46Z</time>
      </trkpt>
      <trkpt lat="51.3410280" lon="6.2794270">
        <ele>0.0000000</ele>
        <time>2006-11-30T04:29:10Z</time>
      </trkpt>
      <trkpt lat="51.3478330" lon="6.2821110">
        <ele>0.0000000</ele>
        <time>2006-11-30T04:25:17Z</time>
      </trkpt>
      <trkpt lat="51.3503760" lon="6.2812420">
        <ele>0.0000000</ele>
        <time>2006-11-30T04:23:50Z</time>
      </trkpt>
      <trkpt lat="51.3514400" lon="6.2806050">
        <ele>0.0000000</ele>
        <time>2006-11-30T04:23:12Z</time>
      </trkpt>
      <trkpt lat="51.3517370" lon="6.2798690">
        <ele>0.0000000</ele>
        <time>2006-11-30T04:22:54Z</time>
      </trkpt>
      <trkpt lat="51.3520710" lon="6.2787730">
        <ele>0.0000000</ele>
        <time>2006-11-30T04:22:28Z</time>
      </trkpt>
      <trkpt lat="51.3524200" lon="6.2783210">
        <ele>0.0000000</ele>
        <time>2006-11-30T04:22:13Z</time>
      </trkpt>
      <trkpt lat="51.3557470" lon="6.2764010">
        <ele>0.0000000</ele>
        <time>2006-11-30T04:20:15Z</time>
      </trkpt>
      <trkpt lat="51.3563570" lon="6.2755750">
        <ele>0.0000000</ele>
        <time>2006-11-30T04:19:49Z</time>
      </trkpt>
      <trkpt lat="51.3569480" lon="6.2758270">
        <ele>0.0000000</ele>
        <time>2006-11-30T04:19:28Z</time>
      </trkpt>
      <trkpt lat="51.3567900" lon="6.2754960">
        <ele>32.3415530</ele>
        <time>2007-08-01T08:07:13Z</time>
      </trkpt>
      <trkpt lat="51.3567840" lon="6.2752610">
        <ele>31.3801270</ele>
        <time>2007-08-01T08:07:15Z</time>
      </trkpt>
      <trkpt lat="51.3567790" lon="6.2747440">
        <ele>32.3415530</ele>
        <time>2007-08-01T08:07:19Z</time>
      </trkpt>
      <trkpt lat="51.3567560" lon="6.2743140">
        <ele>34.2641600</ele>
        <time>2007-08-01T08:07:23Z</time>
      </trkpt>
      <trkpt lat="51.3567290" lon="6.2735810">
        <ele>35.7060550</ele>
        <time>2007-08-01T08:07:30Z</time>
      </trkpt>
      <trkpt lat="51.3567010" lon="6.2729370">
        <ele>34.7448730</ele>
        <time>2007-08-01T08:07:36Z</time>
      </trkpt>
      <trkpt lat="51.3566750" lon="6.2723190">
        <ele>34.2641600</ele>
        <time>2007-08-01T08:07:42Z</time>
      </trkpt>
      <trkpt lat="51.3566420" lon="6.2715210">
        <ele>34.2641600</ele>
        <time>2007-08-01T08:07:49Z</time>
      </trkpt>
      <trkpt lat="51.3565940" lon="6.2709540">
        <ele>34.7448730</ele>
        <time>2007-08-01T08:07:54Z</time>
      </trkpt>
      <trkpt lat="51.3565770" lon="6.2706210">
        <ele>35.2254640</ele>
        <time>2007-08-01T08:07:57Z</time>
      </trkpt>
      <trkpt lat="51.3565730" lon="6.2698440">
        <ele>35.2254640</ele>
        <time>2007-08-01T08:08:04Z</time>
      </trkpt>
      <trkpt lat="51.3565720" lon="6.2697320">
        <ele>34.7448730</ele>
        <time>2007-08-01T08:08:05Z</time>
      </trkpt>
      <trkpt lat="51.3565590" lon="6.2695100">
        <ele>35.2254640</ele>
        <time>2007-08-01T08:08:07Z</time>
      </trkpt>
      <trkpt lat="51.3565500" lon="6.2692840">
        <ele>34.7448730</ele>
        <time>2007-08-01T08:08:09Z</time>
      </trkpt>
      <trkpt lat="51.3565370" lon="6.2685260">
        <ele>33.7834470</ele>
        <time>2007-08-01T08:08:16Z</time>
      </trkpt>
      <trkpt lat="51.3565440" lon="6.2679290">
        <ele>33.3028560</ele>
        <time>2007-08-01T08:08:21Z</time>
      </trkpt>
      <trkpt lat="51.3565370" lon="6.2674020">
        <ele>34.2641600</ele>
        <time>2007-08-01T08:08:26Z</time>
      </trkpt>
      <trkpt lat="51.3566390" lon="6.2671010">
        <ele>35.2254640</ele>
        <time>2007-08-01T08:08:30Z</time>
      </trkpt>
      <trkpt lat="51.3567350" lon="6.2669600">
        <ele>35.7060550</ele>
        <time>2007-08-01T08:08:32Z</time>
      </trkpt>
      <trkpt lat="51.3570220" lon="6.2663560">
        <ele>37.1480710</ele>
        <time>2007-08-01T08:08:39Z</time>
      </trkpt>
      <trkpt lat="51.3572970" lon="6.2659130">
        <ele>38.5900880</ele>
        <time>2007-08-01T08:08:45Z</time>
      </trkpt>
      <trkpt lat="51.3576720" lon="6.2654150">
        <ele>40.5128170</ele>
        <time>2007-08-01T08:08:53Z</time>
      </trkpt>
      <trkpt lat="51.3577120" lon="6.2653460">
        <ele>40.0321040</ele>
        <time>2007-08-01T08:08:54Z</time>
      </trkpt>
      <trkpt lat="51.3578120" lon="6.2651080">
        <ele>41.4739990</ele>
        <time>2007-08-01T08:08:57Z</time>
      </trkpt>
      <trkpt lat="51.3580440" lon="6.2644610">
        <ele>40.5128170</ele>
        <time>2007-08-01T08:09:04Z</time>
      </trkpt>
      <trkpt lat="51.3583390" lon="6.2637260">
        <ele>39.0706790</ele>
        <time>2007-08-01T08:09:11Z</time>
      </trkpt>
      <trkpt lat="51.3588010" lon="6.2628410">
        <ele>38.1093750</ele>
        <time>2007-08-01T08:09:20Z</time>
      </trkpt>
      <trkpt lat="51.3592780" lon="6.2619600">
        <ele>37.6286620</ele>
        <time>2007-08-01T08:09:29Z</time>
      </trkpt>
      <trkpt lat="51.3595820" lon="6.2613670">
        <ele>36.6674800</ele>
        <time>2007-08-01T08:09:35Z</time>
      </trkpt>
      <trkpt lat="51.3598960" lon="6.2607770">
        <ele>36.1867680</ele>
        <time>2007-08-01T08:09:41Z</time>
      </trkpt>
      <trkpt lat="51.3604360" lon="6.2602120">
        <ele>35.7060550</ele>
        <time>2007-08-01T08:09:49Z</time>
      </trkpt>
      <trkpt lat="51.3609300" lon="6.2597350">
        <ele>35.2254640</ele>
        <time>2007-08-01T08:09:56Z</time>
      </trkpt>
      <trkpt lat="51.3615320" lon="6.2591490">
        <ele>35.2254640</ele>
        <time>2007-08-01T08:10:05Z</time>
      </trkpt>
      <trkpt lat="51.3620660" lon="6.2586290">
        <ele>35.2254640</ele>
        <time>2007-08-01T08:10:13Z</time>
      </trkpt>
      <trkpt lat="51.3625220" lon="6.2581840">
        <ele>36.1867680</ele>
        <time>2007-08-01T08:10:20Z</time>
      </trkpt>
      <trkpt lat="51.3629090" lon="6.2578120">
        <ele>36.1867680</ele>
        <time>2007-08-01T08:10:26Z</time>
      </trkpt>
      <trkpt lat="51.3632960" lon="6.2574580">
        <ele>36.6674800</ele>
        <time>2007-08-01T08:10:32Z</time>
      </trkpt>
      <trkpt lat="51.3637960" lon="6.2570050">
        <ele>37.1480710</ele>
        <time>2007-08-01T08:10:40Z</time>
      </trkpt>
      <trkpt lat="51.3640980" lon="6.2567380">
        <ele>37.1480710</ele>
        <time>2007-08-01T08:10:45Z</time>
      </trkpt>
      <trkpt lat="51.3645250" lon="6.2563470">
        <ele>37.6286620</ele>
        <time>2007-08-01T08:10:52Z</time>
      </trkpt>
      <trkpt lat="51.3649040" lon="6.2560260">
        <ele>37.6286620</ele>
        <time>2007-08-01T08:10:58Z</time>
      </trkpt>
      <trkpt lat="51.3653380" lon="6.2556390">
        <ele>38.5900880</ele>
        <time>2007-08-01T08:11:05Z</time>
      </trkpt>
      <trkpt lat="51.3657930" lon="6.2553080">
        <ele>38.5900880</ele>
        <time>2007-08-01T08:11:12Z</time>
      </trkpt>
      <trkpt lat="51.3664210" lon="6.2549450">
        <ele>38.5900880</ele>
        <time>2007-08-01T08:11:21Z</time>
      </trkpt>
      <trkpt lat="51.3669070" lon="6.2546890">
        <ele>39.0706790</ele>
        <time>2007-08-01T08:11:28Z</time>
      </trkpt>
      <trkpt lat="51.3673360" lon="6.2545070">
        <ele>39.0706790</ele>
        <time>2007-08-01T08:11:34Z</time>
      </trkpt>
      <trkpt lat="51.3678400" lon="6.2543030">
        <ele>39.0706790</ele>
        <time>2007-08-01T08:11:41Z</time>
      </trkpt>
      <trkpt lat="51.3682850" lon="6.2541380">
        <ele>39.0706790</ele>
        <time>2007-08-01T08:11:47Z</time>
      </trkpt>
      <trkpt lat="51.3687260" lon="6.2540170">
        <ele>38.5900880</ele>
        <time>2007-08-01T08:11:53Z</time>
      </trkpt>
      <trkpt lat="51.3690960" lon="6.2539090">
        <ele>38.1093750</ele>
        <time>2007-08-01T08:11:58Z</time>
      </trkpt>
      <trkpt lat="51.3695570" lon="6.2537700">
        <ele>37.6286620</ele>
        <time>2007-08-01T08:12:04Z</time>
      </trkpt>
      <trkpt lat="51.3700260" lon="6.2536330">
        <ele>37.1480710</ele>
        <time>2007-08-01T08:12:10Z</time>
      </trkpt>
      <trkpt lat="51.3701860" lon="6.2535920">
        <ele>36.6674800</ele>
        <time>2007-08-01T08:12:12Z</time>
      </trkpt>
      <trkpt lat="51.3706580" lon="6.2534520">
        <ele>36.6674800</ele>
        <time>2007-08-01T08:12:18Z</time>
      </trkpt>
      <trkpt lat="51.3711330" lon="6.2533170">
        <ele>36.1867680</ele>
        <time>2007-08-01T08:12:24Z</time>
      </trkpt>
      <trkpt lat="51.3716160" lon="6.2531900">
        <ele>36.1867680</ele>
        <time>2007-08-01T08:12:30Z</time>
      </trkpt>
      <trkpt lat="51.3720070" lon="6.2530620">
        <ele>35.2254640</ele>
        <time>2007-08-01T08:12:35Z</time>
      </trkpt>
      <trkpt lat="51.3724830" lon="6.2529340">
        <ele>33.7834470</ele>
        <time>2007-08-01T08:12:41Z</time>
      </trkpt>
      <trkpt lat="51.3728840" lon="6.2527980">
        <ele>34.2641600</ele>
        <time>2007-08-01T08:12:46Z</time>
      </trkpt>
      <trkpt lat="51.3733570" lon="6.2526530">
        <ele>34.2641600</ele>
        <time>2007-08-01T08:12:52Z</time>
      </trkpt>
      <trkpt lat="51.3739080" lon="6.2524990">
        <ele>33.7834470</ele>
        <time>2007-08-01T08:12:59Z</time>
      </trkpt>
      <trkpt lat="51.3742160" lon="6.2524180">
        <ele>33.7834470</ele>
        <time>2007-08-01T08:13:03Z</time>
      </trkpt>
      <trkpt lat="51.3747540" lon="6.2522690">
        <ele>33.7834470</ele>
        <time>2007-08-01T08:13:10Z</time>
      </trkpt>
      <trkpt lat="51.3750620" lon="6.2522130">
        <ele>33.3028560</ele>
        <time>2007-08-01T08:13:14Z</time>
      </trkpt>
      <trkpt lat="51.3754240" lon="6.2523690">
        <ele>33.3028560</ele>
        <time>2007-08-01T08:13:19Z</time>
      </trkpt>
      <trkpt lat="51.3756200" lon="6.2525320">
        <ele>33.7834470</ele>
        <time>2007-08-01T08:13:22Z</time>
      </trkpt>
      <trkpt lat="51.3759370" lon="6.2526110">
        <ele>35.2254640</ele>
        <time>2007-08-01T08:13:27Z</time>
      </trkpt>
      <trkpt lat="51.3761560" lon="6.2524590">
        <ele>35.7060550</ele>
        <time>2007-08-01T08:13:32Z</time>
      </trkpt>
      <trkpt lat="51.3761950" lon="6.2524120">
        <ele>35.7060550</ele>
        <time>2007-08-01T08:13:33Z</time>
      </trkpt>
      <trkpt lat="51.3764350" lon="6.2521270">
        <ele>35.7060550</ele>
        <time>2007-08-01T08:13:38Z</time>
      </trkpt>
      <trkpt lat="51.3767850" lon="6.2519850">
        <ele>34.7448730</ele>
        <time>2007-08-01T08:13:43Z</time>
      </trkpt>
      <trkpt lat="51.3773800" lon="6.2519890">
        <ele>35.2254640</ele>
        <time>2007-08-01T08:13:51Z</time>
      </trkpt>
      <trkpt lat="51.3780370" lon="6.2520130">
        <ele>35.2254640</ele>
        <time>2007-08-01T08:14:00Z</time>
      </trkpt>
      <trkpt lat="51.3784700" lon="6.2520230">
        <ele>35.2254640</ele>
        <time>2007-08-01T08:14:06Z</time>
      </trkpt>
      <trkpt lat="51.3786840" lon="6.2520290">
        <ele>35.2254640</ele>
        <time>2007-08-01T08:14:09Z</time>
      </trkpt>
      <trkpt lat="51.3790570" lon="6.2520360">
        <ele>35.7060550</ele>
        <time>2007-08-01T08:14:14Z</time>
      </trkpt>
      <trkpt lat="51.3796610" lon="6.2520490">
        <ele>35.7060550</ele>
        <time>2007-08-01T08:14:22Z</time>
      </trkpt>
      <trkpt lat="51.3802020" lon="6.2520570">
        <ele>35.7060550</ele>
        <time>2007-08-01T08:14:29Z</time>
      </trkpt>
      <trkpt lat="51.3808050" lon="6.2520730">
        <ele>35.2254640</ele>
        <time>2007-08-01T08:14:37Z</time>
      </trkpt>
      <trkpt lat="51.3813500" lon="6.2520770">
        <ele>35.7060550</ele>
        <time>2007-08-01T08:14:44Z</time>
      </trkpt>
      <trkpt lat="51.3818100" lon="6.2520850">
        <ele>36.6674800</ele>
        <time>2007-08-01T08:14:50Z</time>
      </trkpt>
      <trkpt lat="51.3819130" lon="6.2520290">
        <ele>35.7060550</ele>
        <time>2007-08-01T08:14:52Z</time>
      </trkpt>
      <trkpt lat="51.3822690" lon="6.2520630">
        <ele>36.1867680</ele>
        <time>2007-08-01T08:14:56Z</time>
      </trkpt>
      <trkpt lat="51.3827490" lon="6.2520890">
        <ele>35.7060550</ele>
        <time>2007-08-01T08:15:02Z</time>
      </trkpt>
      <trkpt lat="51.3834830" lon="6.2520980">
        <ele>35.7060550</ele>
        <time>2007-08-01T08:15:11Z</time>
      </trkpt>
      <trkpt lat="51.3841180" lon="6.2521090">
        <ele>35.7060550</ele>
        <time>2007-08-01T08:15:19Z</time>
      </trkpt>
      <trkpt lat="51.3846660" lon="6.2521500">
        <ele>36.1867680</ele>
        <time>2007-08-01T08:15:26Z</time>
      </trkpt>
      <trkpt lat="51.3853760" lon="6.2522350">
        <ele>35.2254640</ele>
        <time>2007-08-01T08:15:35Z</time>
      </trkpt>
      <trkpt lat="51.3859970" lon="6.2523140">
        <ele>34.7448730</ele>
        <time>2007-08-01T08:15:43Z</time>
      </trkpt>
      <trkpt lat="51.3866230" lon="6.2523970">
        <ele>34.2641600</ele>
        <time>2007-08-01T08:15:51Z</time>
      </trkpt>
      <trkpt lat="51.3874110" lon="6.2524970">
        <ele>34.7448730</ele>
        <time>2007-08-01T08:16:01Z</time>
      </trkpt>
      <trkpt lat="51.3882530" lon="6.2526110">
        <ele>35.7060550</ele>
        <time>2007-08-01T08:16:12Z</time>
      </trkpt>
      <trkpt lat="51.3885430" lon="6.2527060">
        <ele>35.2254640</ele>
        <time>2007-08-01T08:16:16Z</time>
      </trkpt>
      <trkpt lat="51.3888450" lon="6.2530310">
        <ele>35.7060550</ele>
        <time>2007-08-01T08:16:21Z</time>
      </trkpt>
      <trkpt lat="51.3891260" lon="6.2534970">
        <ele>36.6674800</ele>
        <time>2007-08-01T08:16:27Z</time>
      </trkpt>
      <trkpt lat="51.3892420" lon="6.2537380">
        <ele>36.6674800</ele>
        <time>2007-08-01T08:16:30Z</time>
      </trkpt>
      <trkpt lat="51.3893820" lon="6.2539390">
        <ele>36.6674800</ele>
        <time>2007-08-01T08:16:33Z</time>
      </trkpt>
      <trkpt lat="51.3897060" lon="6.2540430">
        <ele>38.5900880</ele>
        <time>2007-08-01T08:16:38Z</time>
      </trkpt>
      <trkpt lat="51.3901510" lon="6.2541910">
        <ele>40.5128170</ele>
        <time>2007-08-01T08:16:45Z</time>
      </trkpt>
      <trkpt lat="51.3904370" lon="6.2543280">
        <ele>42.9160160</ele>
        <time>2007-08-01T08:16:50Z</time>
      </trkpt>
      <trkpt lat="51.3905500" lon="6.2544100">
        <ele>43.8773190</ele>
        <time>2007-08-01T08:16:54Z</time>
      </trkpt>
      <trkpt lat="51.3905890" lon="6.2544370">
        <ele>43.3966060</ele>
        <time>2007-08-01T08:16:57Z</time>
      </trkpt>
      <trkpt lat="51.3906420" lon="6.2543260">
        <ele>43.8773190</ele>
        <time>2007-08-01T08:17:01Z</time>
      </trkpt>
      <trkpt lat="51.3907390" lon="6.2541870">
        <ele>43.8773190</ele>
        <time>2007-08-01T08:17:04Z</time>
      </trkpt>
      <trkpt lat="51.3910490" lon="6.2538250">
        <ele>44.8386230</ele>
        <time>2007-08-01T08:17:11Z</time>
      </trkpt>
      <trkpt lat="51.3914490" lon="6.2533770">
        <ele>45.7999270</ele>
        <time>2007-08-01T08:17:19Z</time>
      </trkpt>
      <trkpt lat="51.3918330" lon="6.2530410">
        <ele>47.2418210</ele>
        <time>2007-08-01T08:17:26Z</time>
      </trkpt>
      <trkpt lat="51.3921610" lon="6.2527450">
        <ele>46.7612300</ele>
        <time>2007-08-01T08:17:32Z</time>
      </trkpt>
      <trkpt lat="51.3924470" lon="6.2522870">
        <ele>45.7999270</ele>
        <time>2007-08-01T08:17:38Z</time>
      </trkpt>
      <trkpt lat="51.3924910" lon="6.2521980">
        <ele>46.2806400</ele>
        <time>2007-08-01T08:17:39Z</time>
      </trkpt>
      <trkpt lat="51.3927700" lon="6.2514560">
        <ele>44.8386230</ele>
        <time>2007-08-01T08:17:46Z</time>
      </trkpt>
      <trkpt lat="51.3930010" lon="6.2510770">
        <ele>43.8773190</ele>
        <time>2007-08-01T08:17:50Z</time>
      </trkpt>
      <trkpt lat="51.3934610" lon="6.2507100">
        <ele>42.9160160</ele>
        <time>2007-08-01T08:17:56Z</time>
      </trkpt>
      <trkpt lat="51.3941810" lon="6.2502480">
        <ele>42.4354250</ele>
        <time>2007-08-01T08:18:05Z</time>
      </trkpt>
      <trkpt lat="51.3947260" lon="6.2498290">
        <ele>41.4739990</ele>
        <time>2007-08-01T08:18:12Z</time>
      </trkpt>
      <trkpt lat="51.3955470" lon="6.2491870">
        <ele>41.9547120</ele>
        <time>2007-08-01T08:18:23Z</time>
      </trkpt>
      <trkpt lat="51.3960680" lon="6.2488640">
        <ele>42.9160160</ele>
        <time>2007-08-01T08:18:30Z</time>
      </trkpt>
      <trkpt lat="51.3969170" lon="6.2484350">
        <ele>42.4354250</ele>
        <time>2007-08-01T08:18:41Z</time>
      </trkpt>
      <trkpt lat="51.3976150" lon="6.2481020">
        <ele>42.9160160</ele>
        <time>2007-08-01T08:18:50Z</time>
      </trkpt>
      <trkpt lat="51.3983140" lon="6.2478030">
        <ele>42.9160160</ele>
        <time>2007-08-01T08:18:59Z</time>
      </trkpt>
      <trkpt lat="51.3989850" lon="6.2476370">
        <ele>41.9547120</ele>
        <time>2007-08-01T08:19:07Z</time>
      </trkpt>
      <trkpt lat="51.3994080" lon="6.2475120">
        <ele>40.9934080</ele>
        <time>2007-08-01T08:19:12Z</time>
      </trkpt>
      <trkpt lat="51.3999760" lon="6.2470690">
        <ele>39.5512700</ele>
        <time>2007-08-01T08:19:19Z</time>
      </trkpt>
      <trkpt lat="51.4005590" lon="6.2465890">
        <ele>38.5900880</ele>
        <time>2007-08-01T08:19:26Z</time>
      </trkpt>
      <trkpt lat="51.4009270" lon="6.2465810">
        <ele>38.1093750</ele>
        <time>2007-08-01T08:19:30Z</time>
      </trkpt>
      <trkpt lat="51.4016350" lon="6.2467020">
        <ele>37.1480710</ele>
        <time>2007-08-01T08:19:38Z</time>
      </trkpt>
      <trkpt lat="51.4021000" lon="6.2466010">
        <ele>37.6286620</ele>
        <time>2007-08-01T08:19:44Z</time>
      </trkpt>
      <trkpt lat="51.4023150" lon="6.2464920">
        <ele>38.1093750</ele>
        <time>2007-08-01T08:19:48Z</time>
      </trkpt>
      <trkpt lat="51.4023640" lon="6.2464440">
        <ele>38.5900880</ele>
        <time>2007-08-01T08:19:51Z</time>
      </trkpt>
      <trkpt lat="51.4023670" lon="6.2464400">
        <ele>38.5900880</ele>
        <time>2007-08-01T08:19:52Z</time>
      </trkpt>
      <trkpt lat="51.4023730" lon="6.2464320">
        <ele>38.5900880</ele>
        <time>2007-08-01T08:19:56Z</time>
      </trkpt>
      <trkpt lat="51.4023720" lon="6.2462530">
        <ele>37.1480710</ele>
        <time>2007-08-01T08:19:59Z</time>
      </trkpt>
      <trkpt lat="51.4023540" lon="6.2461760">
        <ele>37.1480710</ele>
        <time>2007-08-01T08:20:00Z</time>
      </trkpt>
      <trkpt lat="51.4022840" lon="6.2458860">
        <ele>36.1867680</ele>
        <time>2007-08-01T08:20:03Z</time>
      </trkpt>
      <trkpt lat="51.4021400" lon="6.2451560">
        <ele>34.2641600</ele>
        <time>2007-08-01T08:20:09Z</time>
      </trkpt>
      <trkpt lat="51.4021220" lon="6.2450210">
        <ele>34.2641600</ele>
        <time>2007-08-01T08:20:10Z</time>
      </trkpt>
      <trkpt lat="51.4021010" lon="6.2444570">
        <ele>33.3028560</ele>
        <time>2007-08-01T08:20:14Z</time>
      </trkpt>
      <trkpt lat="51.4021780" lon="6.2438960">
        <ele>31.8607180</ele>
        <time>2007-08-01T08:20:18Z</time>
      </trkpt>
      <trkpt lat="51.4023730" lon="6.2432630">
        <ele>31.3801270</ele>
        <time>2007-08-01T08:20:23Z</time>
      </trkpt>
      <trkpt lat="51.4025770" lon="6.2424790">
        <ele>30.8995360</ele>
        <time>2007-08-01T08:20:29Z</time>
      </trkpt>
      <trkpt lat="51.4025980" lon="6.2423500">
        <ele>30.8995360</ele>
        <time>2007-08-01T08:20:30Z</time>
      </trkpt>
      <trkpt lat="51.4027200" lon="6.2420920">
        <ele>30.8995360</ele>
        <time>2007-08-01T08:20:33Z</time>
      </trkpt>
      <trkpt lat="51.4027870" lon="6.2420760">
        <ele>29.9381100</ele>
        <time>2007-08-01T08:20:34Z</time>
      </trkpt>
      <trkpt lat="51.4032540" lon="6.2420820">
        <ele>30.4188230</ele>
        <time>2007-08-01T08:20:40Z</time>
      </trkpt>
      <trkpt lat="51.4038650" lon="6.2420360">
        <ele>30.4188230</ele>
        <time>2007-08-01T08:20:47Z</time>
      </trkpt>
      <trkpt lat="51.4046450" lon="6.2420230">
        <ele>30.4188230</ele>
        <time>2007-08-01T08:20:56Z</time>
      </trkpt>
      <trkpt lat="51.4051490" lon="6.2421110">
        <ele>29.9381100</ele>
        <time>2007-08-01T08:21:02Z</time>
      </trkpt>
      <trkpt lat="51.4057060" lon="6.2423160">
        <ele>29.9381100</ele>
        <time>2007-08-01T08:21:09Z</time>
      </trkpt>
      <trkpt lat="51.4062590" lon="6.2425420">
        <ele>29.9381100</ele>
        <time>2007-08-01T08:21:16Z</time>
      </trkpt>
      <trkpt lat="51.4068550" lon="6.2426950">
        <ele>29.9381100</ele>
        <time>2007-08-01T08:21:23Z</time>
      </trkpt>
      <trkpt lat="51.4077820" lon="6.2428230">
        <ele>28.4962160</ele>
        <time>2007-08-01T08:21:33Z</time>
      </trkpt>
      <trkpt lat="51.4083590" lon="6.2427630">
        <ele>28.0155030</ele>
        <time>2007-08-01T08:21:39Z</time>
      </trkpt>
      <trkpt lat="51.4089310" lon="6.2424760">
        <ele>27.0543210</ele>
        <time>2007-08-01T08:21:45Z</time>
      </trkpt>
      <trkpt lat="51.4098160" lon="6.2419800">
        <ele>25.1317140</ele>
        <time>2007-08-01T08:21:54Z</time>
      </trkpt>
      <trkpt lat="51.4106890" lon="6.2415160">
        <ele>23.6895750</ele>
        <time>2007-08-01T08:22:03Z</time>
      </trkpt>
      <trkpt lat="51.4111740" lon="6.2413720">
        <ele>24.1702880</ele>
        <time>2007-08-01T08:22:08Z</time>
      </trkpt>
      <trkpt lat="51.4117600" lon="6.2413870">
        <ele>23.6895750</ele>
        <time>2007-08-01T08:22:14Z</time>
      </trkpt>
      <trkpt lat="51.4122220" lon="6.2415530">
        <ele>23.6895750</ele>
        <time>2007-08-01T08:22:19Z</time>
      </trkpt>
      <trkpt lat="51.4129200" lon="6.2419590">
        <ele>23.2089840</ele>
        <time>2007-08-01T08:22:27Z</time>
      </trkpt>
      <trkpt lat="51.4136010" lon="6.2424260">
        <ele>23.6895750</ele>
        <time>2007-08-01T08:22:35Z</time>
      </trkpt>
      <trkpt lat="51.4141840" lon="6.2428470">
        <ele>23.6895750</ele>
        <time>2007-08-01T08:22:42Z</time>
      </trkpt>
      <trkpt lat="51.4148700" lon="6.2432950">
        <ele>24.1702880</ele>
        <time>2007-08-01T08:22:50Z</time>
      </trkpt>
      <trkpt lat="51.4153250" lon="6.2434270">
        <ele>24.1702880</ele>
        <time>2007-08-01T08:22:55Z</time>
      </trkpt>
      <trkpt lat="51.4158840" lon="6.2433690">
        <ele>24.1702880</ele>
        <time>2007-08-01T08:23:01Z</time>
      </trkpt>
      <trkpt lat="51.4165960" lon="6.2431090">
        <ele>23.6895750</ele>
        <time>2007-08-01T08:23:09Z</time>
      </trkpt>
      <trkpt lat="51.4172160" lon="6.2428650">
        <ele>23.6895750</ele>
        <time>2007-08-01T08:23:16Z</time>
      </trkpt>
      <trkpt lat="51.4180280" lon="6.2425390">
        <ele>23.2089840</ele>
        <time>2007-08-01T08:23:25Z</time>
      </trkpt>
      <trkpt lat="51.4187680" lon="6.2423260">
        <ele>23.6895750</ele>
        <time>2007-08-01T08:23:33Z</time>
      </trkpt>
      <trkpt lat="51.4194380" lon="6.2423300">
        <ele>23.6895750</ele>
        <time>2007-08-01T08:23:40Z</time>
      </trkpt>
      <trkpt lat="51.4200870" lon="6.2425320">
        <ele>23.6895750</ele>
        <time>2007-08-01T08:23:47Z</time>
      </trkpt>
      <trkpt lat="51.4208840" lon="6.2429160">
        <ele>23.6895750</ele>
        <time>2007-08-01T08:23:56Z</time>
      </trkpt>
      <trkpt lat="51.4216690" lon="6.2433120">
        <ele>23.6895750</ele>
        <time>2007-08-01T08:24:05Z</time>
      </trkpt>
      <trkpt lat="51.4225730" lon="6.2437440">
        <ele>25.1317140</ele>
        <time>2007-08-01T08:24:15Z</time>
      </trkpt>
      <trkpt lat="51.4230510" lon="6.2438190">
        <ele>24.6510010</ele>
        <time>2007-08-01T08:24:20Z</time>
      </trkpt>
      <trkpt lat="51.4235150" lon="6.2437010">
        <ele>25.1317140</ele>
        <time>2007-08-01T08:24:25Z</time>
      </trkpt>
      <trkpt lat="51.4242570" lon="6.2434430">
        <ele>25.1317140</ele>
        <time>2007-08-01T08:24:33Z</time>
      </trkpt>
      <trkpt lat="51.4246290" lon="6.2434840">
        <ele>25.1317140</ele>
        <time>2007-08-01T08:24:37Z</time>
      </trkpt>
      <trkpt lat="51.4248080" lon="6.2435440">
        <ele>25.1317140</ele>
        <time>2007-08-01T08:24:39Z</time>
      </trkpt>
      <trkpt lat="51.4251490" lon="6.2434470">
        <ele>24.6510010</ele>
        <time>2007-08-01T08:24:43Z</time>
      </trkpt>
      <trkpt lat="51.4253120" lon="6.2433520">
        <ele>25.1317140</ele>
        <time>2007-08-01T08:24:45Z</time>
      </trkpt>
      <trkpt lat="51.4254730" lon="6.2430710">
        <ele>25.1317140</ele>
        <time>2007-08-01T08:24:48Z</time>
      </trkpt>
      <trkpt lat="51.4256210" lon="6.2427580">
        <ele>24.1702880</ele>
        <time>2007-08-01T08:24:51Z</time>
      </trkpt>
      <trkpt lat="51.4258940" lon="6.2426720">
        <ele>24.1702880</ele>
        <time>2007-08-01T08:24:54Z</time>
      </trkpt>
      <trkpt lat="51.4260860" lon="6.2426770">
        <ele>23.6895750</ele>
        <time>2007-08-01T08:24:56Z</time>
      </trkpt>
      <trkpt lat="51.4266320" lon="6.2428580">
        <ele>23.6895750</ele>
        <time>2007-08-01T08:25:02Z</time>
      </trkpt>
      <trkpt lat="51.4272960" lon="6.2431930">
        <ele>24.1702880</ele>
        <time>2007-08-01T08:25:10Z</time>
      </trkpt>
      <trkpt lat="51.4277460" lon="6.2432900">
        <ele>23.6895750</ele>
        <time>2007-08-01T08:25:16Z</time>
      </trkpt>
      <trkpt lat="51.4281520" lon="6.2432610">
        <ele>24.1702880</ele>
        <time>2007-08-01T08:25:22Z</time>
      </trkpt>
      <trkpt lat="51.4285970" lon="6.2431130">
        <ele>23.6895750</ele>
        <time>2007-08-01T08:25:29Z</time>
      </trkpt>
      <trkpt lat="51.4290280" lon="6.2429070">
        <ele>24.1702880</ele>
        <time>2007-08-01T08:25:36Z</time>
      </trkpt>
      <trkpt lat="51.4294140" lon="6.2427300">
        <ele>24.1702880</ele>
        <time>2007-08-01T08:25:42Z</time>
      </trkpt>
      <trkpt lat="51.4299450" lon="6.2425040">
        <ele>24.6510010</ele>
        <time>2007-08-01T08:25:50Z</time>
      </trkpt>
      <trkpt lat="51.4305110" lon="6.2423000">
        <ele>23.6895750</ele>
        <time>2007-08-01T08:25:58Z</time>
      </trkpt>
      <trkpt lat="51.4310230" lon="6.2421530">
        <ele>24.6510010</ele>
        <time>2007-08-01T08:26:05Z</time>
      </trkpt>
      <trkpt lat="51.4317180" lon="6.2419880">
        <ele>24.6510010</ele>
        <time>2007-08-01T08:26:14Z</time>
      </trkpt>
      <trkpt lat="51.4323530" lon="6.2419030">
        <ele>24.6510010</ele>
        <time>2007-08-01T08:26:22Z</time>
      </trkpt>
      <trkpt lat="51.4328240" lon="6.2419880">
        <ele>24.6510010</ele>
        <time>2007-08-01T08:26:28Z</time>
      </trkpt>
      <trkpt lat="51.4332900" lon="6.2420900">
        <ele>24.1702880</ele>
        <time>2007-08-01T08:26:34Z</time>
      </trkpt>
      <trkpt lat="51.4338500" lon="6.2419850">
        <ele>24.1702880</ele>
        <time>2007-08-01T08:26:41Z</time>
      </trkpt>
      <trkpt lat="51.4345600" lon="6.2417100">
        <ele>24.6510010</ele>
        <time>2007-08-01T08:26:50Z</time>
      </trkpt>
      <trkpt lat="51.4351200" lon="6.2416240">
        <ele>25.1317140</ele>
        <time>2007-08-01T08:26:57Z</time>
      </trkpt>
      <trkpt lat="51.4356830" lon="6.2416710">
        <ele>24.6510010</ele>
        <time>2007-08-01T08:27:04Z</time>
      </trkpt>
      <trkpt lat="51.4364810" lon="6.2418030">
        <ele>25.1317140</ele>
        <time>2007-08-01T08:27:14Z</time>
      </trkpt>
      <trkpt lat="51.4371240" lon="6.2419110">
        <ele>24.6510010</ele>
        <time>2007-08-01T08:27:22Z</time>
      </trkpt>
      <trkpt lat="51.4378560" lon="6.2420340">
        <ele>24.6510010</ele>
        <time>2007-08-01T08:27:31Z</time>
      </trkpt>
      <trkpt lat="51.4385870" lon="6.2420980">
        <ele>25.1317140</ele>
        <time>2007-08-01T08:27:40Z</time>
      </trkpt>
      <trkpt lat="51.4393240" lon="6.2420470">
        <ele>24.6510010</ele>
        <time>2007-08-01T08:27:49Z</time>
      </trkpt>
      <trkpt lat="51.4399720" lon="6.2420600">
        <ele>25.1317140</ele>
        <time>2007-08-01T08:27:57Z</time>
      </trkpt>
      <trkpt lat="51.4406240" lon="6.2421300">
        <ele>25.6123050</ele>
        <time>2007-08-01T08:28:05Z</time>
      </trkpt>
      <trkpt lat="51.4412010" lon="6.2421450">
        <ele>26.0928960</ele>
        <time>2007-08-01T08:28:12Z</time>
      </trkpt>
      <trkpt lat="51.4418650" lon="6.2421190">
        <ele>25.6123050</ele>
        <time>2007-08-01T08:28:20Z</time>
      </trkpt>
      <trkpt lat="51.4428680" lon="6.2420520">
        <ele>26.0928960</ele>
        <time>2007-08-01T08:28:32Z</time>
      </trkpt>
      <trkpt lat="51.4439680" lon="6.2419860">
        <ele>26.5736080</ele>
        <time>2007-08-01T08:28:45Z</time>
      </trkpt>
      <trkpt lat="51.4448040" lon="6.2419430">
        <ele>27.0543210</ele>
        <time>2007-08-01T08:28:55Z</time>
      </trkpt>
      <trkpt lat="51.4455850" lon="6.2418370">
        <ele>27.0543210</ele>
        <time>2007-08-01T08:29:04Z</time>
      </trkpt>
      <trkpt lat="51.4462650" lon="6.2417030">
        <ele>26.5736080</ele>
        <time>2007-08-01T08:29:12Z</time>
      </trkpt>
      <trkpt lat="51.4469590" lon="6.2415150">
        <ele>26.0928960</ele>
        <time>2007-08-01T08:29:20Z</time>
      </trkpt>
      <trkpt lat="51.4476490" lon="6.2412490">
        <ele>25.6123050</ele>
        <time>2007-08-01T08:29:28Z</time>
      </trkpt>
      <trkpt lat="51.4484280" lon="6.2409870">
        <ele>25.1317140</ele>
        <time>2007-08-01T08:29:37Z</time>
      </trkpt>
      <trkpt lat="51.4492220" lon="6.2408250">
        <ele>25.1317140</ele>
        <time>2007-08-01T08:29:46Z</time>
      </trkpt>
      <trkpt lat="51.4498990" lon="6.2406650">
        <ele>25.1317140</ele>
        <time>2007-08-01T08:29:54Z</time>
      </trkpt>
      <trkpt lat="51.4505570" lon="6.2404110">
        <ele>24.1702880</ele>
        <time>2007-08-01T08:30:02Z</time>
      </trkpt>
      <trkpt lat="51.4511930" lon="6.2400120">
        <ele>24.1702880</ele>
        <time>2007-08-01T08:30:10Z</time>
      </trkpt>
      <trkpt lat="51.4518280" lon="6.2395390">
        <ele>24.1702880</ele>
        <time>2007-08-01T08:30:18Z</time>
      </trkpt>
      <trkpt lat="51.4527920" lon="6.2388490">
        <ele>24.1702880</ele>
        <time>2007-08-01T08:30:30Z</time>
      </trkpt>
      <trkpt lat="51.4533410" lon="6.2384920">
        <ele>23.6895750</ele>
        <time>2007-08-01T08:30:37Z</time>
      </trkpt>
      <trkpt lat="51.4540490" lon="6.2381800">
        <ele>25.1317140</ele>
        <time>2007-08-01T08:30:46Z</time>
      </trkpt>
      <trkpt lat="51.4544990" lon="6.2381130">
        <ele>26.0928960</ele>
        <time>2007-08-01T08:30:52Z</time>
      </trkpt>
      <trkpt lat="51.4548820" lon="6.2380810">
        <ele>27.0543210</ele>
        <time>2007-08-01T08:30:57Z</time>
      </trkpt>
      <trkpt lat="51.4554970" lon="6.2381190">
        <ele>27.5349120</ele>
        <time>2007-08-01T08:31:05Z</time>
      </trkpt>
      <trkpt lat="51.4560010" lon="6.2382620">
        <ele>29.4575200</ele>
        <time>2007-08-01T08:31:12Z</time>
      </trkpt>
      <trkpt lat="51.4565640" lon="6.2385510">
        <ele>29.9381100</ele>
        <time>2007-08-01T08:31:20Z</time>
      </trkpt>
      <trkpt lat="51.4570200" lon="6.2389030">
        <ele>31.3801270</ele>
        <time>2007-08-01T08:31:27Z</time>
      </trkpt>
      <trkpt lat="51.4575680" lon="6.2394630">
        <ele>32.8222660</ele>
        <time>2007-08-01T08:31:36Z</time>
      </trkpt>
      <trkpt lat="51.4580390" lon="6.2400040">
        <ele>32.8222660</ele>
        <time>2007-08-01T08:31:44Z</time>
      </trkpt>
      <trkpt lat="51.4585780" lon="6.2406440">
        <ele>32.8222660</ele>
        <time>2007-08-01T08:31:53Z</time>
      </trkpt>
      <trkpt lat="51.4591490" lon="6.2412580">
        <ele>32.3415530</ele>
        <time>2007-08-01T08:32:02Z</time>
      </trkpt>
      <trkpt lat="51.4597930" lon="6.2417620">
        <ele>31.3801270</ele>
        <time>2007-08-01T08:32:11Z</time>
      </trkpt>
      <trkpt lat="51.4605050" lon="6.2421700">
        <ele>30.4188230</ele>
        <time>2007-08-01T08:32:20Z</time>
      </trkpt>
      <trkpt lat="51.4612870" lon="6.2426380">
        <ele>31.3801270</ele>
        <time>2007-08-01T08:32:30Z</time>
      </trkpt>
      <trkpt lat="51.4617680" lon="6.2430140">
        <ele>31.3801270</ele>
        <time>2007-08-01T08:32:37Z</time>
      </trkpt>
      <trkpt lat="51.4621240" lon="6.2433610">
        <ele>30.8995360</ele>
        <time>2007-08-01T08:32:43Z</time>
      </trkpt>
      <trkpt lat="51.4622170" lon="6.2434550">
        <ele>31.3801270</ele>
        <time>2007-08-01T08:32:45Z</time>
      </trkpt>
      <trkpt lat="51.4624030" lon="6.2434310">
        <ele>30.8995360</ele>
        <time>2007-08-01T08:32:49Z</time>
      </trkpt>
      <trkpt lat="51.4626450" lon="6.2433030">
        <ele>30.8995360</ele>
        <time>2007-08-01T08:32:53Z</time>
      </trkpt>
      <trkpt lat="51.4629670" lon="6.2429780">
        <ele>30.8995360</ele>
        <time>2007-08-01T08:32:58Z</time>
      </trkpt>
      <trkpt lat="51.4634770" lon="6.2423710">
        <ele>31.3801270</ele>
        <time>2007-08-01T08:33:06Z</time>
      </trkpt>
      <trkpt lat="51.4639570" lon="6.2416900">
        <ele>29.9381100</ele>
        <time>2007-08-01T08:33:14Z</time>
      </trkpt>
      <trkpt lat="51.4644030" lon="6.2408940">
        <ele>31.3801270</ele>
        <time>2007-08-01T08:33:22Z</time>
      </trkpt>
      <trkpt lat="51.4647770" lon="6.2400060">
        <ele>30.8995360</ele>
        <time>2007-08-01T08:33:30Z</time>
      </trkpt>
      <trkpt lat="51.4650840" lon="6.2390200">
        <ele>30.8995360</ele>
        <time>2007-08-01T08:33:38Z</time>
      </trkpt>
      <trkpt lat="51.4653000" lon="6.2381070">
        <ele>31.3801270</ele>
        <time>2007-08-01T08:33:45Z</time>
      </trkpt>
      <trkpt lat="51.4655560" lon="6.2368490">
        <ele>31.8607180</ele>
        <time>2007-08-01T08:33:55Z</time>
      </trkpt>
      <trkpt lat="51.4658220" lon="6.2356470">
        <ele>31.3801270</ele>
        <time>2007-08-01T08:34:05Z</time>
      </trkpt>
      <trkpt lat="51.4660760" lon="6.2348460">
        <ele>31.8607180</ele>
        <time>2007-08-01T08:34:12Z</time>
      </trkpt>
      <trkpt lat="51.4663960" lon="6.2340670">
        <ele>31.8607180</ele>
        <time>2007-08-01T08:34:19Z</time>
      </trkpt>
      <trkpt lat="51.4667390" lon="6.2334410">
        <ele>32.3415530</ele>
        <time>2007-08-01T08:34:25Z</time>
      </trkpt>
      <trkpt lat="51.4670630" lon="6.2329520">
        <ele>32.3415530</ele>
        <time>2007-08-01T08:34:30Z</time>
      </trkpt>
      <trkpt lat="51.4675600" lon="6.2323680">
        <ele>33.3028560</ele>
        <time>2007-08-01T08:34:37Z</time>
      </trkpt>
      <trkpt lat="51.4681700" lon="6.2318100">
        <ele>33.7834470</ele>
        <time>2007-08-01T08:34:45Z</time>
      </trkpt>
      <trkpt lat="51.4688830" lon="6.2312240">
        <ele>32.8222660</ele>
        <time>2007-08-01T08:34:54Z</time>
      </trkpt>
      <trkpt lat="51.4697700" lon="6.2304970">
        <ele>32.3415530</ele>
        <time>2007-08-01T08:35:05Z</time>
      </trkpt>
      <trkpt lat="51.4704090" lon="6.2299620">
        <ele>31.8607180</ele>
        <time>2007-08-01T08:35:13Z</time>
      </trkpt>
      <trkpt lat="51.4710780" lon="6.2292880">
        <ele>31.8607180</ele>
        <time>2007-08-01T08:35:22Z</time>
      </trkpt>
      <trkpt lat="51.4715460" lon="6.2286280">
        <ele>31.3801270</ele>
        <time>2007-08-01T08:35:29Z</time>
      </trkpt>
      <trkpt lat="51.4720290" lon="6.2277460">
        <ele>30.8995360</ele>
        <time>2007-08-01T08:35:37Z</time>
      </trkpt>
      <trkpt lat="51.4724790" lon="6.2268230">
        <ele>30.4188230</ele>
        <time>2007-08-01T08:35:45Z</time>
      </trkpt>
      <trkpt lat="51.4728080" lon="6.2261360">
        <ele>29.9381100</ele>
        <time>2007-08-01T08:35:51Z</time>
      </trkpt>
      <trkpt lat="51.4731240" lon="6.2254600">
        <ele>29.4575200</ele>
        <time>2007-08-01T08:35:57Z</time>
      </trkpt>
      <trkpt lat="51.4733260" lon="6.2252590">
        <ele>29.9381100</ele>
        <time>2007-08-01T08:36:00Z</time>
      </trkpt>
      <trkpt lat="51.4735690" lon="6.2251600">
        <ele>29.4575200</ele>
        <time>2007-08-01T08:36:03Z</time>
      </trkpt>
      <trkpt lat="51.4737590" lon="6.2248600">
        <ele>29.9381100</ele>
        <time>2007-08-01T08:36:06Z</time>
      </trkpt>
      <trkpt lat="51.4742230" lon="6.2241240">
        <ele>28.4962160</ele>
        <time>2007-08-01T08:36:13Z</time>
      </trkpt>
      <trkpt lat="51.4745580" lon="6.2238650">
        <ele>28.0155030</ele>
        <time>2007-08-01T08:36:17Z</time>
      </trkpt>
      <trkpt lat="51.4752750" lon="6.2235120">
        <ele>27.5349120</ele>
        <time>2007-08-01T08:36:25Z</time>
      </trkpt>
      <trkpt lat="51.4759790" lon="6.2232120">
        <ele>28.0155030</ele>
        <time>2007-08-01T08:36:33Z</time>
      </trkpt>
      <trkpt lat="51.4764110" lon="6.2230350">
        <ele>27.5349120</ele>
        <time>2007-08-01T08:36:38Z</time>
      </trkpt>
      <trkpt lat="51.4770810" lon="6.2227270">
        <ele>28.4962160</ele>
        <time>2007-08-01T08:36:46Z</time>
      </trkpt>
      <trkpt lat="51.4777390" lon="6.2224400">
        <ele>28.0155030</ele>
        <time>2007-08-01T08:36:54Z</time>
      </trkpt>
      <trkpt lat="51.4783310" lon="6.2221900">
        <ele>28.4962160</ele>
        <time>2007-08-01T08:37:01Z</time>
      </trkpt>
      <trkpt lat="51.4790660" lon="6.2218590">
        <ele>28.0155030</ele>
        <time>2007-08-01T08:37:09Z</time>
      </trkpt>
      <trkpt lat="51.4796220" lon="6.2216080">
        <ele>28.0155030</ele>
        <time>2007-08-01T08:37:15Z</time>
      </trkpt>
      <trkpt lat="51.4800790" lon="6.2213970">
        <ele>28.4962160</ele>
        <time>2007-08-01T08:37:20Z</time>
      </trkpt>
      <trkpt lat="51.4808090" lon="6.2210600">
        <ele>28.9769290</ele>
        <time>2007-08-01T08:37:28Z</time>
      </trkpt>
      <trkpt lat="51.4818900" lon="6.2205720">
        <ele>28.9769290</ele>
        <time>2007-08-01T08:37:40Z</time>
      </trkpt>
      <trkpt lat="51.4827810" lon="6.2201610">
        <ele>28.9769290</ele>
        <time>2007-08-01T08:37:50Z</time>
      </trkpt>
      <trkpt lat="51.4834950" lon="6.2198320">
        <ele>28.0155030</ele>
        <time>2007-08-01T08:37:58Z</time>
      </trkpt>
      <trkpt lat="51.4841060" lon="6.2195630">
        <ele>28.0155030</ele>
        <time>2007-08-01T08:38:05Z</time>
      </trkpt>
      <trkpt lat="51.4848600" lon="6.2192520">
        <ele>28.0155030</ele>
        <time>2007-08-01T08:38:14Z</time>
      </trkpt>
      <trkpt lat="51.4849610" lon="6.2192410">
        <ele>28.0155030</ele>
        <time>2007-08-01T08:38:17Z</time>
      </trkpt>
      <trkpt lat="51.4849810" lon="6.2192400">
        <ele>28.0155030</ele>
        <time>2007-08-01T08:38:18Z</time>
      </trkpt>
      <trkpt lat="51.4849640" lon="6.2191760">
        <ele>28.0155030</ele>
        <time>2007-08-01T08:38:22Z</time>
      </trkpt>
      <trkpt lat="51.4848630" lon="6.2190770">
        <ele>27.5349120</ele>
        <time>2007-08-01T08:38:27Z</time>
      </trkpt>
      <trkpt lat="51.4847200" lon="6.2189300">
        <ele>27.0543210</ele>
        <time>2007-08-01T08:38:31Z</time>
      </trkpt>
      <trkpt lat="51.4846720" lon="6.2188940">
        <ele>27.0543210</ele>
        <time>2007-08-01T08:38:32Z</time>
      </trkpt>
      <trkpt lat="51.4843050" lon="6.2186020">
        <ele>27.5349120</ele>
        <time>2007-08-01T08:38:39Z</time>
      </trkpt>
      <trkpt lat="51.4839630" lon="6.2183600">
        <ele>27.5349120</ele>
        <time>2007-08-01T08:38:45Z</time>
      </trkpt>
      <trkpt lat="51.4835850" lon="6.2180940">
        <ele>28.0155030</ele>
        <time>2007-08-01T08:38:51Z</time>
      </trkpt>
      <trkpt lat="51.4834270" lon="6.2179600">
        <ele>28.4962160</ele>
        <time>2007-08-01T08:38:54Z</time>
      </trkpt>
      <trkpt lat="51.4831400" lon="6.2177750">
        <ele>28.4962160</ele>
        <time>2007-08-01T08:38:59Z</time>
      </trkpt>
      <trkpt lat="51.4826930" lon="6.2176090">
        <ele>28.0155030</ele>
        <time>2007-08-01T08:39:06Z</time>
      </trkpt>
      <trkpt lat="51.4823060" lon="6.2174640">
        <ele>28.9769290</ele>
        <time>2007-08-01T08:39:12Z</time>
      </trkpt>
      <trkpt lat="51.4819370" lon="6.2173050">
        <ele>29.4575200</ele>
        <time>2007-08-01T08:39:18Z</time>
      </trkpt>
      <trkpt lat="51.4817720" lon="6.2172180">
        <ele>29.4575200</ele>
        <time>2007-08-01T08:39:21Z</time>
      </trkpt>
      <trkpt lat="51.4814770" lon="6.2171010">
        <ele>29.4575200</ele>
        <time>2007-08-01T08:39:26Z</time>
      </trkpt>
      <trkpt lat="51.4808890" lon="6.2169090">
        <ele>28.0155030</ele>
        <time>2007-08-01T08:39:34Z</time>
      </trkpt>
      <trkpt lat="51.4802150" lon="6.2166510">
        <ele>27.0543210</ele>
        <time>2007-08-01T08:39:43Z</time>
      </trkpt>
      <trkpt lat="51.4796050" lon="6.2164090">
        <ele>26.0928960</ele>
        <time>2007-08-01T08:39:51Z</time>
      </trkpt>
      <trkpt lat="51.4791190" lon="6.2161510">
        <ele>26.0928960</ele>
        <time>2007-08-01T08:39:58Z</time>
      </trkpt>
      <trkpt lat="51.4786490" lon="6.2157910">
        <ele>24.6510010</ele>
        <time>2007-08-01T08:40:05Z</time>
      </trkpt>
      <trkpt lat="51.4785150" lon="6.2156870">
        <ele>23.6895750</ele>
        <time>2007-08-01T08:40:07Z</time>
      </trkpt>
      <trkpt lat="51.4783010" lon="6.2155430">
        <ele>22.7282710</ele>
        <time>2007-08-01T08:40:10Z</time>
      </trkpt>
      <trkpt lat="51.4779650" lon="6.2154410">
        <ele>21.7669680</ele>
        <time>2007-08-01T08:40:14Z</time>
      </trkpt>
      <trkpt lat="51.4776410" lon="6.2154230">
        <ele>20.3249510</ele>
        <time>2007-08-01T08:40:18Z</time>
      </trkpt>
      <trkpt lat="51.4772510" lon="6.2153940">
        <ele>20.3249510</ele>
        <time>2007-08-01T08:40:23Z</time>
      </trkpt>
      <trkpt lat="51.4770490" lon="6.2153610">
        <ele>19.3637700</ele>
        <time>2007-08-01T08:40:27Z</time>
      </trkpt>
      <trkpt lat="51.4769860" lon="6.2151340">
        <ele>19.8443600</ele>
        <time>2007-08-01T08:40:31Z</time>
      </trkpt>
      <trkpt lat="51.4770620" lon="6.2150560">
        <ele>19.8443600</ele>
        <time>2007-08-01T08:40:33Z</time>
      </trkpt>
      <trkpt lat="51.4775020" lon="6.2148250">
        <ele>19.8443600</ele>
        <time>2007-08-01T08:40:40Z</time>
      </trkpt>
      <trkpt lat="51.4780660" lon="6.2144830">
        <ele>19.3637700</ele>
        <time>2007-08-01T08:40:48Z</time>
      </trkpt>
      <trkpt lat="51.4788250" lon="6.2139930">
        <ele>19.8443600</ele>
        <time>2007-08-01T08:40:59Z</time>
      </trkpt>
      <trkpt lat="51.4793720" lon="6.2136180">
        <ele>19.8443600</ele>
        <time>2007-08-01T08:41:07Z</time>
      </trkpt>
      <trkpt lat="51.4799040" lon="6.2132250">
        <ele>19.8443600</ele>
        <time>2007-08-01T08:41:15Z</time>
      </trkpt>
      <trkpt lat="51.4802700" lon="6.2129170">
        <ele>20.3249510</ele>
        <time>2007-08-01T08:41:21Z</time>
      </trkpt>
      <trkpt lat="51.4807240" lon="6.2124820">
        <ele>20.3249510</ele>
        <time>2007-08-01T08:41:28Z</time>
      </trkpt>
      <trkpt lat="51.4810990" lon="6.2121170">
        <ele>20.3249510</ele>
        <time>2007-08-01T08:41:34Z</time>
      </trkpt>
      <trkpt lat="51.4811570" lon="6.2120540">
        <ele>20.3249510</ele>
        <time>2007-08-01T08:41:35Z</time>
      </trkpt>
      <trkpt lat="51.4818540" lon="6.2113790">
        <ele>19.8443600</ele>
        <time>2007-08-01T08:41:46Z</time>
      </trkpt>
      <trkpt lat="51.4824340" lon="6.2108110">
        <ele>20.3249510</ele>
        <time>2007-08-01T08:41:55Z</time>
      </trkpt>
      <trkpt lat="51.4829650" lon="6.2102870">
        <ele>19.8443600</ele>
        <time>2007-08-01T08:42:03Z</time>
      </trkpt>
      <trkpt lat="51.4835110" lon="6.2098010">
        <ele>20.3249510</ele>
        <time>2007-08-01T08:42:11Z</time>
      </trkpt>
      <trkpt lat="51.4840790" lon="6.2093550">
        <ele>20.3249510</ele>
        <time>2007-08-01T08:42:19Z</time>
      </trkpt>
      <trkpt lat="51.4847860" lon="6.2088310">
        <ele>20.3249510</ele>
        <time>2007-08-01T08:42:29Z</time>
      </trkpt>
      <trkpt lat="51.4852810" lon="6.2084720">
        <ele>19.8443600</ele>
        <time>2007-08-01T08:42:36Z</time>
      </trkpt>
      <trkpt lat="51.4856950" lon="6.2082320">
        <ele>20.8056640</ele>
        <time>2007-08-01T08:42:42Z</time>
      </trkpt>
      <trkpt lat="51.4860500" lon="6.2081250">
        <ele>21.2863770</ele>
        <time>2007-08-01T08:42:47Z</time>
      </trkpt>
      <trkpt lat="51.4864310" lon="6.2081060">
        <ele>20.3249510</ele>
        <time>2007-08-01T08:42:52Z</time>
      </trkpt>
      <trkpt lat="51.4871130" lon="6.2082020">
        <ele>21.2863770</ele>
        <time>2007-08-01T08:43:01Z</time>
      </trkpt>
      <trkpt lat="51.4877180" lon="6.2082780">
        <ele>20.8056640</ele>
        <time>2007-08-01T08:43:09Z</time>
      </trkpt>
      <trkpt lat="51.4882280" lon="6.2082510">
        <ele>21.7669680</ele>
        <time>2007-08-01T08:43:16Z</time>
      </trkpt>
      <trkpt lat="51.4882960" lon="6.2082390">
        <ele>21.7669680</ele>
        <time>2007-08-01T08:43:17Z</time>
      </trkpt>
      <trkpt lat="51.4888560" lon="6.2080050">
        <ele>22.2475590</ele>
        <time>2007-08-01T08:43:25Z</time>
      </trkpt>
      <trkpt lat="51.4894020" lon="6.2076380">
        <ele>21.7669680</ele>
        <time>2007-08-01T08:43:33Z</time>
      </trkpt>
      <trkpt lat="51.4897390" lon="6.2073990">
        <ele>21.2863770</ele>
        <time>2007-08-01T08:43:38Z</time>
      </trkpt>
      <trkpt lat="51.4901500" lon="6.2071160">
        <ele>21.7669680</ele>
        <time>2007-08-01T08:43:44Z</time>
      </trkpt>
      <trkpt lat="51.4905650" lon="6.2068210">
        <ele>22.2475590</ele>
        <time>2007-08-01T08:43:50Z</time>
      </trkpt>
      <trkpt lat="51.4910400" lon="6.2064730">
        <ele>22.7282710</ele>
        <time>2007-08-01T08:43:57Z</time>
      </trkpt>
      <trkpt lat="51.4915110" lon="6.2061390">
        <ele>22.7282710</ele>
        <time>2007-08-01T08:44:04Z</time>
      </trkpt>
      <trkpt lat="51.4918340" lon="6.2059070">
        <ele>24.1702880</ele>
        <time>2007-08-01T08:44:09Z</time>
      </trkpt>
      <trkpt lat="51.4921680" lon="6.2056650">
        <ele>23.6895750</ele>
        <time>2007-08-01T08:44:14Z</time>
      </trkpt>
      <trkpt lat="51.4922970" lon="6.2055890">
        <ele>24.1702880</ele>
        <time>2007-08-01T08:44:16Z</time>
      </trkpt>
      <trkpt lat="51.4928370" lon="6.2052090">
        <ele>23.6895750</ele>
        <time>2007-08-01T08:44:24Z</time>
      </trkpt>
      <trkpt lat="51.4933990" lon="6.2049210">
        <ele>24.6510010</ele>
        <time>2007-08-01T08:44:32Z</time>
      </trkpt>
      <trkpt lat="51.4941110" lon="6.2046850">
        <ele>24.1702880</ele>
        <time>2007-08-01T08:44:42Z</time>
      </trkpt>
      <trkpt lat="51.4947720" lon="6.2044860">
        <ele>23.6895750</ele>
        <time>2007-08-01T08:44:51Z</time>
      </trkpt>
      <trkpt lat="51.4953040" lon="6.2043330">
        <ele>23.6895750</ele>
        <time>2007-08-01T08:44:58Z</time>
      </trkpt>
      <trkpt lat="51.4959090" lon="6.2041530">
        <ele>23.6895750</ele>
        <time>2007-08-01T08:45:06Z</time>
      </trkpt>
      <trkpt lat="51.4965880" lon="6.2039540">
        <ele>23.2089840</ele>
        <time>2007-08-01T08:45:15Z</time>
      </trkpt>
      <trkpt lat="51.4972620" lon="6.2037530">
        <ele>23.6895750</ele>
        <time>2007-08-01T08:45:24Z</time>
      </trkpt>
      <trkpt lat="51.4977980" lon="6.2035970">
        <ele>23.2089840</ele>
        <time>2007-08-01T08:45:31Z</time>
      </trkpt>
      <trkpt lat="51.4983360" lon="6.2034360">
        <ele>22.7282710</ele>
        <time>2007-08-01T08:45:38Z</time>
      </trkpt>
      <trkpt lat="51.4987400" lon="6.2033160">
        <ele>22.2475590</ele>
        <time>2007-08-01T08:45:43Z</time>
      </trkpt>
      <trkpt lat="51.4992190" lon="6.2031660">
        <ele>20.8056640</ele>
        <time>2007-08-01T08:45:49Z</time>
      </trkpt>
      <trkpt lat="51.4994450" lon="6.2030930">
        <ele>22.2475590</ele>
        <time>2007-08-01T08:45:52Z</time>
      </trkpt>
      <trkpt lat="51.4998260" lon="6.2029590">
        <ele>22.2475590</ele>
        <time>2007-08-01T08:45:57Z</time>
      </trkpt>
      <trkpt lat="51.5003940" lon="6.2027080">
        <ele>21.2863770</ele>
        <time>2007-08-01T08:46:04Z</time>
      </trkpt>
      <trkpt lat="51.5008930" lon="6.2024700">
        <ele>20.8056640</ele>
        <time>2007-08-01T08:46:10Z</time>
      </trkpt>
      <trkpt lat="51.5013800" lon="6.2022340">
        <ele>20.3249510</ele>
        <time>2007-08-01T08:46:16Z</time>
      </trkpt>
      <trkpt lat="51.5017870" lon="6.2020490">
        <ele>20.3249510</ele>
        <time>2007-08-01T08:46:21Z</time>
      </trkpt>
      <trkpt lat="51.5021920" lon="6.2018510">
        <ele>20.3249510</ele>
        <time>2007-08-01T08:46:26Z</time>
      </trkpt>
      <trkpt lat="51.5026000" lon="6.2016570">
        <ele>20.8056640</ele>
        <time>2007-08-01T08:46:31Z</time>
      </trkpt>
      <trkpt lat="51.5033920" lon="6.2012940">
        <ele>21.2863770</ele>
        <time>2007-08-01T08:46:41Z</time>
      </trkpt>
      <trkpt lat="51.5040920" lon="6.2009720">
        <ele>21.7669680</ele>
        <time>2007-08-01T08:46:50Z</time>
      </trkpt>
      <trkpt lat="51.5046310" lon="6.2008260">
        <ele>22.2475590</ele>
        <time>2007-08-01T08:46:57Z</time>
      </trkpt>
      <trkpt lat="51.5051030" lon="6.2008610">
        <ele>21.7669680</ele>
        <time>2007-08-01T08:47:03Z</time>
      </trkpt>
      <trkpt lat="51.5056030" lon="6.2009620">
        <ele>21.2863770</ele>
        <time>2007-08-01T08:47:09Z</time>
      </trkpt>
      <trkpt lat="51.5063710" lon="6.2011110">
        <ele>20.8056640</ele>
        <time>2007-08-01T08:47:18Z</time>
      </trkpt>
      <trkpt lat="51.5071160" lon="6.2012500">
        <ele>20.8056640</ele>
        <time>2007-08-01T08:47:27Z</time>
      </trkpt>
      <trkpt lat="51.5076030" lon="6.2013420">
        <ele>20.8056640</ele>
        <time>2007-08-01T08:47:33Z</time>
      </trkpt>
      <trkpt lat="51.5081730" lon="6.2014480">
        <ele>20.8056640</ele>
        <time>2007-08-01T08:47:40Z</time>
      </trkpt>
      <trkpt lat="51.5085740" lon="6.2014880">
        <ele>20.8056640</ele>
        <time>2007-08-01T08:47:45Z</time>
      </trkpt>
      <trkpt lat="51.5089690" lon="6.2013960">
        <ele>20.3249510</ele>
        <time>2007-08-01T08:47:50Z</time>
      </trkpt>
      <trkpt lat="51.5094250" lon="6.2011360">
        <ele>20.3249510</ele>
        <time>2007-08-01T08:47:56Z</time>
      </trkpt>
      <trkpt lat="51.5099510" lon="6.2007750">
        <ele>19.8443600</ele>
        <time>2007-08-01T08:48:03Z</time>
      </trkpt>
      <trkpt lat="51.5104610" lon="6.2004240">
        <ele>19.8443600</ele>
        <time>2007-08-01T08:48:10Z</time>
      </trkpt>
      <trkpt lat="51.5107060" lon="6.2002550">
        <ele>20.3249510</ele>
        <time>2007-08-01T08:48:14Z</time>
      </trkpt>
      <trkpt lat="51.5108400" lon="6.2003440">
        <ele>19.8443600</ele>
        <time>2007-08-01T08:48:17Z</time>
      </trkpt>
      <trkpt lat="51.5108860" lon="6.2005190">
        <ele>19.8443600</ele>
        <time>2007-08-01T08:48:19Z</time>
      </trkpt>
      <trkpt lat="51.5110560" lon="6.2012480">
        <ele>19.8443600</ele>
        <time>2007-08-01T08:48:26Z</time>
      </trkpt>
      <trkpt lat="51.5112860" lon="6.2021240">
        <ele>19.3637700</ele>
        <time>2007-08-01T08:48:34Z</time>
      </trkpt>
      <trkpt lat="51.5114730" lon="6.2028300">
        <ele>19.8443600</ele>
        <time>2007-08-01T08:48:40Z</time>
      </trkpt>
      <trkpt lat="51.5118030" lon="6.2040020">
        <ele>19.3637700</ele>
        <time>2007-08-01T08:48:50Z</time>
      </trkpt>
      <trkpt lat="51.5120200" lon="6.2046460">
        <ele>19.8443600</ele>
        <time>2007-08-01T08:48:56Z</time>
      </trkpt>
      <trkpt lat="51.5123600" lon="6.2051230">
        <ele>19.8443600</ele>
        <time>2007-08-01T08:49:02Z</time>
      </trkpt>
      <trkpt lat="51.5128020" lon="6.2053450">
        <ele>19.3637700</ele>
        <time>2007-08-01T08:49:08Z</time>
      </trkpt>
      <trkpt lat="51.5132560" lon="6.2052650">
        <ele>19.3637700</ele>
        <time>2007-08-01T08:49:14Z</time>
      </trkpt>
      <trkpt lat="51.5138460" lon="6.2049980">
        <ele>19.3637700</ele>
        <time>2007-08-01T08:49:22Z</time>
      </trkpt>
      <trkpt lat="51.5144460" lon="6.2047140">
        <ele>19.8443600</ele>
        <time>2007-08-01T08:49:30Z</time>
      </trkpt>
      <trkpt lat="51.5152030" lon="6.2043550">
        <ele>19.8443600</ele>
        <time>2007-08-01T08:49:40Z</time>
      </trkpt>
      <trkpt lat="51.5156450" lon="6.2041020">
        <ele>19.3637700</ele>
        <time>2007-08-01T08:49:46Z</time>
      </trkpt>
      <trkpt lat="51.5157900" lon="6.2040060">
        <ele>19.8443600</ele>
        <time>2007-08-01T08:49:48Z</time>
      </trkpt>
      <trkpt lat="51.5163650" lon="6.2035820">
        <ele>19.8443600</ele>
        <time>2007-08-01T08:49:56Z</time>
      </trkpt>
      <trkpt lat="51.5166500" lon="6.2033680">
        <ele>20.3249510</ele>
        <time>2007-08-01T08:50:00Z</time>
      </trkpt>
      <trkpt lat="51.5168680" lon="6.2032080">
        <ele>19.3637700</ele>
        <time>2007-08-01T08:50:03Z</time>
      </trkpt>
      <trkpt lat="51.5169400" lon="6.2031530">
        <ele>19.8443600</ele>
        <time>2007-08-01T08:50:04Z</time>
      </trkpt>
      <trkpt lat="51.5174400" lon="6.2027750">
        <ele>19.3637700</ele>
        <time>2007-08-01T08:50:11Z</time>
      </trkpt>
      <trkpt lat="51.5176570" lon="6.2026030">
        <ele>19.3637700</ele>
        <time>2007-08-01T08:50:14Z</time>
      </trkpt>
      <trkpt lat="51.5182320" lon="6.2021660">
        <ele>20.3249510</ele>
        <time>2007-08-01T08:50:22Z</time>
      </trkpt>
      <trkpt lat="51.5187150" lon="6.2017960">
        <ele>19.3637700</ele>
        <time>2007-08-01T08:50:29Z</time>
      </trkpt>
      <trkpt lat="51.5193660" lon="6.2013110">
        <ele>19.8443600</ele>
        <time>2007-08-01T08:50:38Z</time>
      </trkpt>
      <trkpt lat="51.5200940" lon="6.2007610">
        <ele>19.3637700</ele>
        <time>2007-08-01T08:50:48Z</time>
      </trkpt>
      <trkpt lat="51.5209000" lon="6.2001560">
        <ele>19.8443600</ele>
        <time>2007-08-01T08:50:59Z</time>
      </trkpt>
      <trkpt lat="51.5214740" lon="6.1996330">
        <ele>19.8443600</ele>
        <time>2007-08-01T08:51:07Z</time>
      </trkpt>
      <trkpt lat="51.5218580" lon="6.1989530">
        <ele>19.3637700</ele>
        <time>2007-08-01T08:51:14Z</time>
      </trkpt>
      <trkpt lat="51.5222340" lon="6.1980760">
        <ele>19.8443600</ele>
        <time>2007-08-01T08:51:22Z</time>
      </trkpt>
      <trkpt lat="51.5225100" lon="6.1974000">
        <ele>19.3637700</ele>
        <time>2007-08-01T08:51:28Z</time>
      </trkpt>
      <trkpt lat="51.5227400" lon="6.1968420">
        <ele>19.8443600</ele>
        <time>2007-08-01T08:51:33Z</time>
      </trkpt>
      <trkpt lat="51.5228360" lon="6.1966170">
        <ele>20.3249510</ele>
        <time>2007-08-01T08:51:35Z</time>
      </trkpt>
      <trkpt lat="51.5232440" lon="6.1959680">
        <ele>20.3249510</ele>
        <time>2007-08-01T08:51:42Z</time>
      </trkpt>
      <trkpt lat="51.5235270" lon="6.1957620">
        <ele>20.8056640</ele>
        <time>2007-08-01T08:51:46Z</time>
      </trkpt>
      <trkpt lat="51.5238130" lon="6.1956840">
        <ele>21.7669680</ele>
        <time>2007-08-01T08:51:50Z</time>
      </trkpt>
      <trkpt lat="51.5241600" lon="6.1956650">
        <ele>22.7282710</ele>
        <time>2007-08-01T08:51:55Z</time>
      </trkpt>
      <trkpt lat="51.5246350" lon="6.1954800">
        <ele>23.2089840</ele>
        <time>2007-08-01T08:52:02Z</time>
      </trkpt>
      <trkpt lat="51.5251290" lon="6.1950180">
        <ele>24.6510010</ele>
        <time>2007-08-01T08:52:10Z</time>
      </trkpt>
      <trkpt lat="51.5252480" lon="6.1948640">
        <ele>24.6510010</ele>
        <time>2007-08-01T08:52:12Z</time>
      </trkpt>
      <trkpt lat="51.5255440" lon="6.1943060">
        <ele>24.6510010</ele>
        <time>2007-08-01T08:52:18Z</time>
      </trkpt>
      <trkpt lat="51.5257590" lon="6.1935030">
        <ele>25.1317140</ele>
        <time>2007-08-01T08:52:25Z</time>
      </trkpt>
      <trkpt lat="51.5258800" lon="6.1929000">
        <ele>25.1317140</ele>
        <time>2007-08-01T08:52:30Z</time>
      </trkpt>
      <trkpt lat="51.5260770" lon="6.1921890">
        <ele>25.1317140</ele>
        <time>2007-08-01T08:52:36Z</time>
      </trkpt>
      <trkpt lat="51.5263630" lon="6.1914100">
        <ele>25.1317140</ele>
        <time>2007-08-01T08:52:43Z</time>
      </trkpt>
      <trkpt lat="51.5267250" lon="6.1907020">
        <ele>25.6123050</ele>
        <time>2007-08-01T08:52:50Z</time>
      </trkpt>
      <trkpt lat="51.5271740" lon="6.1901140">
        <ele>25.6123050</ele>
        <time>2007-08-01T08:52:57Z</time>
      </trkpt>
      <trkpt lat="51.5277810" lon="6.1894460">
        <ele>24.6510010</ele>
        <time>2007-08-01T08:53:06Z</time>
      </trkpt>
      <trkpt lat="51.5283130" lon="6.1888780">
        <ele>25.1317140</ele>
        <time>2007-08-01T08:53:14Z</time>
      </trkpt>
      <trkpt lat="51.5289080" lon="6.1882270">
        <ele>24.6510010</ele>
        <time>2007-08-01T08:53:23Z</time>
      </trkpt>
      <trkpt lat="51.5295450" lon="6.1875360">
        <ele>25.1317140</ele>
        <time>2007-08-01T08:53:33Z</time>
      </trkpt>
      <trkpt lat="51.5300470" lon="6.1869720">
        <ele>25.6123050</ele>
        <time>2007-08-01T08:53:41Z</time>
      </trkpt>
      <trkpt lat="51.5306280" lon="6.1862910">
        <ele>24.6510010</ele>
        <time>2007-08-01T08:53:50Z</time>
      </trkpt>
      <trkpt lat="51.5311090" lon="6.1857400">
        <ele>23.2089840</ele>
        <time>2007-08-01T08:53:57Z</time>
      </trkpt>
      <trkpt lat="51.5313900" lon="6.1853780">
        <ele>21.2863770</ele>
        <time>2007-08-01T08:54:01Z</time>
      </trkpt>
      <trkpt lat="51.5316440" lon="6.1847610">
        <ele>19.3637700</ele>
        <time>2007-08-01T08:54:06Z</time>
      </trkpt>
      <trkpt lat="51.5316740" lon="6.1846150">
        <ele>19.3637700</ele>
        <time>2007-08-01T08:54:07Z</time>
      </trkpt>
      <trkpt lat="51.5317200" lon="6.1840130">
        <ele>18.8830570</ele>
        <time>2007-08-01T08:54:11Z</time>
      </trkpt>
      <trkpt lat="51.5316700" lon="6.1835640">
        <ele>18.4023440</ele>
        <time>2007-08-01T08:54:14Z</time>
      </trkpt>
      <trkpt lat="51.5313670" lon="6.1821360">
        <ele>18.4023440</ele>
        <time>2007-08-01T08:54:24Z</time>
      </trkpt>
      <trkpt lat="51.5311100" lon="6.1809640">
        <ele>18.4023440</ele>
        <time>2007-08-01T08:54:33Z</time>
      </trkpt>
      <trkpt lat="51.5308600" lon="6.1797160">
        <ele>18.4023440</ele>
        <time>2007-08-01T08:54:43Z</time>
      </trkpt>
      <trkpt lat="51.5308420" lon="6.1792040">
        <ele>18.4023440</ele>
        <time>2007-08-01T08:54:47Z</time>
      </trkpt>
      <trkpt lat="51.5308510" lon="6.1790760">
        <ele>18.4023440</ele>
        <time>2007-08-01T08:54:48Z</time>
      </trkpt>
      <trkpt lat="51.5309470" lon="6.1785910">
        <ele>18.4023440</ele>
        <time>2007-08-01T08:54:52Z</time>
      </trkpt>
      <trkpt lat="51.5311810" lon="6.1780770">
        <ele>17.9217530</ele>
        <time>2007-08-01T08:54:57Z</time>
      </trkpt>
      <trkpt lat="51.5315990" lon="6.1776740">
        <ele>17.9217530</ele>
        <time>2007-08-01T08:55:03Z</time>
      </trkpt>
      <trkpt lat="51.5323730" lon="6.1771400">
        <ele>18.4023440</ele>
        <time>2007-08-01T08:55:13Z</time>
      </trkpt>
      <trkpt lat="51.5332480" lon="6.1765330">
        <ele>18.4023440</ele>
        <time>2007-08-01T08:55:24Z</time>
      </trkpt>
      <trkpt lat="51.5340610" lon="6.1759680">
        <ele>18.4023440</ele>
        <time>2007-08-01T08:55:34Z</time>
      </trkpt>
      <trkpt lat="51.5351320" lon="6.1752120">
        <ele>18.4023440</ele>
        <time>2007-08-01T08:55:47Z</time>
      </trkpt>
      <trkpt lat="51.5359450" lon="6.1746260">
        <ele>18.8830570</ele>
        <time>2007-08-01T08:55:57Z</time>
      </trkpt>
      <trkpt lat="51.5366400" lon="6.1741380">
        <ele>18.4023440</ele>
        <time>2007-08-01T08:56:06Z</time>
      </trkpt>
      <trkpt lat="51.5374770" lon="6.1735450">
        <ele>18.8830570</ele>
        <time>2007-08-01T08:56:17Z</time>
      </trkpt>
      <trkpt lat="51.5381580" lon="6.1730660">
        <ele>18.8830570</ele>
        <time>2007-08-01T08:56:26Z</time>
      </trkpt>
      <trkpt lat="51.5387680" lon="6.1726380">
        <ele>18.8830570</ele>
        <time>2007-08-01T08:56:34Z</time>
      </trkpt>
      <trkpt lat="51.5392920" lon="6.1722600">
        <ele>17.9217530</ele>
        <time>2007-08-01T08:56:41Z</time>
      </trkpt>
      <trkpt lat="51.5398790" lon="6.1718210">
        <ele>17.9217530</ele>
        <time>2007-08-01T08:56:49Z</time>
      </trkpt>
      <trkpt lat="51.5402700" lon="6.1715650">
        <ele>18.4023440</ele>
        <time>2007-08-01T08:56:54Z</time>
      </trkpt>
      <trkpt lat="51.5409760" lon="6.1710610">
        <ele>18.4023440</ele>
        <time>2007-08-01T08:57:03Z</time>
      </trkpt>
      <trkpt lat="51.5415330" lon="6.1706780">
        <ele>18.4023440</ele>
        <time>2007-08-01T08:57:10Z</time>
      </trkpt>
      <trkpt lat="51.5421580" lon="6.1701410">
        <ele>18.4023440</ele>
        <time>2007-08-01T08:57:18Z</time>
      </trkpt>
      <trkpt lat="51.5427680" lon="6.1695250">
        <ele>18.4023440</ele>
        <time>2007-08-01T08:57:26Z</time>
      </trkpt>
      <trkpt lat="51.5433760" lon="6.1689050">
        <ele>17.9217530</ele>
        <time>2007-08-01T08:57:34Z</time>
      </trkpt>
      <trkpt lat="51.5442100" lon="6.1680560">
        <ele>17.9217530</ele>
        <time>2007-08-01T08:57:45Z</time>
      </trkpt>
      <trkpt lat="51.5450410" lon="6.1672120">
        <ele>17.9217530</ele>
        <time>2007-08-01T08:57:56Z</time>
      </trkpt>
      <trkpt lat="51.5456450" lon="6.1665910">
        <ele>17.9217530</ele>
        <time>2007-08-01T08:58:04Z</time>
      </trkpt>
      <trkpt lat="51.5462600" lon="6.1659740">
        <ele>18.4023440</ele>
        <time>2007-08-01T08:58:12Z</time>
      </trkpt>
      <trkpt lat="51.5469560" lon="6.1652630">
        <ele>18.4023440</ele>
        <time>2007-08-01T08:58:21Z</time>
      </trkpt>
      <trkpt lat="51.5474760" lon="6.1647260">
        <ele>17.9217530</ele>
        <time>2007-08-01T08:58:28Z</time>
      </trkpt>
      <trkpt lat="51.5479770" lon="6.1641990">
        <ele>18.8830570</ele>
        <time>2007-08-01T08:58:35Z</time>
      </trkpt>
      <trkpt lat="51.5484880" lon="6.1637040">
        <ele>18.8830570</ele>
        <time>2007-08-01T08:58:42Z</time>
      </trkpt>
      <trkpt lat="51.5491300" lon="6.1630450">
        <ele>18.4023440</ele>
        <time>2007-08-01T08:58:51Z</time>
      </trkpt>
      <trkpt lat="51.5497950" lon="6.1623580">
        <ele>19.3637700</ele>
        <time>2007-08-01T08:59:00Z</time>
      </trkpt>
      <trkpt lat="51.5502530" lon="6.1618940">
        <ele>18.8830570</ele>
        <time>2007-08-01T08:59:06Z</time>
      </trkpt>
      <trkpt lat="51.5509430" lon="6.1611890">
        <ele>18.8830570</ele>
        <time>2007-08-01T08:59:15Z</time>
      </trkpt>
      <trkpt lat="51.5515660" lon="6.1605540">
        <ele>18.8830570</ele>
        <time>2007-08-01T08:59:23Z</time>
      </trkpt>
      <trkpt lat="51.5524520" lon="6.1596410">
        <ele>19.3637700</ele>
        <time>2007-08-01T08:59:34Z</time>
      </trkpt>
      <trkpt lat="51.5528660" lon="6.1592190">
        <ele>18.4023440</ele>
        <time>2007-08-01T08:59:39Z</time>
      </trkpt>
      <trkpt lat="51.5536060" lon="6.1584670">
        <ele>18.8830570</ele>
        <time>2007-08-01T08:59:48Z</time>
      </trkpt>
      <trkpt lat="51.5541000" lon="6.1579680">
        <ele>18.8830570</ele>
        <time>2007-08-01T08:59:54Z</time>
      </trkpt>
      <trkpt lat="51.5548230" lon="6.1572270">
        <ele>18.4023440</ele>
        <time>2007-08-01T09:00:03Z</time>
      </trkpt>
      <trkpt lat="51.5554590" lon="6.1565890">
        <ele>18.8830570</ele>
        <time>2007-08-01T09:00:11Z</time>
      </trkpt>
      <trkpt lat="51.5560710" lon="6.1559080">
        <ele>18.8830570</ele>
        <time>2007-08-01T09:00:19Z</time>
      </trkpt>
      <trkpt lat="51.5566150" lon="6.1550910">
        <ele>18.8830570</ele>
        <time>2007-08-01T09:00:27Z</time>
      </trkpt>
      <trkpt lat="51.5571320" lon="6.1542290">
        <ele>18.8830570</ele>
        <time>2007-08-01T09:00:35Z</time>
      </trkpt>
      <trkpt lat="51.5576580" lon="6.1533490">
        <ele>18.4023440</ele>
        <time>2007-08-01T09:00:43Z</time>
      </trkpt>
      <trkpt lat="51.5583310" lon="6.1522450">
        <ele>18.8830570</ele>
        <time>2007-08-01T09:00:53Z</time>
      </trkpt>
      <trkpt lat="51.5587150" lon="6.1517640">
        <ele>18.8830570</ele>
        <time>2007-08-01T09:00:58Z</time>
      </trkpt>
      <trkpt lat="51.5591500" lon="6.1514060">
        <ele>18.4023440</ele>
        <time>2007-08-01T09:01:03Z</time>
      </trkpt>
      <trkpt lat="51.5600470" lon="6.1508330">
        <ele>18.4023440</ele>
        <time>2007-08-01T09:01:13Z</time>
      </trkpt>
      <trkpt lat="51.5609300" lon="6.1502770">
        <ele>18.8830570</ele>
        <time>2007-08-01T09:01:23Z</time>
      </trkpt>
      <trkpt lat="51.5615310" lon="6.1498510">
        <ele>18.8830570</ele>
        <time>2007-08-01T09:01:30Z</time>
      </trkpt>
      <trkpt lat="51.5622690" lon="6.1492460">
        <ele>18.4023440</ele>
        <time>2007-08-01T09:01:39Z</time>
      </trkpt>
      <trkpt lat="51.5630800" lon="6.1485730">
        <ele>19.3637700</ele>
        <time>2007-08-01T09:01:49Z</time>
      </trkpt>
      <trkpt lat="51.5637880" lon="6.1479400">
        <ele>18.8830570</ele>
        <time>2007-08-01T09:01:58Z</time>
      </trkpt>
      <trkpt lat="51.5644330" lon="6.1473450">
        <ele>18.8830570</ele>
        <time>2007-08-01T09:02:06Z</time>
      </trkpt>
      <trkpt lat="51.5650700" lon="6.1467470">
        <ele>18.8830570</ele>
        <time>2007-08-01T09:02:14Z</time>
      </trkpt>
      <trkpt lat="51.5656330" lon="6.1462230">
        <ele>18.4023440</ele>
        <time>2007-08-01T09:02:21Z</time>
      </trkpt>
      <trkpt lat="51.5661910" lon="6.1457030">
        <ele>18.8830570</ele>
        <time>2007-08-01T09:02:28Z</time>
      </trkpt>
      <trkpt lat="51.5669890" lon="6.1449550">
        <ele>18.8830570</ele>
        <time>2007-08-01T09:02:38Z</time>
      </trkpt>
      <trkpt lat="51.5677670" lon="6.1442260">
        <ele>18.8830570</ele>
        <time>2007-08-01T09:02:48Z</time>
      </trkpt>
      <trkpt lat="51.5684700" lon="6.1435700">
        <ele>19.3637700</ele>
        <time>2007-08-01T09:02:57Z</time>
      </trkpt>
      <trkpt lat="51.5691590" lon="6.1428450">
        <ele>19.3637700</ele>
        <time>2007-08-01T09:03:06Z</time>
      </trkpt>
      <trkpt lat="51.5696650" lon="6.1422250">
        <ele>19.3637700</ele>
        <time>2007-08-01T09:03:13Z</time>
      </trkpt>
      <trkpt lat="51.5702570" lon="6.1413730">
        <ele>19.3637700</ele>
        <time>2007-08-01T09:03:22Z</time>
      </trkpt>
      <trkpt lat="51.5707480" lon="6.1405140">
        <ele>18.8830570</ele>
        <time>2007-08-01T09:03:30Z</time>
      </trkpt>
      <trkpt lat="51.5712350" lon="6.1396260">
        <ele>18.8830570</ele>
        <time>2007-08-01T09:03:38Z</time>
      </trkpt>
      <trkpt lat="51.5716100" lon="6.1389470">
        <ele>18.8830570</ele>
        <time>2007-08-01T09:03:44Z</time>
      </trkpt>
      <trkpt lat="51.5721620" lon="6.1379430">
        <ele>19.8443600</ele>
        <time>2007-08-01T09:03:53Z</time>
      </trkpt>
      <trkpt lat="51.5727150" lon="6.1369400">
        <ele>19.8443600</ele>
        <time>2007-08-01T09:04:02Z</time>
      </trkpt>
      <trkpt lat="51.5734030" lon="6.1356750">
        <ele>19.8443600</ele>
        <time>2007-08-01T09:04:13Z</time>
      </trkpt>
      <trkpt lat="51.5737150" lon="6.1350840">
        <ele>20.3249510</ele>
        <time>2007-08-01T09:04:18Z</time>
      </trkpt>
      <trkpt lat="51.5743610" lon="6.1337240">
        <ele>19.3637700</ele>
        <time>2007-08-01T09:04:29Z</time>
      </trkpt>
      <trkpt lat="51.5749150" lon="6.1325200">
        <ele>19.3637700</ele>
        <time>2007-08-01T09:04:39Z</time>
      </trkpt>
      <trkpt lat="51.5756540" lon="6.1309100">
        <ele>19.8443600</ele>
        <time>2007-08-01T09:04:52Z</time>
      </trkpt>
      <trkpt lat="51.5762390" lon="6.1296440">
        <ele>19.3637700</ele>
        <time>2007-08-01T09:05:02Z</time>
      </trkpt>
      <trkpt lat="51.5767730" lon="6.1284980">
        <ele>19.8443600</ele>
        <time>2007-08-01T09:05:11Z</time>
      </trkpt>
      <trkpt lat="51.5773030" lon="6.1273390">
        <ele>19.3637700</ele>
        <time>2007-08-01T09:05:20Z</time>
      </trkpt>
      <trkpt lat="51.5777640" lon="6.1263370">
        <ele>19.3637700</ele>
        <time>2007-08-01T09:05:28Z</time>
      </trkpt>
      <trkpt lat="51.5783170" lon="6.1251200">
        <ele>18.8830570</ele>
        <time>2007-08-01T09:05:38Z</time>
      </trkpt>
      <trkpt lat="51.5788040" lon="6.1240580">
        <ele>19.3637700</ele>
        <time>2007-08-01T09:05:47Z</time>
      </trkpt>
      <trkpt lat="51.5792200" lon="6.1231450">
        <ele>18.8830570</ele>
        <time>2007-08-01T09:05:55Z</time>
      </trkpt>
      <trkpt lat="51.5796380" lon="6.1222650">
        <ele>19.3637700</ele>
        <time>2007-08-01T09:06:03Z</time>
      </trkpt>
      <trkpt lat="51.5798240" lon="6.1219810">
        <ele>19.8443600</ele>
        <time>2007-08-01T09:06:06Z</time>
      </trkpt>
      <trkpt lat="51.5800420" lon="6.1217620">
        <ele>20.3249510</ele>
        <time>2007-08-01T09:06:09Z</time>
      </trkpt>
      <trkpt lat="51.5805440" lon="6.1215230">
        <ele>19.8443600</ele>
        <time>2007-08-01T09:06:15Z</time>
      </trkpt>
      <trkpt lat="51.5810910" lon="6.1212900">
        <ele>20.8056640</ele>
        <time>2007-08-01T09:06:22Z</time>
      </trkpt>
      <trkpt lat="51.5813260" lon="6.1210160">
        <ele>20.8056640</ele>
        <time>2007-08-01T09:06:26Z</time>
      </trkpt>
      <trkpt lat="51.5814010" lon="6.1208440">
        <ele>21.2863770</ele>
        <time>2007-08-01T09:06:28Z</time>
      </trkpt>
      <trkpt lat="51.5815300" lon="6.1205750">
        <ele>20.8056640</ele>
        <time>2007-08-01T09:06:32Z</time>
      </trkpt>
      <trkpt lat="51.5816870" lon="6.1206140">
        <ele>21.7669680</ele>
        <time>2007-08-01T09:06:35Z</time>
      </trkpt>
      <trkpt lat="51.5820870" lon="6.1208630">
        <ele>19.3637700</ele>
        <time>2007-08-01T09:06:42Z</time>
      </trkpt>
      <trkpt lat="51.5825870" lon="6.1211480">
        <ele>18.8830570</ele>
        <time>2007-08-01T09:06:50Z</time>
      </trkpt>
      <trkpt lat="51.5831350" lon="6.1214560">
        <ele>19.8443600</ele>
        <time>2007-08-01T09:06:58Z</time>
      </trkpt>
      <trkpt lat="51.5836910" lon="6.1217640">
        <ele>20.3249510</ele>
        <time>2007-08-01T09:07:06Z</time>
      </trkpt>
      <trkpt lat="51.5841860" lon="6.1219610">
        <ele>20.8056640</ele>
        <time>2007-08-01T09:07:13Z</time>
      </trkpt>
      <trkpt lat="51.5847020" lon="6.1220410">
        <ele>20.3249510</ele>
        <time>2007-08-01T09:07:20Z</time>
      </trkpt>
      <trkpt lat="51.5851530" lon="6.1221230">
        <ele>20.3249510</ele>
        <time>2007-08-01T09:07:26Z</time>
      </trkpt>
      <trkpt lat="51.5855820" lon="6.1223760">
        <ele>20.3249510</ele>
        <time>2007-08-01T09:07:32Z</time>
      </trkpt>
      <trkpt lat="51.5861080" lon="6.1227980">
        <ele>19.8443600</ele>
        <time>2007-08-01T09:07:40Z</time>
      </trkpt>
      <trkpt lat="51.5864320" lon="6.1230480">
        <ele>19.3637700</ele>
        <time>2007-08-01T09:07:45Z</time>
      </trkpt>
      <trkpt lat="51.5867580" lon="6.1233040">
        <ele>20.3249510</ele>
        <time>2007-08-01T09:07:50Z</time>
      </trkpt>
      <trkpt lat="51.5869200" lon="6.1236720">
        <ele>20.3249510</ele>
        <time>2007-08-01T09:07:54Z</time>
      </trkpt>
      <trkpt lat="51.5869290" lon="6.1237910">
        <ele>20.8056640</ele>
        <time>2007-08-01T09:07:55Z</time>
      </trkpt>
      <trkpt lat="51.5869490" lon="6.1246300">
        <ele>20.3249510</ele>
        <time>2007-08-01T09:08:02Z</time>
      </trkpt>
      <trkpt lat="51.5869580" lon="6.1257050">
        <ele>19.8443600</ele>
        <time>2007-08-01T09:08:11Z</time>
      </trkpt>
      <trkpt lat="51.5869680" lon="6.1267730">
        <ele>19.8443600</ele>
        <time>2007-08-01T09:08:20Z</time>
      </trkpt>
      <trkpt lat="51.5869700" lon="6.1275970">
        <ele>20.3249510</ele>
        <time>2007-08-01T09:08:27Z</time>
      </trkpt>
      <trkpt lat="51.5869810" lon="6.1281480">
        <ele>20.8056640</ele>
        <time>2007-08-01T09:08:32Z</time>
      </trkpt>
      <trkpt lat="51.5869830" lon="6.1288230">
        <ele>20.3249510</ele>
        <time>2007-08-01T09:08:38Z</time>
      </trkpt>
      <trkpt lat="51.5869030" lon="6.1294670">
        <ele>20.8056640</ele>
        <time>2007-08-01T09:08:44Z</time>
      </trkpt>
      <trkpt lat="51.5868490" lon="6.1296760">
        <ele>20.3249510</ele>
        <time>2007-08-01T09:08:46Z</time>
      </trkpt>
      <trkpt lat="51.5868640" lon="6.1299950">
        <ele>20.8056640</ele>
        <time>2007-08-01T09:08:49Z</time>
      </trkpt>
      <trkpt lat="51.5869030" lon="6.1300850">
        <ele>20.8056640</ele>
        <time>2007-08-01T09:08:50Z</time>
      </trkpt>
      <trkpt lat="51.5870430" lon="6.1305990">
        <ele>21.2863770</ele>
        <time>2007-08-01T09:08:55Z</time>
      </trkpt>
      <trkpt lat="51.5870580" lon="6.1307090">
        <ele>21.2863770</ele>
        <time>2007-08-01T09:08:56Z</time>
      </trkpt>
      <trkpt lat="51.5871670" lon="6.1314350">
        <ele>22.2475590</ele>
        <time>2007-08-01T09:09:03Z</time>
      </trkpt>
      <trkpt lat="51.5873390" lon="6.1320960">
        <ele>23.2089840</ele>
        <time>2007-08-01T09:09:10Z</time>
      </trkpt>
      <trkpt lat="51.5874310" lon="6.1323570">
        <ele>24.1702880</ele>
        <time>2007-08-01T09:09:13Z</time>
      </trkpt>
      <trkpt lat="51.5874970" lon="6.1325290">
        <ele>24.6510010</ele>
        <time>2007-08-01T09:09:15Z</time>
      </trkpt>
      <trkpt lat="51.5875310" lon="6.1326150">
        <ele>24.6510010</ele>
        <time>2007-08-01T09:09:16Z</time>
      </trkpt>
      <trkpt lat="51.5875650" lon="6.1327020">
        <ele>24.6510010</ele>
        <time>2007-08-01T09:09:17Z</time>
      </trkpt>
      <trkpt lat="51.5878110" lon="6.1332650">
        <ele>25.1317140</ele>
        <time>2007-08-01T09:09:24Z</time>
      </trkpt>
      <trkpt lat="51.5879150" lon="6.1334770">
        <ele>25.6123050</ele>
        <time>2007-08-01T09:09:27Z</time>
      </trkpt>
      <trkpt lat="51.5880540" lon="6.1336020">
        <ele>25.6123050</ele>
        <time>2007-08-01T09:09:30Z</time>
      </trkpt>
      <trkpt lat="51.5881700" lon="6.1335240">
        <ele>24.6510010</ele>
        <time>2007-08-01T09:09:32Z</time>
      </trkpt>
      <trkpt lat="51.5886820" lon="6.1328540">
        <ele>23.2089840</ele>
        <time>2007-08-01T09:09:41Z</time>
      </trkpt>
      <trkpt lat="51.5890870" lon="6.1323370">
        <ele>22.2475590</ele>
        <time>2007-08-01T09:09:48Z</time>
      </trkpt>
      <trkpt lat="51.5891410" lon="6.1322660">
        <ele>22.7282710</ele>
        <time>2007-08-01T09:09:49Z</time>
      </trkpt>
      <trkpt lat="51.5892470" lon="6.1321270">
        <ele>22.7282710</ele>
        <time>2007-08-01T09:09:51Z</time>
      </trkpt>
      <trkpt lat="51.5896230" lon="6.1316320">
        <ele>22.7282710</ele>
        <time>2007-08-01T09:09:58Z</time>
      </trkpt>
      <trkpt lat="51.5897350" lon="6.1314870">
        <ele>22.2475590</ele>
        <time>2007-08-01T09:10:00Z</time>
      </trkpt>
      <trkpt lat="51.5898470" lon="6.1313420">
        <ele>22.2475590</ele>
        <time>2007-08-01T09:10:02Z</time>
      </trkpt>
      <trkpt lat="51.5899030" lon="6.1312660">
        <ele>22.2475590</ele>
        <time>2007-08-01T09:10:03Z</time>
      </trkpt>
      <trkpt lat="51.5903450" lon="6.1306720">
        <ele>22.7282710</ele>
        <time>2007-08-01T09:10:11Z</time>
      </trkpt>
      <trkpt lat="51.5907860" lon="6.1300810">
        <ele>22.7282710</ele>
        <time>2007-08-01T09:10:19Z</time>
      </trkpt>
      <trkpt lat="51.5912350" lon="6.1294890">
        <ele>22.2475590</ele>
        <time>2007-08-01T09:10:27Z</time>
      </trkpt>
      <trkpt lat="51.5916440" lon="6.1289220">
        <ele>21.7669680</ele>
        <time>2007-08-01T09:10:34Z</time>
      </trkpt>
      <trkpt lat="51.5920540" lon="6.1283280">
        <ele>21.7669680</ele>
        <time>2007-08-01T09:10:41Z</time>
      </trkpt>
      <trkpt lat="51.5924060" lon="6.1278310">
        <ele>22.2475590</ele>
        <time>2007-08-01T09:10:47Z</time>
      </trkpt>
      <trkpt lat="51.5927060" lon="6.1274990">
        <ele>23.6895750</ele>
        <time>2007-08-01T09:10:52Z</time>
      </trkpt>
      <trkpt lat="51.5932770" lon="6.1270910">
        <ele>24.6510010</ele>
        <time>2007-08-01T09:11:01Z</time>
      </trkpt>
      <trkpt lat="51.5936300" lon="6.1267840">
        <ele>25.1317140</ele>
        <time>2007-08-01T09:11:07Z</time>
      </trkpt>
      <trkpt lat="51.5939500" lon="6.1263380">
        <ele>24.6510010</ele>
        <time>2007-08-01T09:11:13Z</time>
      </trkpt>
      <trkpt lat="51.5940380" lon="6.1261680">
        <ele>24.6510010</ele>
        <time>2007-08-01T09:11:15Z</time>
      </trkpt>
      <trkpt lat="51.5942410" lon="6.1256850">
        <ele>24.1702880</ele>
        <time>2007-08-01T09:11:20Z</time>
      </trkpt>
      <trkpt lat="51.5945340" lon="6.1250110">
        <ele>22.7282710</ele>
        <time>2007-08-01T09:11:26Z</time>
      </trkpt>
      <trkpt lat="51.5947230" lon="6.1246830">
        <ele>21.2863770</ele>
        <time>2007-08-01T09:11:29Z</time>
      </trkpt>
      <trkpt lat="51.5951450" lon="6.1240850">
        <ele>20.3249510</ele>
        <time>2007-08-01T09:11:35Z</time>
      </trkpt>
      <trkpt lat="51.5956970" lon="6.1233730">
        <ele>20.8056640</ele>
        <time>2007-08-01T09:11:43Z</time>
      </trkpt>
      <trkpt lat="51.5961910" lon="6.1226360">
        <ele>20.3249510</ele>
        <time>2007-08-01T09:11:51Z</time>
      </trkpt>
      <trkpt lat="51.5965530" lon="6.1219190">
        <ele>20.3249510</ele>
        <time>2007-08-01T09:11:58Z</time>
      </trkpt>
      <trkpt lat="51.5969030" lon="6.1211940">
        <ele>20.3249510</ele>
        <time>2007-08-01T09:12:05Z</time>
      </trkpt>
      <trkpt lat="51.5973470" lon="6.1202640">
        <ele>19.8443600</ele>
        <time>2007-08-01T09:12:14Z</time>
      </trkpt>
      <trkpt lat="51.5977890" lon="6.1193430">
        <ele>20.8056640</ele>
        <time>2007-08-01T09:12:23Z</time>
      </trkpt>
      <trkpt lat="51.5982810" lon="6.1183210">
        <ele>20.3249510</ele>
        <time>2007-08-01T09:12:33Z</time>
      </trkpt>
      <trkpt lat="51.5986320" lon="6.1176630">
        <ele>20.8056640</ele>
        <time>2007-08-01T09:12:40Z</time>
      </trkpt>
      <trkpt lat="51.5991870" lon="6.1167390">
        <ele>20.3249510</ele>
        <time>2007-08-01T09:12:50Z</time>
      </trkpt>
      <trkpt lat="51.5996040" lon="6.1161050">
        <ele>20.3249510</ele>
        <time>2007-08-01T09:12:57Z</time>
      </trkpt>
      <trkpt lat="51.6003480" lon="6.1150090">
        <ele>20.3249510</ele>
        <time>2007-08-01T09:13:09Z</time>
      </trkpt>
      <trkpt lat="51.6008260" lon="6.1144210">
        <ele>19.3637700</ele>
        <time>2007-08-01T09:13:16Z</time>
      </trkpt>
      <trkpt lat="51.6014010" lon="6.1138370">
        <ele>19.3637700</ele>
        <time>2007-08-01T09:13:24Z</time>
      </trkpt>
      <trkpt lat="51.6020070" lon="6.1133550">
        <ele>19.3637700</ele>
        <time>2007-08-01T09:13:32Z</time>
      </trkpt>
      <trkpt lat="51.6026950" lon="6.1129390">
        <ele>20.3249510</ele>
        <time>2007-08-01T09:13:41Z</time>
      </trkpt>
      <trkpt lat="51.6034850" lon="6.1126250">
        <ele>19.3637700</ele>
        <time>2007-08-01T09:13:51Z</time>
      </trkpt>
      <trkpt lat="51.6040430" lon="6.1124410">
        <ele>19.3637700</ele>
        <time>2007-08-01T09:13:58Z</time>
      </trkpt>
      <trkpt lat="51.6048100" lon="6.1121850">
        <ele>19.3637700</ele>
        <time>2007-08-01T09:14:08Z</time>
      </trkpt>
      <trkpt lat="51.6053320" lon="6.1120040">
        <ele>19.8443600</ele>
        <time>2007-08-01T09:14:15Z</time>
      </trkpt>
      <trkpt lat="51.6060270" lon="6.1117750">
        <ele>18.8830570</ele>
        <time>2007-08-01T09:14:24Z</time>
      </trkpt>
      <trkpt lat="51.6066640" lon="6.1115890">
        <ele>19.3637700</ele>
        <time>2007-08-01T09:14:32Z</time>
      </trkpt>
      <trkpt lat="51.6071840" lon="6.1114580">
        <ele>19.3637700</ele>
        <time>2007-08-01T09:14:39Z</time>
      </trkpt>
      <trkpt lat="51.6075290" lon="6.1114190">
        <ele>20.8056640</ele>
        <time>2007-08-01T09:14:45Z</time>
      </trkpt>
      <trkpt lat="51.6077130" lon="6.1114140">
        <ele>22.2475590</ele>
        <time>2007-08-01T09:14:50Z</time>
      </trkpt>
      <trkpt lat="51.6078920" lon="6.1114320">
        <ele>22.2475590</ele>
        <time>2007-08-01T09:14:55Z</time>
      </trkpt>
      <trkpt lat="51.6079930" lon="6.1114440">
        <ele>23.2089840</ele>
        <time>2007-08-01T09:14:57Z</time>
      </trkpt>
      <trkpt lat="51.6082300" lon="6.1114790">
        <ele>23.6895750</ele>
        <time>2007-08-01T09:15:02Z</time>
      </trkpt>
      <trkpt lat="51.6084850" lon="6.1115520">
        <ele>25.1317140</ele>
        <time>2007-08-01T09:15:07Z</time>
      </trkpt>
      <trkpt lat="51.6088500" lon="6.1117780">
        <ele>26.5736080</ele>
        <time>2007-08-01T09:15:14Z</time>
      </trkpt>
      <trkpt lat="51.6089000" lon="6.1118190">
        <ele>27.0543210</ele>
        <time>2007-08-01T09:15:15Z</time>
      </trkpt>
      <trkpt lat="51.6090390" lon="6.1119630">
        <ele>27.5349120</ele>
        <time>2007-08-01T09:15:18Z</time>
      </trkpt>
      <trkpt lat="51.6092870" lon="6.1123040">
        <ele>28.9769290</ele>
        <time>2007-08-01T09:15:24Z</time>
      </trkpt>
      <trkpt lat="51.6093270" lon="6.1123660">
        <ele>28.9769290</ele>
        <time>2007-08-01T09:15:25Z</time>
      </trkpt>
      <trkpt lat="51.6095530" lon="6.1128880">
        <ele>29.9381100</ele>
        <time>2007-08-01T09:15:32Z</time>
      </trkpt>
      <trkpt lat="51.6096350" lon="6.1131540">
        <ele>29.9381100</ele>
        <time>2007-08-01T09:15:35Z</time>
      </trkpt>
      <trkpt lat="51.6097560" lon="6.1136410">
        <ele>29.9381100</ele>
        <time>2007-08-01T09:15:40Z</time>
      </trkpt>
      <trkpt lat="51.6099110" lon="6.1141650">
        <ele>30.4188230</ele>
        <time>2007-08-01T09:15:45Z</time>
      </trkpt>
      <trkpt lat="51.6101310" lon="6.1147740">
        <ele>29.9381100</ele>
        <time>2007-08-01T09:15:51Z</time>
      </trkpt>
      <trkpt lat="51.6104000" lon="6.1153170">
        <ele>29.4575200</ele>
        <time>2007-08-01T09:15:57Z</time>
      </trkpt>
      <trkpt lat="51.6106250" lon="6.1158830">
        <ele>29.4575200</ele>
        <time>2007-08-01T09:16:03Z</time>
      </trkpt>
      <trkpt lat="51.6107740" lon="6.1165180">
        <ele>29.9381100</ele>
        <time>2007-08-01T09:16:09Z</time>
      </trkpt>
      <trkpt lat="51.6108710" lon="6.1174280">
        <ele>29.4575200</ele>
        <time>2007-08-01T09:16:17Z</time>
      </trkpt>
      <trkpt lat="51.6109710" lon="6.1184480">
        <ele>30.4188230</ele>
        <time>2007-08-01T09:16:26Z</time>
      </trkpt>
      <trkpt lat="51.6110890" lon="6.1197030">
        <ele>29.9381100</ele>
        <time>2007-08-01T09:16:37Z</time>
      </trkpt>
      <trkpt lat="51.6111660" lon="6.1207630">
        <ele>29.9381100</ele>
        <time>2007-08-01T09:16:46Z</time>
      </trkpt>
      <trkpt lat="51.6112530" lon="6.1217330">
        <ele>30.4188230</ele>
        <time>2007-08-01T09:16:54Z</time>
      </trkpt>
      <trkpt lat="51.6113680" lon="6.1227070">
        <ele>29.9381100</ele>
        <time>2007-08-01T09:17:02Z</time>
      </trkpt>
      <trkpt lat="51.6114870" lon="6.1238550">
        <ele>29.4575200</ele>
        <time>2007-08-01T09:17:11Z</time>
      </trkpt>
      <trkpt lat="51.6116030" lon="6.1250740">
        <ele>27.5349120</ele>
        <time>2007-08-01T09:17:20Z</time>
      </trkpt>
      <trkpt lat="51.6117050" lon="6.1263920">
        <ele>26.0928960</ele>
        <time>2007-08-01T09:17:29Z</time>
      </trkpt>
      <trkpt lat="51.6117380" lon="6.1274920">
        <ele>23.6895750</ele>
        <time>2007-08-01T09:17:36Z</time>
      </trkpt>
      <trkpt lat="51.6117420" lon="6.1276430">
        <ele>24.1702880</ele>
        <time>2007-08-01T09:17:37Z</time>
      </trkpt>
      <trkpt lat="51.6116830" lon="6.1287920">
        <ele>23.2089840</ele>
        <time>2007-08-01T09:17:45Z</time>
      </trkpt>
      <trkpt lat="51.6116380" lon="6.1297890">
        <ele>22.2475590</ele>
        <time>2007-08-01T09:17:52Z</time>
      </trkpt>
      <trkpt lat="51.6115870" lon="6.1307210">
        <ele>23.2089840</ele>
        <time>2007-08-01T09:17:59Z</time>
      </trkpt>
      <trkpt lat="51.6115570" lon="6.1315850">
        <ele>24.1702880</ele>
        <time>2007-08-01T09:18:06Z</time>
      </trkpt>
      <trkpt lat="51.6115790" lon="6.1323000">
        <ele>24.6510010</ele>
        <time>2007-08-01T09:18:12Z</time>
      </trkpt>
      <trkpt lat="51.6116360" lon="6.1332650">
        <ele>25.1317140</ele>
        <time>2007-08-01T09:18:20Z</time>
      </trkpt>
      <trkpt lat="51.6116750" lon="6.1341180">
        <ele>25.6123050</ele>
        <time>2007-08-01T09:18:27Z</time>
      </trkpt>
      <trkpt lat="51.6117160" lon="6.1351300">
        <ele>24.1702880</ele>
        <time>2007-08-01T09:18:35Z</time>
      </trkpt>
      <trkpt lat="51.6116780" lon="6.1361990">
        <ele>22.7282710</ele>
        <time>2007-08-01T09:18:43Z</time>
      </trkpt>
      <trkpt lat="51.6116140" lon="6.1372520">
        <ele>21.7669680</ele>
        <time>2007-08-01T09:18:51Z</time>
      </trkpt>
      <trkpt lat="51.6116390" lon="6.1382590">
        <ele>22.7282710</ele>
        <time>2007-08-01T09:18:59Z</time>
      </trkpt>
      <trkpt lat="51.6117760" lon="6.1391040">
        <ele>22.7282710</ele>
        <time>2007-08-01T09:19:06Z</time>
      </trkpt>
      <trkpt lat="51.6119790" lon="6.1397870">
        <ele>23.6895750</ele>
        <time>2007-08-01T09:19:12Z</time>
      </trkpt>
      <trkpt lat="51.6123340" lon="6.1406700">
        <ele>23.2089840</ele>
        <time>2007-08-01T09:19:20Z</time>
      </trkpt>
      <trkpt lat="51.6127930" lon="6.1417740">
        <ele>22.7282710</ele>
        <time>2007-08-01T09:19:30Z</time>
      </trkpt>
      <trkpt lat="51.6131330" lon="6.1428420">
        <ele>23.2089840</ele>
        <time>2007-08-01T09:19:39Z</time>
      </trkpt>
      <trkpt lat="51.6133800" lon="6.1439600">
        <ele>22.7282710</ele>
        <time>2007-08-01T09:19:48Z</time>
      </trkpt>
      <trkpt lat="51.6135430" lon="6.1450860">
        <ele>22.7282710</ele>
        <time>2007-08-01T09:19:57Z</time>
      </trkpt>
      <trkpt lat="51.6136240" lon="6.1462250">
        <ele>23.2089840</ele>
        <time>2007-08-01T09:20:06Z</time>
      </trkpt>
      <trkpt lat="51.6137110" lon="6.1476070">
        <ele>22.7282710</ele>
        <time>2007-08-01T09:20:17Z</time>
      </trkpt>
      <trkpt lat="51.6137760" lon="6.1487030">
        <ele>23.2089840</ele>
        <time>2007-08-01T09:20:26Z</time>
      </trkpt>
      <trkpt lat="51.6138210" lon="6.1494320">
        <ele>22.2475590</ele>
        <time>2007-08-01T09:20:32Z</time>
      </trkpt>
      <trkpt lat="51.6138850" lon="6.1505460">
        <ele>22.7282710</ele>
        <time>2007-08-01T09:20:41Z</time>
      </trkpt>
      <trkpt lat="51.6139270" lon="6.1514210">
        <ele>22.7282710</ele>
        <time>2007-08-01T09:20:48Z</time>
      </trkpt>
      <trkpt lat="51.6139360" lon="6.1521680">
        <ele>23.2089840</ele>
        <time>2007-08-01T09:20:54Z</time>
      </trkpt>
      <trkpt lat="51.6139130" lon="6.1531780">
        <ele>22.7282710</ele>
        <time>2007-08-01T09:21:02Z</time>
      </trkpt>
      <trkpt lat="51.6138600" lon="6.1542810">
        <ele>22.7282710</ele>
        <time>2007-08-01T09:21:11Z</time>
      </trkpt>
      <trkpt lat="51.6137900" lon="6.1553410">
        <ele>23.6895750</ele>
        <time>2007-08-01T09:21:20Z</time>
      </trkpt>
      <trkpt lat="51.6136990" lon="6.1565520">
        <ele>24.1702880</ele>
        <time>2007-08-01T09:21:30Z</time>
      </trkpt>
      <trkpt lat="51.6136100" lon="6.1576600">
        <ele>24.6510010</ele>
        <time>2007-08-01T09:21:39Z</time>
      </trkpt>
      <trkpt lat="51.6135410" lon="6.1586430">
        <ele>24.1702880</ele>
        <time>2007-08-01T09:21:47Z</time>
      </trkpt>
      <trkpt lat="51.6134640" lon="6.1597380">
        <ele>25.1317140</ele>
        <time>2007-08-01T09:21:56Z</time>
      </trkpt>
      <trkpt lat="51.6133980" lon="6.1606910">
        <ele>24.6510010</ele>
        <time>2007-08-01T09:22:04Z</time>
      </trkpt>
      <trkpt lat="51.6133430" lon="6.1617810">
        <ele>25.1317140</ele>
        <time>2007-08-01T09:22:13Z</time>
      </trkpt>
      <trkpt lat="51.6133470" lon="6.1626520">
        <ele>24.6510010</ele>
        <time>2007-08-01T09:22:20Z</time>
      </trkpt>
      <trkpt lat="51.6134100" lon="6.1636640">
        <ele>23.6895750</ele>
        <time>2007-08-01T09:22:28Z</time>
      </trkpt>
      <trkpt lat="51.6135150" lon="6.1648660">
        <ele>24.6510010</ele>
        <time>2007-08-01T09:22:38Z</time>
      </trkpt>
      <trkpt lat="51.6136250" lon="6.1661140">
        <ele>25.6123050</ele>
        <time>2007-08-01T09:22:49Z</time>
      </trkpt>
      <trkpt lat="51.6136640" lon="6.1669020">
        <ele>26.0928960</ele>
        <time>2007-08-01T09:22:56Z</time>
      </trkpt>
      <trkpt lat="51.6136670" lon="6.1678230">
        <ele>27.0543210</ele>
        <time>2007-08-01T09:23:04Z</time>
      </trkpt>
      <trkpt lat="51.6136130" lon="6.1690920">
        <ele>26.0928960</ele>
        <time>2007-08-01T09:23:15Z</time>
      </trkpt>
      <trkpt lat="51.6135560" lon="6.1703740">
        <ele>26.5736080</ele>
        <time>2007-08-01T09:23:26Z</time>
      </trkpt>
      <trkpt lat="51.6134990" lon="6.1714080">
        <ele>24.6510010</ele>
        <time>2007-08-01T09:23:34Z</time>
      </trkpt>
      <trkpt lat="51.6134370" lon="6.1725850">
        <ele>22.7282710</ele>
        <time>2007-08-01T09:23:43Z</time>
      </trkpt>
      <trkpt lat="51.6133370" lon="6.1734240">
        <ele>21.7669680</ele>
        <time>2007-08-01T09:23:50Z</time>
      </trkpt>
      <trkpt lat="51.6132510" lon="6.1738520">
        <ele>21.2863770</ele>
        <time>2007-08-01T09:23:54Z</time>
      </trkpt>
      <trkpt lat="51.6132010" lon="6.1740160">
        <ele>21.2863770</ele>
        <time>2007-08-01T09:23:56Z</time>
      </trkpt>
      <trkpt lat="51.6130030" lon="6.1741410">
        <ele>20.8056640</ele>
        <time>2007-08-01T09:24:00Z</time>
      </trkpt>
      <trkpt lat="51.6128780" lon="6.1740950">
        <ele>21.2863770</ele>
        <time>2007-08-01T09:24:02Z</time>
      </trkpt>
      <trkpt lat="51.6123470" lon="6.1739110">
        <ele>21.7669680</ele>
        <time>2007-08-01T09:24:10Z</time>
      </trkpt>
      <trkpt lat="51.6118240" lon="6.1737960">
        <ele>22.7282710</ele>
        <time>2007-08-01T09:24:18Z</time>
      </trkpt>
      <trkpt lat="51.6114490" lon="6.1737160">
        <ele>24.6510010</ele>
        <time>2007-08-01T09:24:24Z</time>
      </trkpt>
      <trkpt lat="51.6112650" lon="6.1736680">
        <ele>25.6123050</ele>
        <time>2007-08-01T09:24:27Z</time>
      </trkpt>
      <trkpt lat="51.6110140" lon="6.1735000">
        <ele>25.6123050</ele>
        <time>2007-08-01T09:24:32Z</time>
      </trkpt>
      <trkpt lat="51.6106500" lon="6.1734080">
        <ele>25.6123050</ele>
        <time>2007-08-01T09:24:38Z</time>
      </trkpt>
      <trkpt lat="51.6099910" lon="6.1732700">
        <ele>25.1317140</ele>
        <time>2007-08-01T09:24:48Z</time>
      </trkpt>
      <trkpt lat="51.6093960" lon="6.1730890">
        <ele>25.1317140</ele>
        <time>2007-08-01T09:24:57Z</time>
      </trkpt>
      <trkpt lat="51.6088600" lon="6.1728970">
        <ele>24.6510010</ele>
        <time>2007-08-01T09:25:05Z</time>
      </trkpt>
      <trkpt lat="51.6081370" lon="6.1726070">
        <ele>24.6510010</ele>
        <time>2007-08-01T09:25:16Z</time>
      </trkpt>
      <trkpt lat="51.6076630" lon="6.1724290">
        <ele>25.1317140</ele>
        <time>2007-08-01T09:25:23Z</time>
      </trkpt>
      <trkpt lat="51.6069200" lon="6.1721660">
        <ele>25.1317140</ele>
        <time>2007-08-01T09:25:34Z</time>
      </trkpt>
      <trkpt lat="51.6062850" lon="6.1719660">
        <ele>25.6123050</ele>
        <time>2007-08-01T09:25:43Z</time>
      </trkpt>
      <trkpt lat="51.6056100" lon="6.1718030">
        <ele>26.5736080</ele>
        <time>2007-08-01T09:25:53Z</time>
      </trkpt>
      <trkpt lat="51.6049930" lon="6.1716940">
        <ele>26.5736080</ele>
        <time>2007-08-01T09:26:02Z</time>
      </trkpt>
      <trkpt lat="51.6043700" lon="6.1716330">
        <ele>27.0543210</ele>
        <time>2007-08-01T09:26:11Z</time>
      </trkpt>
      <trkpt lat="51.6038000" lon="6.1716080">
        <ele>27.5349120</ele>
        <time>2007-08-01T09:26:19Z</time>
      </trkpt>
      <trkpt lat="51.6033890" lon="6.1716300">
        <ele>27.5349120</ele>
        <time>2007-08-01T09:26:25Z</time>
      </trkpt>
      <trkpt lat="51.6027530" lon="6.1716910">
        <ele>27.0543210</ele>
        <time>2007-08-01T09:26:34Z</time>
      </trkpt>
      <trkpt lat="51.6018630" lon="6.1718260">
        <ele>26.5736080</ele>
        <time>2007-08-01T09:26:46Z</time>
      </trkpt>
      <trkpt lat="51.6009100" lon="6.1720070">
        <ele>27.0543210</ele>
        <time>2007-08-01T09:26:59Z</time>
      </trkpt>
      <trkpt lat="51.6002000" lon="6.1721440">
        <ele>28.0155030</ele>
        <time>2007-08-01T09:27:09Z</time>
      </trkpt>
      <trkpt lat="51.5995480" lon="6.1722710">
        <ele>28.4962160</ele>
        <time>2007-08-01T09:27:18Z</time>
      </trkpt>
      <trkpt lat="51.5987240" lon="6.1724300">
        <ele>27.0543210</ele>
        <time>2007-08-01T09:27:29Z</time>
      </trkpt>
      <trkpt lat="51.5978900" lon="6.1725700">
        <ele>27.0543210</ele>
        <time>2007-08-01T09:27:40Z</time>
      </trkpt>
      <trkpt lat="51.5974920" lon="6.1726340">
        <ele>26.5736080</ele>
        <time>2007-08-01T09:27:46Z</time>
      </trkpt>
      <trkpt lat="51.5972620" lon="6.1726940">
        <ele>26.5736080</ele>
        <time>2007-08-01T09:27:50Z</time>
      </trkpt>
      <trkpt lat="51.5970220" lon="6.1728390">
        <ele>26.5736080</ele>
        <time>2007-08-01T09:27:55Z</time>
      </trkpt>
      <trkpt lat="51.5965890" lon="6.1730320">
        <ele>27.0543210</ele>
        <time>2007-08-01T09:28:03Z</time>
      </trkpt>
      <trkpt lat="51.5963410" lon="6.1732590">
        <ele>27.0543210</ele>
        <time>2007-08-01T09:28:08Z</time>
      </trkpt>
      <trkpt lat="51.5958330" lon="6.1736240">
        <ele>28.0155030</ele>
        <time>2007-08-01T09:28:17Z</time>
      </trkpt>
      <trkpt lat="51.5951140" lon="6.1740700">
        <ele>28.4962160</ele>
        <time>2007-08-01T09:28:29Z</time>
      </trkpt>
      <trkpt lat="51.5945540" lon="6.1742930">
        <ele>28.9769290</ele>
        <time>2007-08-01T09:28:38Z</time>
      </trkpt>
      <trkpt lat="51.5940180" lon="6.1744150">
        <ele>28.4962160</ele>
        <time>2007-08-01T09:28:46Z</time>
      </trkpt>
      <trkpt lat="51.5933970" lon="6.1744490">
        <ele>27.5349120</ele>
        <time>2007-08-01T09:28:55Z</time>
      </trkpt>
      <trkpt lat="51.5926280" lon="6.1744360">
        <ele>28.0155030</ele>
        <time>2007-08-01T09:29:06Z</time>
      </trkpt>
      <trkpt lat="51.5920040" lon="6.1744440">
        <ele>28.0155030</ele>
        <time>2007-08-01T09:29:15Z</time>
      </trkpt>
      <trkpt lat="51.5914540" lon="6.1744760">
        <ele>27.0543210</ele>
        <time>2007-08-01T09:29:23Z</time>
      </trkpt>
      <trkpt lat="51.5911320" lon="6.1746180">
        <ele>26.5736080</ele>
        <time>2007-08-01T09:29:28Z</time>
      </trkpt>
      <trkpt lat="51.5906730" lon="6.1749530">
        <ele>25.1317140</ele>
        <time>2007-08-01T09:29:35Z</time>
      </trkpt>
      <trkpt lat="51.5900130" lon="6.1754420">
        <ele>26.5736080</ele>
        <time>2007-08-01T09:29:45Z</time>
      </trkpt>
      <trkpt lat="51.5894900" lon="6.1757590">
        <ele>28.0155030</ele>
        <time>2007-08-01T09:29:53Z</time>
      </trkpt>
      <trkpt lat="51.5889600" lon="6.1760600">
        <ele>27.0543210</ele>
        <time>2007-08-01T09:30:01Z</time>
      </trkpt>
      <trkpt lat="51.5883370" lon="6.1764790">
        <ele>27.5349120</ele>
        <time>2007-08-01T09:30:10Z</time>
      </trkpt>
      <trkpt lat="51.5880490" lon="6.1766710">
        <ele>27.0543210</ele>
        <time>2007-08-01T09:30:14Z</time>
      </trkpt>
      <trkpt lat="51.5875110" lon="6.1768670">
        <ele>27.0543210</ele>
        <time>2007-08-01T09:30:21Z</time>
      </trkpt>
      <trkpt lat="51.5869620" lon="6.1768910">
        <ele>27.5349120</ele>
        <time>2007-08-01T09:30:28Z</time>
      </trkpt>
      <trkpt lat="51.5865090" lon="6.1768460">
        <ele>27.5349120</ele>
        <time>2007-08-01T09:30:34Z</time>
      </trkpt>
      <trkpt lat="51.5859020" lon="6.1768380">
        <ele>27.0543210</ele>
        <time>2007-08-01T09:30:42Z</time>
      </trkpt>
      <trkpt lat="51.5851310" lon="6.1769180">
        <ele>27.0543210</ele>
        <time>2007-08-01T09:30:52Z</time>
      </trkpt>
      <trkpt lat="51.5848200" lon="6.1769350">
        <ele>27.0543210</ele>
        <time>2007-08-01T09:30:56Z</time>
      </trkpt>
      <trkpt lat="51.5845230" lon="6.1767930">
        <ele>27.0543210</ele>
        <time>2007-08-01T09:31:00Z</time>
      </trkpt>
      <trkpt lat="51.5840970" lon="6.1765440">
        <ele>27.0543210</ele>
        <time>2007-08-01T09:31:06Z</time>
      </trkpt>
      <trkpt lat="51.5836350" lon="6.1765780">
        <ele>27.0543210</ele>
        <time>2007-08-01T09:31:12Z</time>
      </trkpt>
      <trkpt lat="51.5831820" lon="6.1767850">
        <ele>27.0543210</ele>
        <time>2007-08-01T09:31:18Z</time>
      </trkpt>
      <trkpt lat="51.5827000" lon="6.1771720">
        <ele>27.0543210</ele>
        <time>2007-08-01T09:31:25Z</time>
      </trkpt>
      <trkpt lat="51.5823230" lon="6.1775820">
        <ele>27.0543210</ele>
        <time>2007-08-01T09:31:31Z</time>
      </trkpt>
      <trkpt lat="51.5816400" lon="6.1784510">
        <ele>26.5736080</ele>
        <time>2007-08-01T09:31:42Z</time>
      </trkpt>
      <trkpt lat="51.5807990" lon="6.1795240">
        <ele>24.6510010</ele>
        <time>2007-08-01T09:31:55Z</time>
      </trkpt>
      <trkpt lat="51.5802360" lon="6.1801070">
        <ele>23.6895750</ele>
        <time>2007-08-01T09:32:03Z</time>
      </trkpt>
      <trkpt lat="51.5796880" lon="6.1804850">
        <ele>22.7282710</ele>
        <time>2007-08-01T09:32:10Z</time>
      </trkpt>
      <trkpt lat="51.5790190" lon="6.1807790">
        <ele>22.2475590</ele>
        <time>2007-08-01T09:32:18Z</time>
      </trkpt>
      <trkpt lat="51.5781720" lon="6.1811440">
        <ele>21.7669680</ele>
        <time>2007-08-01T09:32:28Z</time>
      </trkpt>
      <trkpt lat="51.5775420" lon="6.1816090">
        <ele>20.8056640</ele>
        <time>2007-08-01T09:32:36Z</time>
      </trkpt>
      <trkpt lat="51.5769860" lon="6.1822410">
        <ele>20.8056640</ele>
        <time>2007-08-01T09:32:44Z</time>
      </trkpt>
      <trkpt lat="51.5764100" lon="6.1830330">
        <ele>20.8056640</ele>
        <time>2007-08-01T09:32:53Z</time>
      </trkpt>
      <trkpt lat="51.5759310" lon="6.1835480">
        <ele>20.3249510</ele>
        <time>2007-08-01T09:33:00Z</time>
      </trkpt>
      <trkpt lat="51.5751310" lon="6.1841750">
        <ele>19.8443600</ele>
        <time>2007-08-01T09:33:11Z</time>
      </trkpt>
      <trkpt lat="51.5743220" lon="6.1847440">
        <ele>20.3249510</ele>
        <time>2007-08-01T09:33:22Z</time>
      </trkpt>
      <trkpt lat="51.5734550" lon="6.1853390">
        <ele>20.8056640</ele>
        <time>2007-08-01T09:33:34Z</time>
      </trkpt>
      <trkpt lat="51.5731790" lon="6.1853960">
        <ele>21.2863770</ele>
        <time>2007-08-01T09:33:38Z</time>
      </trkpt>
      <trkpt lat="51.5731260" lon="6.1854680">
        <ele>21.7669680</ele>
        <time>2007-08-01T09:33:39Z</time>
      </trkpt>
      <trkpt lat="51.5727670" lon="6.1858870">
        <ele>21.7669680</ele>
        <time>2007-08-01T09:33:45Z</time>
      </trkpt>
      <trkpt lat="51.5720710" lon="6.1864580">
        <ele>20.8056640</ele>
        <time>2007-08-01T09:33:55Z</time>
      </trkpt>
      <trkpt lat="51.5713650" lon="6.1870380">
        <ele>20.3249510</ele>
        <time>2007-08-01T09:34:05Z</time>
      </trkpt>
      <trkpt lat="51.5712930" lon="6.1870890">
        <ele>20.3249510</ele>
        <time>2007-08-01T09:34:06Z</time>
      </trkpt>
      <trkpt lat="51.5707830" lon="6.1874180">
        <ele>20.3249510</ele>
        <time>2007-08-01T09:34:13Z</time>
      </trkpt>
      <trkpt lat="51.5699260" lon="6.1880940">
        <ele>20.8056640</ele>
        <time>2007-08-01T09:34:25Z</time>
      </trkpt>
      <trkpt lat="51.5692130" lon="6.1886470">
        <ele>21.2863770</ele>
        <time>2007-08-01T09:34:35Z</time>
      </trkpt>
      <trkpt lat="51.5685780" lon="6.1891180">
        <ele>20.8056640</ele>
        <time>2007-08-01T09:34:44Z</time>
      </trkpt>
      <trkpt lat="51.5676600" lon="6.1897850">
        <ele>20.8056640</ele>
        <time>2007-08-01T09:34:57Z</time>
      </trkpt>
      <trkpt lat="51.5669570" lon="6.1902860">
        <ele>20.8056640</ele>
        <time>2007-08-01T09:35:07Z</time>
      </trkpt>
      <trkpt lat="51.5661220" lon="6.1908820">
        <ele>21.2863770</ele>
        <time>2007-08-01T09:35:19Z</time>
      </trkpt>
      <trkpt lat="51.5653730" lon="6.1914360">
        <ele>21.2863770</ele>
        <time>2007-08-01T09:35:30Z</time>
      </trkpt>
      <trkpt lat="51.5648760" lon="6.1918960">
        <ele>22.2475590</ele>
        <time>2007-08-01T09:35:38Z</time>
      </trkpt>
      <trkpt lat="51.5644980" lon="6.1923910">
        <ele>23.2089840</ele>
        <time>2007-08-01T09:35:45Z</time>
      </trkpt>
      <trkpt lat="51.5642720" lon="6.1927820">
        <ele>23.6895750</ele>
        <time>2007-08-01T09:35:50Z</time>
      </trkpt>
      <trkpt lat="51.5638470" lon="6.1937010">
        <ele>25.6123050</ele>
        <time>2007-08-01T09:36:00Z</time>
      </trkpt>
      <trkpt lat="51.5636490" lon="6.1941720">
        <ele>25.6123050</ele>
        <time>2007-08-01T09:36:05Z</time>
      </trkpt>
      <trkpt lat="51.5632370" lon="6.1951270">
        <ele>25.6123050</ele>
        <time>2007-08-01T09:36:15Z</time>
      </trkpt>
      <trkpt lat="51.5628620" lon="6.1960050">
        <ele>25.6123050</ele>
        <time>2007-08-01T09:36:24Z</time>
      </trkpt>
      <trkpt lat="51.5624360" lon="6.1969960">
        <ele>26.0928960</ele>
        <time>2007-08-01T09:36:34Z</time>
      </trkpt>
      <trkpt lat="51.5619620" lon="6.1981000">
        <ele>26.0928960</ele>
        <time>2007-08-01T09:36:45Z</time>
      </trkpt>
      <trkpt lat="51.5617080" lon="6.1986910">
        <ele>26.0928960</ele>
        <time>2007-08-01T09:36:51Z</time>
      </trkpt>
      <trkpt lat="51.5613180" lon="6.1995860">
        <ele>25.1317140</ele>
        <time>2007-08-01T09:37:00Z</time>
      </trkpt>
      <trkpt lat="51.5609170" lon="6.2004760">
        <ele>25.1317140</ele>
        <time>2007-08-01T09:37:09Z</time>
      </trkpt>
      <trkpt lat="51.5604240" lon="6.2014380">
        <ele>24.6510010</ele>
        <time>2007-08-01T09:37:19Z</time>
      </trkpt>
      <trkpt lat="51.5602220" lon="6.2018010">
        <ele>23.6895750</ele>
        <time>2007-08-01T09:37:23Z</time>
      </trkpt>
      <trkpt lat="51.5599630" lon="6.2022120">
        <ele>24.6510010</ele>
        <time>2007-08-01T09:37:28Z</time>
      </trkpt>
      <trkpt lat="51.5597540" lon="6.2026650">
        <ele>25.6123050</ele>
        <time>2007-08-01T09:37:33Z</time>
      </trkpt>
      <trkpt lat="51.5593640" lon="6.2032920">
        <ele>26.0928960</ele>
        <time>2007-08-01T09:37:41Z</time>
      </trkpt>
      <trkpt lat="51.5589020" lon="6.2038850">
        <ele>27.5349120</ele>
        <time>2007-08-01T09:37:50Z</time>
      </trkpt>
      <trkpt lat="51.5583670" lon="6.2045910">
        <ele>28.4962160</ele>
        <time>2007-08-01T09:38:00Z</time>
      </trkpt>
      <trkpt lat="51.5578500" lon="6.2053720">
        <ele>28.0155030</ele>
        <time>2007-08-01T09:38:10Z</time>
      </trkpt>
      <trkpt lat="51.5574360" lon="6.2061160">
        <ele>28.0155030</ele>
        <time>2007-08-01T09:38:19Z</time>
      </trkpt>
      <trkpt lat="51.5571370" lon="6.2067520">
        <ele>28.4962160</ele>
        <time>2007-08-01T09:38:26Z</time>
      </trkpt>
      <trkpt lat="51.5569020" lon="6.2072990">
        <ele>28.9769290</ele>
        <time>2007-08-01T09:38:33Z</time>
      </trkpt>
      <trkpt lat="51.5568230" lon="6.2074790">
        <ele>28.4962160</ele>
        <time>2007-08-01T09:38:37Z</time>
      </trkpt>
      <trkpt lat="51.5567820" lon="6.2075320">
        <ele>28.9769290</ele>
        <time>2007-08-01T09:38:39Z</time>
      </trkpt>
      <trkpt lat="51.5567250" lon="6.2077320">
        <ele>28.4962160</ele>
        <time>2007-08-01T09:38:44Z</time>
      </trkpt>
      <trkpt lat="51.5565970" lon="6.2080330">
        <ele>28.9769290</ele>
        <time>2007-08-01T09:38:51Z</time>
      </trkpt>
      <trkpt lat="51.5564740" lon="6.2083290">
        <ele>28.4962160</ele>
        <time>2007-08-01T09:38:58Z</time>
      </trkpt>
      <trkpt lat="51.5563520" lon="6.2085990">
        <ele>28.4962160</ele>
        <time>2007-08-01T09:39:05Z</time>
      </trkpt>
      <trkpt lat="51.5562430" lon="6.2088280">
        <ele>28.4962160</ele>
        <time>2007-08-01T09:39:10Z</time>
      </trkpt>
      <trkpt lat="51.5560630" lon="6.2091180">
        <ele>28.4962160</ele>
        <time>2007-08-01T09:39:16Z</time>
      </trkpt>
      <trkpt lat="51.5558320" lon="6.2094700">
        <ele>28.0155030</ele>
        <time>2007-08-01T09:39:23Z</time>
      </trkpt>
      <trkpt lat="51.5556170" lon="6.2099200">
        <ele>27.5349120</ele>
        <time>2007-08-01T09:39:30Z</time>
      </trkpt>
      <trkpt lat="51.5553530" lon="6.2103290">
        <ele>27.0543210</ele>
        <time>2007-08-01T09:39:36Z</time>
      </trkpt>
      <trkpt lat="51.5550390" lon="6.2107110">
        <ele>27.0543210</ele>
        <time>2007-08-01T09:39:42Z</time>
      </trkpt>
      <trkpt lat="51.5547570" lon="6.2111620">
        <ele>27.5349120</ele>
        <time>2007-08-01T09:39:48Z</time>
      </trkpt>
      <trkpt lat="51.5545170" lon="6.2116600">
        <ele>27.5349120</ele>
        <time>2007-08-01T09:39:54Z</time>
      </trkpt>
      <trkpt lat="51.5541830" lon="6.2123120">
        <ele>28.0155030</ele>
        <time>2007-08-01T09:40:02Z</time>
      </trkpt>
      <trkpt lat="51.5538500" lon="6.2129280">
        <ele>28.0155030</ele>
        <time>2007-08-01T09:40:10Z</time>
      </trkpt>
      <trkpt lat="51.5535350" lon="6.2134660">
        <ele>28.0155030</ele>
        <time>2007-08-01T09:40:17Z</time>
      </trkpt>
      <trkpt lat="51.5531280" lon="6.2140970">
        <ele>27.0543210</ele>
        <time>2007-08-01T09:40:25Z</time>
      </trkpt>
      <trkpt lat="51.5529130" lon="6.2147300">
        <ele>25.6123050</ele>
        <time>2007-08-01T09:40:31Z</time>
      </trkpt>
      <trkpt lat="51.5527690" lon="6.2151550">
        <ele>24.6510010</ele>
        <time>2007-08-01T09:40:35Z</time>
      </trkpt>
      <trkpt lat="51.5527360" lon="6.2152670">
        <ele>25.1317140</ele>
        <time>2007-08-01T09:40:36Z</time>
      </trkpt>
      <trkpt lat="51.5525080" lon="6.2161310">
        <ele>25.6123050</ele>
        <time>2007-08-01T09:40:44Z</time>
      </trkpt>
      <trkpt lat="51.5523530" lon="6.2166720">
        <ele>24.6510010</ele>
        <time>2007-08-01T09:40:49Z</time>
      </trkpt>
      <trkpt lat="51.5521050" lon="6.2171940">
        <ele>24.6510010</ele>
        <time>2007-08-01T09:40:54Z</time>
      </trkpt>
      <trkpt lat="51.5518030" lon="6.2176070">
        <ele>23.2089840</ele>
        <time>2007-08-01T09:40:59Z</time>
      </trkpt>
      <trkpt lat="51.5513540" lon="6.2181020">
        <ele>22.7282710</ele>
        <time>2007-08-01T09:41:06Z</time>
      </trkpt>
      <trkpt lat="51.5508880" lon="6.2185750">
        <ele>23.6895750</ele>
        <time>2007-08-01T09:41:13Z</time>
      </trkpt>
      <trkpt lat="51.5504150" lon="6.2190500">
        <ele>22.7282710</ele>
        <time>2007-08-01T09:41:20Z</time>
      </trkpt>
      <trkpt lat="51.5498870" lon="6.2195680">
        <ele>22.2475590</ele>
        <time>2007-08-01T09:41:28Z</time>
      </trkpt>
      <trkpt lat="51.5493840" lon="6.2201420">
        <ele>23.2089840</ele>
        <time>2007-08-01T09:41:36Z</time>
      </trkpt>
      <trkpt lat="51.5488760" lon="6.2209290">
        <ele>22.7282710</ele>
        <time>2007-08-01T09:41:45Z</time>
      </trkpt>
      <trkpt lat="51.5483640" lon="6.2217210">
        <ele>22.2475590</ele>
        <time>2007-08-01T09:41:54Z</time>
      </trkpt>
      <trkpt lat="51.5477300" lon="6.2226460">
        <ele>22.2475590</ele>
        <time>2007-08-01T09:42:05Z</time>
      </trkpt>
      <trkpt lat="51.5472980" lon="6.2233610">
        <ele>22.2475590</ele>
        <time>2007-08-01T09:42:13Z</time>
      </trkpt>
      <trkpt lat="51.5470460" lon="6.2239770">
        <ele>22.2475590</ele>
        <time>2007-08-01T09:42:19Z</time>
      </trkpt>
      <trkpt lat="51.5468630" lon="6.2246730">
        <ele>22.2475590</ele>
        <time>2007-08-01T09:42:25Z</time>
      </trkpt>
      <trkpt lat="51.5467400" lon="6.2255460">
        <ele>22.2475590</ele>
        <time>2007-08-01T09:42:32Z</time>
      </trkpt>
      <trkpt lat="51.5467280" lon="6.2264400">
        <ele>22.2475590</ele>
        <time>2007-08-01T09:42:39Z</time>
      </trkpt>
      <trkpt lat="51.5468080" lon="6.2271940">
        <ele>22.2475590</ele>
        <time>2007-08-01T09:42:45Z</time>
      </trkpt>
      <trkpt lat="51.5470080" lon="6.2280250">
        <ele>21.7669680</ele>
        <time>2007-08-01T09:42:52Z</time>
      </trkpt>
      <trkpt lat="51.5473370" lon="6.2290830">
        <ele>21.7669680</ele>
        <time>2007-08-01T09:43:01Z</time>
      </trkpt>
      <trkpt lat="51.5476720" lon="6.2301460">
        <ele>21.7669680</ele>
        <time>2007-08-01T09:43:10Z</time>
      </trkpt>
      <trkpt lat="51.5480680" lon="6.2314430">
        <ele>22.2475590</ele>
        <time>2007-08-01T09:43:21Z</time>
      </trkpt>
      <trkpt lat="51.5483610" lon="6.2323930">
        <ele>22.2475590</ele>
        <time>2007-08-01T09:43:29Z</time>
      </trkpt>
      <trkpt lat="51.5486860" lon="6.2334670">
        <ele>22.7282710</ele>
        <time>2007-08-01T09:43:38Z</time>
      </trkpt>
      <trkpt lat="51.5491260" lon="6.2349100">
        <ele>22.7282710</ele>
        <time>2007-08-01T09:43:50Z</time>
      </trkpt>
      <trkpt lat="51.5494900" lon="6.2361030">
        <ele>22.2475590</ele>
        <time>2007-08-01T09:44:00Z</time>
      </trkpt>
      <trkpt lat="51.5499260" lon="6.2375350">
        <ele>22.2475590</ele>
        <time>2007-08-01T09:44:12Z</time>
      </trkpt>
      <trkpt lat="51.5503350" lon="6.2387910">
        <ele>23.2089840</ele>
        <time>2007-08-01T09:44:23Z</time>
      </trkpt>
      <trkpt lat="51.5506620" lon="6.2395080">
        <ele>23.2089840</ele>
        <time>2007-08-01T09:44:30Z</time>
      </trkpt>
      <trkpt lat="51.5510920" lon="6.2403000">
        <ele>22.2475590</ele>
        <time>2007-08-01T09:44:38Z</time>
      </trkpt>
      <trkpt lat="51.5517520" lon="6.2415100">
        <ele>22.2475590</ele>
        <time>2007-08-01T09:44:50Z</time>
      </trkpt>
      <trkpt lat="51.5521850" lon="6.2423030">
        <ele>22.2475590</ele>
        <time>2007-08-01T09:44:58Z</time>
      </trkpt>
      <trkpt lat="51.5527300" lon="6.2433000">
        <ele>22.2475590</ele>
        <time>2007-08-01T09:45:08Z</time>
      </trkpt>
      <trkpt lat="51.5531350" lon="6.2440480">
        <ele>22.7282710</ele>
        <time>2007-08-01T09:45:16Z</time>
      </trkpt>
      <trkpt lat="51.5534970" lon="6.2447320">
        <ele>22.7282710</ele>
        <time>2007-08-01T09:45:24Z</time>
      </trkpt>
      <trkpt lat="51.5535760" lon="6.2448920">
        <ele>22.7282710</ele>
        <time>2007-08-01T09:45:26Z</time>
      </trkpt>
      <trkpt lat="51.5536770" lon="6.2451720">
        <ele>23.2089840</ele>
        <time>2007-08-01T09:45:30Z</time>
      </trkpt>
      <trkpt lat="51.5537030" lon="6.2452310">
        <ele>22.7282710</ele>
        <time>2007-08-01T09:45:31Z</time>
      </trkpt>
      <trkpt lat="51.5539500" lon="6.2456430">
        <ele>22.2475590</ele>
        <time>2007-08-01T09:45:37Z</time>
      </trkpt>
      <trkpt lat="51.5542420" lon="6.2461450">
        <ele>22.2475590</ele>
        <time>2007-08-01T09:45:43Z</time>
      </trkpt>
      <trkpt lat="51.5544660" lon="6.2466140">
        <ele>22.2475590</ele>
        <time>2007-08-01T09:45:48Z</time>
      </trkpt>
      <trkpt lat="51.5548580" lon="6.2473110">
        <ele>22.2475590</ele>
        <time>2007-08-01T09:45:56Z</time>
      </trkpt>
      <trkpt lat="51.5553220" lon="6.2481640">
        <ele>22.2475590</ele>
        <time>2007-08-01T09:46:06Z</time>
      </trkpt>
      <trkpt lat="51.5558700" lon="6.2491800">
        <ele>21.7669680</ele>
        <time>2007-08-01T09:46:18Z</time>
      </trkpt>
      <trkpt lat="51.5563370" lon="6.2500510">
        <ele>21.7669680</ele>
        <time>2007-08-01T09:46:28Z</time>
      </trkpt>
      <trkpt lat="51.5569850" lon="6.2512700">
        <ele>22.2475590</ele>
        <time>2007-08-01T09:46:42Z</time>
      </trkpt>
      <trkpt lat="51.5574120" lon="6.2520730">
        <ele>22.2475590</ele>
        <time>2007-08-01T09:46:51Z</time>
      </trkpt>
      <trkpt lat="51.5580450" lon="6.2532560">
        <ele>22.2475590</ele>
        <time>2007-08-01T09:47:04Z</time>
      </trkpt>
      <trkpt lat="51.5585190" lon="6.2541930">
        <ele>21.7669680</ele>
        <time>2007-08-01T09:47:14Z</time>
      </trkpt>
      <trkpt lat="51.5587830" lon="6.2549010">
        <ele>22.2475590</ele>
        <time>2007-08-01T09:47:21Z</time>
      </trkpt>
      <trkpt lat="51.5590360" lon="6.2558090">
        <ele>21.7669680</ele>
        <time>2007-08-01T09:47:29Z</time>
      </trkpt>
      <trkpt lat="51.5592720" lon="6.2567220">
        <ele>22.2475590</ele>
        <time>2007-08-01T09:47:37Z</time>
      </trkpt>
      <trkpt lat="51.5595360" lon="6.2577450">
        <ele>22.7282710</ele>
        <time>2007-08-01T09:47:46Z</time>
      </trkpt>
      <trkpt lat="51.5599480" lon="6.2593490">
        <ele>22.2475590</ele>
        <time>2007-08-01T09:48:00Z</time>
      </trkpt>
      <trkpt lat="51.5603360" lon="6.2608590">
        <ele>21.7669680</ele>
        <time>2007-08-01T09:48:13Z</time>
      </trkpt>
      <trkpt lat="51.5607180" lon="6.2623420">
        <ele>22.2475590</ele>
        <time>2007-08-01T09:48:26Z</time>
      </trkpt>
      <trkpt lat="51.5609950" lon="6.2634810">
        <ele>21.7669680</ele>
        <time>2007-08-01T09:48:36Z</time>
      </trkpt>
      <trkpt lat="51.5611790" lon="6.2643000">
        <ele>22.2475590</ele>
        <time>2007-08-01T09:48:44Z</time>
      </trkpt>
      <trkpt lat="51.5611980" lon="6.2643920">
        <ele>22.7282710</ele>
        <time>2007-08-01T09:48:45Z</time>
      </trkpt>
      <trkpt lat="51.5612310" lon="6.2646480">
        <ele>22.2475590</ele>
        <time>2007-08-01T09:48:49Z</time>
      </trkpt>
      <trkpt lat="51.5612610" lon="6.2646930">
        <ele>22.7282710</ele>
        <time>2007-08-01T09:48:53Z</time>
      </trkpt>
      <trkpt lat="51.5612480" lon="6.2646660">
        <ele>23.2089840</ele>
        <time>2007-08-01T09:49:23Z</time>
      </trkpt>
      <trkpt lat="51.5612350" lon="6.2646940">
        <ele>22.7282710</ele>
        <time>2007-08-01T09:49:24Z</time>
      </trkpt>
      <trkpt lat="51.5612650" lon="6.2647540">
        <ele>22.7282710</ele>
        <time>2007-08-01T09:49:29Z</time>
      </trkpt>
      <trkpt lat="51.5612710" lon="6.2647560">
        <ele>22.7282710</ele>
        <time>2007-08-01T09:49:31Z</time>
      </trkpt>
      <trkpt lat="51.5612780" lon="6.2647620">
        <ele>23.2089840</ele>
        <time>2007-08-01T09:49:36Z</time>
      </trkpt>
      <trkpt lat="51.5612890" lon="6.2647780">
        <ele>23.2089840</ele>
        <time>2007-08-01T09:49:37Z</time>
      </trkpt>
      <trkpt lat="51.5613220" lon="6.2648360">
        <ele>22.7282710</ele>
        <time>2007-08-01T09:49:38Z</time>
      </trkpt>
      <trkpt lat="51.5613710" lon="6.2649420">
        <ele>22.2475590</ele>
        <time>2007-08-01T09:49:40Z</time>
      </trkpt>
      <trkpt lat="51.5614990" lon="6.2654920">
        <ele>21.7669680</ele>
        <time>2007-08-01T09:49:46Z</time>
      </trkpt>
      <trkpt lat="51.5616570" lon="6.2661630">
        <ele>22.2475590</ele>
        <time>2007-08-01T09:49:52Z</time>
      </trkpt>
      <trkpt lat="51.5618760" lon="6.2672570">
        <ele>22.2475590</ele>
        <time>2007-08-01T09:50:01Z</time>
      </trkpt>
      <trkpt lat="51.5620380" lon="6.2682300">
        <ele>21.7669680</ele>
        <time>2007-08-01T09:50:09Z</time>
      </trkpt>
      <trkpt lat="51.5622770" lon="6.2696670">
        <ele>22.7282710</ele>
        <time>2007-08-01T09:50:21Z</time>
      </trkpt>
      <trkpt lat="51.5623170" lon="6.2700430">
        <ele>22.7282710</ele>
        <time>2007-08-01T09:50:24Z</time>
      </trkpt>
      <trkpt lat="51.5622600" lon="6.2707890">
        <ele>22.2475590</ele>
        <time>2007-08-01T09:50:30Z</time>
      </trkpt>
      <trkpt lat="51.5621620" lon="6.2719200">
        <ele>22.2475590</ele>
        <time>2007-08-01T09:50:39Z</time>
      </trkpt>
      <trkpt lat="51.5622240" lon="6.2726520">
        <ele>22.7282710</ele>
        <time>2007-08-01T09:50:45Z</time>
      </trkpt>
      <trkpt lat="51.5623410" lon="6.2734920">
        <ele>22.7282710</ele>
        <time>2007-08-01T09:50:52Z</time>
      </trkpt>
      <trkpt lat="51.5625390" lon="6.2743230">
        <ele>23.2089840</ele>
        <time>2007-08-01T09:50:59Z</time>
      </trkpt>
      <trkpt lat="51.5628180" lon="6.2752390">
        <ele>22.7282710</ele>
        <time>2007-08-01T09:51:07Z</time>
      </trkpt>
      <trkpt lat="51.5630220" lon="6.2758810">
        <ele>22.7282710</ele>
        <time>2007-08-01T09:51:13Z</time>
      </trkpt>
      <trkpt lat="51.5633920" lon="6.2770770">
        <ele>22.2475590</ele>
        <time>2007-08-01T09:51:24Z</time>
      </trkpt>
      <trkpt lat="51.5637590" lon="6.2782370">
        <ele>22.2475590</ele>
        <time>2007-08-01T09:51:34Z</time>
      </trkpt>
      <trkpt lat="51.5641370" lon="6.2792480">
        <ele>22.7282710</ele>
        <time>2007-08-01T09:51:43Z</time>
      </trkpt>
      <trkpt lat="51.5644480" lon="6.2796540">
        <ele>22.2475590</ele>
        <time>2007-08-01T09:51:48Z</time>
      </trkpt>
      <trkpt lat="51.5646700" lon="6.2798280">
        <ele>22.2475590</ele>
        <time>2007-08-01T09:51:51Z</time>
      </trkpt>
      <trkpt lat="51.5649880" lon="6.2799400">
        <ele>22.2475590</ele>
        <time>2007-08-01T09:51:55Z</time>
      </trkpt>
      <trkpt lat="51.5655730" lon="6.2799840">
        <ele>22.2475590</ele>
        <time>2007-08-01T09:52:02Z</time>
      </trkpt>
      <trkpt lat="51.5664100" lon="6.2800330">
        <ele>22.2475590</ele>
        <time>2007-08-01T09:52:12Z</time>
      </trkpt>
      <trkpt lat="51.5667470" lon="6.2800740">
        <ele>21.7669680</ele>
        <time>2007-08-01T09:52:16Z</time>
      </trkpt>
      <trkpt lat="51.5671220" lon="6.2803460">
        <ele>21.7669680</ele>
        <time>2007-08-01T09:52:21Z</time>
      </trkpt>
      <trkpt lat="51.5673400" lon="6.2807500">
        <ele>21.2863770</ele>
        <time>2007-08-01T09:52:25Z</time>
      </trkpt>
      <trkpt lat="51.5674200" lon="6.2809830">
        <ele>22.2475590</ele>
        <time>2007-08-01T09:52:27Z</time>
      </trkpt>
      <trkpt lat="51.5675790" lon="6.2818680">
        <ele>22.2475590</ele>
        <time>2007-08-01T09:52:34Z</time>
      </trkpt>
      <trkpt lat="51.5676910" lon="6.2831270">
        <ele>22.7282710</ele>
        <time>2007-08-01T09:52:44Z</time>
      </trkpt>
      <trkpt lat="51.5678870" lon="6.2843980">
        <ele>22.2475590</ele>
        <time>2007-08-01T09:52:54Z</time>
      </trkpt>
      <trkpt lat="51.5679690" lon="6.2850370">
        <ele>22.2475590</ele>
        <time>2007-08-01T09:52:59Z</time>
      </trkpt>
      <trkpt lat="51.5681650" lon="6.2858910">
        <ele>21.7669680</ele>
        <time>2007-08-01T09:53:06Z</time>
      </trkpt>
      <trkpt lat="51.5683640" lon="6.2867160">
        <ele>22.7282710</ele>
        <time>2007-08-01T09:53:13Z</time>
      </trkpt>
      <trkpt lat="51.5686000" lon="6.2876460">
        <ele>21.7669680</ele>
        <time>2007-08-01T09:53:21Z</time>
      </trkpt>
      <trkpt lat="51.5688490" lon="6.2885970">
        <ele>21.7669680</ele>
        <time>2007-08-01T09:53:29Z</time>
      </trkpt>
      <trkpt lat="51.5688830" lon="6.2887120">
        <ele>21.7669680</ele>
        <time>2007-08-01T09:53:30Z</time>
      </trkpt>
      <trkpt lat="51.5692100" lon="6.2900220">
        <ele>21.7669680</ele>
        <time>2007-08-01T09:53:41Z</time>
      </trkpt>
      <trkpt lat="51.5692300" lon="6.2901480">
        <ele>21.7669680</ele>
        <time>2007-08-01T09:53:42Z</time>
      </trkpt>
      <trkpt lat="51.5694110" lon="6.2911160">
        <ele>22.2475590</ele>
        <time>2007-08-01T09:53:50Z</time>
      </trkpt>
      <trkpt lat="51.5694880" lon="6.2918750">
        <ele>22.7282710</ele>
        <time>2007-08-01T09:53:56Z</time>
      </trkpt>
      <trkpt lat="51.5695000" lon="6.2921340">
        <ele>21.2863770</ele>
        <time>2007-08-01T09:53:58Z</time>
      </trkpt>
      <trkpt lat="51.5694660" lon="6.2930600">
        <ele>21.2863770</ele>
        <time>2007-08-01T09:54:05Z</time>
      </trkpt>
      <trkpt lat="51.5694640" lon="6.2942250">
        <ele>22.7282710</ele>
        <time>2007-08-01T09:54:14Z</time>
      </trkpt>
      <trkpt lat="51.5694350" lon="6.2946010">
        <ele>22.2475590</ele>
        <time>2007-08-01T09:54:17Z</time>
      </trkpt>
      <trkpt lat="51.5694230" lon="6.2953110">
        <ele>23.2089840</ele>
        <time>2007-08-01T09:54:23Z</time>
      </trkpt>
      <trkpt lat="51.5693980" lon="6.2957350">
        <ele>23.6895750</ele>
        <time>2007-08-01T09:54:27Z</time>
      </trkpt>
      <trkpt lat="51.5692780" lon="6.2960580">
        <ele>23.2089840</ele>
        <time>2007-08-01T09:54:31Z</time>
      </trkpt>
      <trkpt lat="51.5691550" lon="6.2961310">
        <ele>22.7282710</ele>
        <time>2007-08-01T09:54:33Z</time>
      </trkpt>
      <trkpt lat="51.5686870" lon="6.2963900">
        <ele>22.2475590</ele>
        <time>2007-08-01T09:54:40Z</time>
      </trkpt>
      <trkpt lat="51.5682460" lon="6.2967410">
        <ele>22.7282710</ele>
        <time>2007-08-01T09:54:46Z</time>
      </trkpt>
      <trkpt lat="51.5678640" lon="6.2971960">
        <ele>22.7282710</ele>
        <time>2007-08-01T09:54:52Z</time>
      </trkpt>
      <trkpt lat="51.5674240" lon="6.2977180">
        <ele>22.2475590</ele>
        <time>2007-08-01T09:54:59Z</time>
      </trkpt>
      <trkpt lat="51.5669620" lon="6.2981580">
        <ele>23.2089840</ele>
        <time>2007-08-01T09:55:06Z</time>
      </trkpt>
      <trkpt lat="51.5666850" lon="6.2986040">
        <ele>23.2089840</ele>
        <time>2007-08-01T09:55:11Z</time>
      </trkpt>
      <trkpt lat="51.5663130" lon="6.2992430">
        <ele>23.2089840</ele>
        <time>2007-08-01T09:55:18Z</time>
      </trkpt>
      <trkpt lat="51.5661870" lon="6.2996890">
        <ele>23.2089840</ele>
        <time>2007-08-01T09:55:22Z</time>
      </trkpt>
      <trkpt lat="51.5662030" lon="6.2999380">
        <ele>23.2089840</ele>
        <time>2007-08-01T09:55:24Z</time>
      </trkpt>
      <trkpt lat="51.5662760" lon="6.3005910">
        <ele>22.7282710</ele>
        <time>2007-08-01T09:55:29Z</time>
      </trkpt>
      <trkpt lat="51.5662140" lon="6.3012530">
        <ele>22.7282710</ele>
        <time>2007-08-01T09:55:34Z</time>
      </trkpt>
      <trkpt lat="51.5661800" lon="6.3013760">
        <ele>22.7282710</ele>
        <time>2007-08-01T09:55:35Z</time>
      </trkpt>
      <trkpt lat="51.5658090" lon="6.3025330">
        <ele>23.2089840</ele>
        <time>2007-08-01T09:55:45Z</time>
      </trkpt>
      <trkpt lat="51.5655380" lon="6.3036020">
        <ele>23.2089840</ele>
        <time>2007-08-01T09:55:54Z</time>
      </trkpt>
      <trkpt lat="51.5653550" lon="6.3045540">
        <ele>23.2089840</ele>
        <time>2007-08-01T09:56:02Z</time>
      </trkpt>
      <trkpt lat="51.5652540" lon="6.3055490">
        <ele>23.6895750</ele>
        <time>2007-08-01T09:56:10Z</time>
      </trkpt>
      <trkpt lat="51.5653490" lon="6.3063010">
        <ele>23.6895750</ele>
        <time>2007-08-01T09:56:16Z</time>
      </trkpt>
      <trkpt lat="51.5655570" lon="6.3074330">
        <ele>23.2089840</ele>
        <time>2007-08-01T09:56:25Z</time>
      </trkpt>
      <trkpt lat="51.5655710" lon="6.3075600">
        <ele>23.2089840</ele>
        <time>2007-08-01T09:56:26Z</time>
      </trkpt>
      <trkpt lat="51.5655400" lon="6.3081930">
        <ele>24.1702880</ele>
        <time>2007-08-01T09:56:31Z</time>
      </trkpt>
      <trkpt lat="51.5653940" lon="6.3095860">
        <ele>23.6895750</ele>
        <time>2007-08-01T09:56:42Z</time>
      </trkpt>
      <trkpt lat="51.5652690" lon="6.3108550">
        <ele>24.1702880</ele>
        <time>2007-08-01T09:56:52Z</time>
      </trkpt>
      <trkpt lat="51.5651380" lon="6.3118510">
        <ele>24.1702880</ele>
        <time>2007-08-01T09:57:00Z</time>
      </trkpt>
      <trkpt lat="51.5649880" lon="6.3128530">
        <ele>23.6895750</ele>
        <time>2007-08-01T09:57:08Z</time>
      </trkpt>
      <trkpt lat="51.5648390" lon="6.3138720">
        <ele>23.6895750</ele>
        <time>2007-08-01T09:57:16Z</time>
      </trkpt>
      <trkpt lat="51.5647800" lon="6.3146700">
        <ele>23.2089840</ele>
        <time>2007-08-01T09:57:22Z</time>
      </trkpt>
      <trkpt lat="51.5647500" lon="6.3154690">
        <ele>22.7282710</ele>
        <time>2007-08-01T09:57:28Z</time>
      </trkpt>
      <trkpt lat="51.5646680" lon="6.3166410">
        <ele>22.2475590</ele>
        <time>2007-08-01T09:57:37Z</time>
      </trkpt>
      <trkpt lat="51.5645670" lon="6.3175390">
        <ele>22.2475590</ele>
        <time>2007-08-01T09:57:44Z</time>
      </trkpt>
      <trkpt lat="51.5645510" lon="6.3177850">
        <ele>22.7282710</ele>
        <time>2007-08-01T09:57:46Z</time>
      </trkpt>
      <trkpt lat="51.5646170" lon="6.3185230">
        <ele>23.6895750</ele>
        <time>2007-08-01T09:57:52Z</time>
      </trkpt>
      <trkpt lat="51.5647650" lon="6.3195270">
        <ele>23.6895750</ele>
        <time>2007-08-01T09:58:00Z</time>
      </trkpt>
      <trkpt lat="51.5649990" lon="6.3207230">
        <ele>24.6510010</ele>
        <time>2007-08-01T09:58:10Z</time>
      </trkpt>
      <trkpt lat="51.5651650" lon="6.3215770">
        <ele>24.6510010</ele>
        <time>2007-08-01T09:58:17Z</time>
      </trkpt>
      <trkpt lat="51.5654310" lon="6.3229680">
        <ele>25.1317140</ele>
        <time>2007-08-01T09:58:28Z</time>
      </trkpt>
      <trkpt lat="51.5656660" lon="6.3238260">
        <ele>24.1702880</ele>
        <time>2007-08-01T09:58:35Z</time>
      </trkpt>
      <trkpt lat="51.5659890" lon="6.3246570">
        <ele>23.6895750</ele>
        <time>2007-08-01T09:58:42Z</time>
      </trkpt>
      <trkpt lat="51.5660830" lon="6.3249100">
        <ele>22.7282710</ele>
        <time>2007-08-01T09:58:44Z</time>
      </trkpt>
      <trkpt lat="51.5661490" lon="6.3251800">
        <ele>21.7669680</ele>
        <time>2007-08-01T09:58:46Z</time>
      </trkpt>
      <trkpt lat="51.5662510" lon="6.3260120">
        <ele>22.2475590</ele>
        <time>2007-08-01T09:58:52Z</time>
      </trkpt>
      <trkpt lat="51.5662830" lon="6.3265570">
        <ele>23.2089840</ele>
        <time>2007-08-01T09:58:56Z</time>
      </trkpt>
      <trkpt lat="51.5662420" lon="6.3270960">
        <ele>22.7282710</ele>
        <time>2007-08-01T09:59:00Z</time>
      </trkpt>
      <trkpt lat="51.5659980" lon="6.3280990">
        <ele>23.6895750</ele>
        <time>2007-08-01T09:59:08Z</time>
      </trkpt>
      <trkpt lat="51.5657110" lon="6.3293790">
        <ele>23.6895750</ele>
        <time>2007-08-01T09:59:18Z</time>
      </trkpt>
      <trkpt lat="51.5654620" lon="6.3306640">
        <ele>23.6895750</ele>
        <time>2007-08-01T09:59:28Z</time>
      </trkpt>
      <trkpt lat="51.5654100" lon="6.3309140">
        <ele>23.6895750</ele>
        <time>2007-08-01T09:59:30Z</time>
      </trkpt>
      <trkpt lat="51.5653360" lon="6.3311390">
        <ele>23.2089840</ele>
        <time>2007-08-01T09:59:32Z</time>
      </trkpt>
      <trkpt lat="51.5652440" lon="6.3313560">
        <ele>23.2089840</ele>
        <time>2007-08-01T09:59:34Z</time>
      </trkpt>
      <trkpt lat="51.5648510" lon="6.3320050">
        <ele>23.6895750</ele>
        <time>2007-08-01T09:59:41Z</time>
      </trkpt>
      <trkpt lat="51.5643850" lon="6.3327580">
        <ele>24.1702880</ele>
        <time>2007-08-01T09:59:49Z</time>
      </trkpt>
      <trkpt lat="51.5640780" lon="6.3334010">
        <ele>24.1702880</ele>
        <time>2007-08-01T09:59:55Z</time>
      </trkpt>
      <trkpt lat="51.5636790" lon="6.3341230">
        <ele>24.1702880</ele>
        <time>2007-08-01T10:00:02Z</time>
      </trkpt>
      <trkpt lat="51.5631900" lon="6.3348540">
        <ele>23.6895750</ele>
        <time>2007-08-01T10:00:10Z</time>
      </trkpt>
      <trkpt lat="51.5627500" lon="6.3354700">
        <ele>23.2089840</ele>
        <time>2007-08-01T10:00:17Z</time>
      </trkpt>
      <trkpt lat="51.5624570" lon="6.3357170">
        <ele>24.1702880</ele>
        <time>2007-08-01T10:00:21Z</time>
      </trkpt>
      <trkpt lat="51.5620820" lon="6.3359460">
        <ele>24.1702880</ele>
        <time>2007-08-01T10:00:26Z</time>
      </trkpt>
      <trkpt lat="51.5616990" lon="6.3363580">
        <ele>24.1702880</ele>
        <time>2007-08-01T10:00:32Z</time>
      </trkpt>
      <trkpt lat="51.5612570" lon="6.3370980">
        <ele>24.1702880</ele>
        <time>2007-08-01T10:00:40Z</time>
      </trkpt>
      <trkpt lat="51.5612030" lon="6.3371930">
        <ele>24.6510010</ele>
        <time>2007-08-01T10:00:41Z</time>
      </trkpt>
      <trkpt lat="51.5610380" lon="6.3377660">
        <ele>24.1702880</ele>
        <time>2007-08-01T10:00:46Z</time>
      </trkpt>
      <trkpt lat="51.5609740" lon="6.3382850">
        <ele>24.1702880</ele>
        <time>2007-08-01T10:00:50Z</time>
      </trkpt>
      <trkpt lat="51.5608170" lon="6.3387090">
        <ele>24.1702880</ele>
        <time>2007-08-01T10:00:54Z</time>
      </trkpt>
      <trkpt lat="51.5605450" lon="6.3391080">
        <ele>25.6123050</ele>
        <time>2007-08-01T10:01:00Z</time>
      </trkpt>
      <trkpt lat="51.5604890" lon="6.3392100">
        <ele>25.6123050</ele>
        <time>2007-08-01T10:01:04Z</time>
      </trkpt>
      <trkpt lat="51.5604900" lon="6.3392090">
        <ele>26.0928960</ele>
        <time>2007-08-01T10:01:05Z</time>
      </trkpt>
      <trkpt lat="51.5604960" lon="6.3392100">
        <ele>25.6123050</ele>
        <time>2007-08-01T10:01:16Z</time>
      </trkpt>
      <trkpt lat="51.5605040" lon="6.3394060">
        <ele>25.1317140</ele>
        <time>2007-08-01T10:01:20Z</time>
      </trkpt>
      <trkpt lat="51.5605850" lon="6.3396030">
        <ele>25.6123050</ele>
        <time>2007-08-01T10:01:23Z</time>
      </trkpt>
      <trkpt lat="51.5606480" lon="6.3397540">
        <ele>25.6123050</ele>
        <time>2007-08-01T10:01:25Z</time>
      </trkpt>
      <trkpt lat="51.5607850" lon="6.3401540">
        <ele>24.6510010</ele>
        <time>2007-08-01T10:01:30Z</time>
      </trkpt>
      <trkpt lat="51.5610560" lon="6.3406460">
        <ele>24.6510010</ele>
        <time>2007-08-01T10:01:36Z</time>
      </trkpt>
      <trkpt lat="51.5614010" lon="6.3413650">
        <ele>25.1317140</ele>
        <time>2007-08-01T10:01:44Z</time>
      </trkpt>
      <trkpt lat="51.5618420" lon="6.3423120">
        <ele>25.1317140</ele>
        <time>2007-08-01T10:01:54Z</time>
      </trkpt>
      <trkpt lat="51.5622060" lon="6.3430860">
        <ele>25.1317140</ele>
        <time>2007-08-01T10:02:02Z</time>
      </trkpt>
      <trkpt lat="51.5626040" lon="6.3439360">
        <ele>24.6510010</ele>
        <time>2007-08-01T10:02:11Z</time>
      </trkpt>
      <trkpt lat="51.5630420" lon="6.3448800">
        <ele>24.6510010</ele>
        <time>2007-08-01T10:02:21Z</time>
      </trkpt>
      <trkpt lat="51.5632830" lon="6.3454100">
        <ele>24.6510010</ele>
        <time>2007-08-01T10:02:27Z</time>
      </trkpt>
      <trkpt lat="51.5636560" lon="6.3462350">
        <ele>24.6510010</ele>
        <time>2007-08-01T10:02:36Z</time>
      </trkpt>
      <trkpt lat="51.5640420" lon="6.3471200">
        <ele>24.1702880</ele>
        <time>2007-08-01T10:02:45Z</time>
      </trkpt>
      <trkpt lat="51.5644770" lon="6.3481370">
        <ele>24.1702880</ele>
        <time>2007-08-01T10:02:55Z</time>
      </trkpt>
      <trkpt lat="51.5648070" lon="6.3489710">
        <ele>24.6510010</ele>
        <time>2007-08-01T10:03:03Z</time>
      </trkpt>
      <trkpt lat="51.5651910" lon="6.3499980">
        <ele>25.6123050</ele>
        <time>2007-08-01T10:03:13Z</time>
      </trkpt>
      <trkpt lat="51.5656620" lon="6.3510830">
        <ele>25.1317140</ele>
        <time>2007-08-01T10:03:24Z</time>
      </trkpt>
      <trkpt lat="51.5661400" lon="6.3521700">
        <ele>25.1317140</ele>
        <time>2007-08-01T10:03:35Z</time>
      </trkpt>
      <trkpt lat="51.5665450" lon="6.3530670">
        <ele>25.1317140</ele>
        <time>2007-08-01T10:03:44Z</time>
      </trkpt>
      <trkpt lat="51.5668590" lon="6.3537660">
        <ele>24.1702880</ele>
        <time>2007-08-01T10:03:51Z</time>
      </trkpt>
      <trkpt lat="51.5672120" lon="6.3545650">
        <ele>25.1317140</ele>
        <time>2007-08-01T10:03:59Z</time>
      </trkpt>
      <trkpt lat="51.5675690" lon="6.3553700">
        <ele>24.6510010</ele>
        <time>2007-08-01T10:04:07Z</time>
      </trkpt>
      <trkpt lat="51.5679760" lon="6.3562730">
        <ele>25.1317140</ele>
        <time>2007-08-01T10:04:16Z</time>
      </trkpt>
      <trkpt lat="51.5681810" lon="6.3567910">
        <ele>25.1317140</ele>
        <time>2007-08-01T10:04:21Z</time>
      </trkpt>
      <trkpt lat="51.5685210" lon="6.3574730">
        <ele>24.6510010</ele>
        <time>2007-08-01T10:04:28Z</time>
      </trkpt>
      <trkpt lat="51.5688860" lon="6.3582710">
        <ele>24.1702880</ele>
        <time>2007-08-01T10:04:36Z</time>
      </trkpt>
      <trkpt lat="51.5692600" lon="6.3590670">
        <ele>24.6510010</ele>
        <time>2007-08-01T10:04:44Z</time>
      </trkpt>
      <trkpt lat="51.5695240" lon="6.3596230">
        <ele>24.6510010</ele>
        <time>2007-08-01T10:04:50Z</time>
      </trkpt>
      <trkpt lat="51.5697760" lon="6.3600210">
        <ele>25.1317140</ele>
        <time>2007-08-01T10:04:55Z</time>
      </trkpt>
      <trkpt lat="51.5700380" lon="6.3606490">
        <ele>24.6510010</ele>
        <time>2007-08-01T10:05:01Z</time>
      </trkpt>
      <trkpt lat="51.5703560" lon="6.3612130">
        <ele>24.1702880</ele>
        <time>2007-08-01T10:05:07Z</time>
      </trkpt>
      <trkpt lat="51.5707830" lon="6.3620970">
        <ele>23.6895750</ele>
        <time>2007-08-01T10:05:16Z</time>
      </trkpt>
      <trkpt lat="51.5709010" lon="6.3624010">
        <ele>24.1702880</ele>
        <time>2007-08-01T10:05:19Z</time>
      </trkpt>
      <trkpt lat="51.5710260" lon="6.3626750">
        <ele>24.6510010</ele>
        <time>2007-08-01T10:05:22Z</time>
      </trkpt>
      <trkpt lat="51.5710400" lon="6.3630470">
        <ele>25.1317140</ele>
        <time>2007-08-01T10:05:26Z</time>
      </trkpt>
      <trkpt lat="51.5707650" lon="6.3636290">
        <ele>25.1317140</ele>
        <time>2007-08-01T10:05:33Z</time>
      </trkpt>
      <trkpt lat="51.5704590" lon="6.3640890">
        <ele>25.6123050</ele>
        <time>2007-08-01T10:05:39Z</time>
      </trkpt>
      <trkpt lat="51.5702880" lon="6.3642880">
        <ele>25.6123050</ele>
        <time>2007-08-01T10:05:42Z</time>
      </trkpt>
      <trkpt lat="51.5701140" lon="6.3646380">
        <ele>26.0928960</ele>
        <time>2007-08-01T10:05:46Z</time>
      </trkpt>
      <trkpt lat="51.5700120" lon="6.3649460">
        <ele>26.0928960</ele>
        <time>2007-08-01T10:05:49Z</time>
      </trkpt>
      <trkpt lat="51.5697940" lon="6.3659580">
        <ele>26.5736080</ele>
        <time>2007-08-01T10:05:58Z</time>
      </trkpt>
      <trkpt lat="51.5695390" lon="6.3668330">
        <ele>27.0543210</ele>
        <time>2007-08-01T10:06:06Z</time>
      </trkpt>
      <trkpt lat="51.5693000" lon="6.3672960">
        <ele>27.0543210</ele>
        <time>2007-08-01T10:06:11Z</time>
      </trkpt>
      <trkpt lat="51.5688750" lon="6.3678440">
        <ele>26.0928960</ele>
        <time>2007-08-01T10:06:18Z</time>
      </trkpt>
      <trkpt lat="51.5684770" lon="6.3684720">
        <ele>26.5736080</ele>
        <time>2007-08-01T10:06:25Z</time>
      </trkpt>
      <trkpt lat="51.5682640" lon="6.3691400">
        <ele>26.0928960</ele>
        <time>2007-08-01T10:06:31Z</time>
      </trkpt>
      <trkpt lat="51.5681270" lon="6.3699860">
        <ele>26.0928960</ele>
        <time>2007-08-01T10:06:38Z</time>
      </trkpt>
      <trkpt lat="51.5679780" lon="6.3709830">
        <ele>25.6123050</ele>
        <time>2007-08-01T10:06:46Z</time>
      </trkpt>
      <trkpt lat="51.5677840" lon="6.3719380">
        <ele>25.6123050</ele>
        <time>2007-08-01T10:06:54Z</time>
      </trkpt>
      <trkpt lat="51.5673870" lon="6.3727350">
        <ele>26.0928960</ele>
        <time>2007-08-01T10:07:02Z</time>
      </trkpt>
      <trkpt lat="51.5668900" lon="6.3737480">
        <ele>26.5736080</ele>
        <time>2007-08-01T10:07:12Z</time>
      </trkpt>
      <trkpt lat="51.5664610" lon="6.3747360">
        <ele>26.0928960</ele>
        <time>2007-08-01T10:07:21Z</time>
      </trkpt>
      <trkpt lat="51.5660290" lon="6.3757020">
        <ele>26.0928960</ele>
        <time>2007-08-01T10:07:30Z</time>
      </trkpt>
      <trkpt lat="51.5656390" lon="6.3765600">
        <ele>25.6123050</ele>
        <time>2007-08-01T10:07:38Z</time>
      </trkpt>
      <trkpt lat="51.5652090" lon="6.3775420">
        <ele>25.6123050</ele>
        <time>2007-08-01T10:07:47Z</time>
      </trkpt>
      <trkpt lat="51.5650410" lon="6.3781570">
        <ele>25.6123050</ele>
        <time>2007-08-01T10:07:52Z</time>
      </trkpt>
      <trkpt lat="51.5649530" lon="6.3788280">
        <ele>26.0928960</ele>
        <time>2007-08-01T10:07:57Z</time>
      </trkpt>
      <trkpt lat="51.5649210" lon="6.3797810">
        <ele>25.6123050</ele>
        <time>2007-08-01T10:08:04Z</time>
      </trkpt>
      <trkpt lat="51.5648120" lon="6.3804100">
        <ele>26.0928960</ele>
        <time>2007-08-01T10:08:09Z</time>
      </trkpt>
      <trkpt lat="51.5644510" lon="6.3814720">
        <ele>26.0928960</ele>
        <time>2007-08-01T10:08:18Z</time>
      </trkpt>
      <trkpt lat="51.5640350" lon="6.3826410">
        <ele>25.6123050</ele>
        <time>2007-08-01T10:08:28Z</time>
      </trkpt>
      <trkpt lat="51.5636290" lon="6.3837850">
        <ele>25.6123050</ele>
        <time>2007-08-01T10:08:38Z</time>
      </trkpt>
      <trkpt lat="51.5633470" lon="6.3845770">
        <ele>25.6123050</ele>
        <time>2007-08-01T10:08:45Z</time>
      </trkpt>
      <trkpt lat="51.5629960" lon="6.3856130">
        <ele>25.1317140</ele>
        <time>2007-08-01T10:08:54Z</time>
      </trkpt>
      <trkpt lat="51.5626360" lon="6.3866120">
        <ele>25.6123050</ele>
        <time>2007-08-01T10:09:03Z</time>
      </trkpt>
      <trkpt lat="51.5622730" lon="6.3872910">
        <ele>25.6123050</ele>
        <time>2007-08-01T10:09:10Z</time>
      </trkpt>
      <trkpt lat="51.5619930" lon="6.3880720">
        <ele>25.1317140</ele>
        <time>2007-08-01T10:09:17Z</time>
      </trkpt>
      <trkpt lat="51.5616640" lon="6.3891080">
        <ele>26.0928960</ele>
        <time>2007-08-01T10:09:26Z</time>
      </trkpt>
      <trkpt lat="51.5613280" lon="6.3901590">
        <ele>25.6123050</ele>
        <time>2007-08-01T10:09:35Z</time>
      </trkpt>
      <trkpt lat="51.5609930" lon="6.3912130">
        <ele>25.6123050</ele>
        <time>2007-08-01T10:09:44Z</time>
      </trkpt>
      <trkpt lat="51.5609500" lon="6.3913260">
        <ele>25.6123050</ele>
        <time>2007-08-01T10:09:45Z</time>
      </trkpt>
      <trkpt lat="51.5606670" lon="6.3917730">
        <ele>25.1317140</ele>
        <time>2007-08-01T10:09:50Z</time>
      </trkpt>
      <trkpt lat="51.5606000" lon="6.3918330">
        <ele>25.1317140</ele>
        <time>2007-08-01T10:09:51Z</time>
      </trkpt>
      <trkpt lat="51.5600160" lon="6.3923410">
        <ele>26.5736080</ele>
        <time>2007-08-01T10:10:00Z</time>
      </trkpt>
      <trkpt lat="51.5596960" lon="6.3928780">
        <ele>26.0928960</ele>
        <time>2007-08-01T10:10:06Z</time>
      </trkpt>
      <trkpt lat="51.5591730" lon="6.3937820">
        <ele>26.0928960</ele>
        <time>2007-08-01T10:10:16Z</time>
      </trkpt>
      <trkpt lat="51.5586510" lon="6.3945280">
        <ele>26.0928960</ele>
        <time>2007-08-01T10:10:25Z</time>
      </trkpt>
      <trkpt lat="51.5581010" lon="6.3951860">
        <ele>26.0928960</ele>
        <time>2007-08-01T10:10:34Z</time>
      </trkpt>
      <trkpt lat="51.5576690" lon="6.3958040">
        <ele>25.6123050</ele>
        <time>2007-08-01T10:10:42Z</time>
      </trkpt>
      <trkpt lat="51.5572870" lon="6.3963710">
        <ele>25.6123050</ele>
        <time>2007-08-01T10:10:49Z</time>
      </trkpt>
      <trkpt lat="51.5569120" lon="6.3967220">
        <ele>26.0928960</ele>
        <time>2007-08-01T10:10:55Z</time>
      </trkpt>
      <trkpt lat="51.5566470" lon="6.3969350">
        <ele>25.6123050</ele>
        <time>2007-08-01T10:10:59Z</time>
      </trkpt>
      <trkpt lat="51.5562990" lon="6.3974290">
        <ele>26.5736080</ele>
        <time>2007-08-01T10:11:05Z</time>
      </trkpt>
      <trkpt lat="51.5559240" lon="6.3980870">
        <ele>26.5736080</ele>
        <time>2007-08-01T10:11:12Z</time>
      </trkpt>
      <trkpt lat="51.5553280" lon="6.3989370">
        <ele>26.0928960</ele>
        <time>2007-08-01T10:11:22Z</time>
      </trkpt>
      <trkpt lat="51.5546610" lon="6.3997980">
        <ele>26.0928960</ele>
        <time>2007-08-01T10:11:33Z</time>
      </trkpt>
      <trkpt lat="51.5542390" lon="6.4003290">
        <ele>27.5349120</ele>
        <time>2007-08-01T10:11:40Z</time>
      </trkpt>
      <trkpt lat="51.5541180" lon="6.4004880">
        <ele>26.5736080</ele>
        <time>2007-08-01T10:11:42Z</time>
      </trkpt>
      <trkpt lat="51.5539280" lon="6.4007200">
        <ele>27.0543210</ele>
        <time>2007-08-01T10:11:45Z</time>
      </trkpt>
      <trkpt lat="51.5536220" lon="6.4008430">
        <ele>27.5349120</ele>
        <time>2007-08-01T10:11:49Z</time>
      </trkpt>
      <trkpt lat="51.5531480" lon="6.4007970">
        <ele>27.0543210</ele>
        <time>2007-08-01T10:11:55Z</time>
      </trkpt>
      <trkpt lat="51.5527620" lon="6.4009530">
        <ele>27.0543210</ele>
        <time>2007-08-01T10:12:00Z</time>
      </trkpt>
      <trkpt lat="51.5526840" lon="6.4010000">
        <ele>27.0543210</ele>
        <time>2007-08-01T10:12:01Z</time>
      </trkpt>
      <trkpt lat="51.5523630" lon="6.4010320">
        <ele>27.5349120</ele>
        <time>2007-08-01T10:12:05Z</time>
      </trkpt>
      <trkpt lat="51.5522850" lon="6.4009970">
        <ele>27.0543210</ele>
        <time>2007-08-01T10:12:06Z</time>
      </trkpt>
      <trkpt lat="51.5515150" lon="6.4005770">
        <ele>28.0155030</ele>
        <time>2007-08-01T10:12:16Z</time>
      </trkpt>
      <trkpt lat="51.5513570" lon="6.4005010">
        <ele>28.0155030</ele>
        <time>2007-08-01T10:12:18Z</time>
      </trkpt>
      <trkpt lat="51.5508680" lon="6.4004900">
        <ele>26.5736080</ele>
        <time>2007-08-01T10:12:24Z</time>
      </trkpt>
      <trkpt lat="51.5505270" lon="6.4005580">
        <ele>26.5736080</ele>
        <time>2007-08-01T10:12:28Z</time>
      </trkpt>
      <trkpt lat="51.5501200" lon="6.4004270">
        <ele>25.6123050</ele>
        <time>2007-08-01T10:12:33Z</time>
      </trkpt>
      <trkpt lat="51.5494680" lon="6.4001730">
        <ele>27.0543210</ele>
        <time>2007-08-01T10:12:41Z</time>
      </trkpt>
      <trkpt lat="51.5490550" lon="6.4002200">
        <ele>26.5736080</ele>
        <time>2007-08-01T10:12:46Z</time>
      </trkpt>
      <trkpt lat="51.5483300" lon="6.4003830">
        <ele>27.0543210</ele>
        <time>2007-08-01T10:12:55Z</time>
      </trkpt>
      <trkpt lat="51.5477790" lon="6.4004070">
        <ele>27.0543210</ele>
        <time>2007-08-01T10:13:02Z</time>
      </trkpt>
      <trkpt lat="51.5473070" lon="6.4002440">
        <ele>27.5349120</ele>
        <time>2007-08-01T10:13:08Z</time>
      </trkpt>
      <trkpt lat="51.5468400" lon="6.4000660">
        <ele>27.5349120</ele>
        <time>2007-08-01T10:13:14Z</time>
      </trkpt>
      <trkpt lat="51.5462180" lon="6.3998660">
        <ele>28.4962160</ele>
        <time>2007-08-01T10:13:22Z</time>
      </trkpt>
      <trkpt lat="51.5458380" lon="6.3997820">
        <ele>28.4962160</ele>
        <time>2007-08-01T10:13:27Z</time>
      </trkpt>
      <trkpt lat="51.5451280" lon="6.3996890">
        <ele>28.9769290</ele>
        <time>2007-08-01T10:13:36Z</time>
      </trkpt>
      <trkpt lat="51.5443970" lon="6.3996890">
        <ele>28.9769290</ele>
        <time>2007-08-01T10:13:45Z</time>
      </trkpt>
      <trkpt lat="51.5436770" lon="6.3998000">
        <ele>29.4575200</ele>
        <time>2007-08-01T10:13:54Z</time>
      </trkpt>
      <trkpt lat="51.5430520" lon="6.3999810">
        <ele>29.9381100</ele>
        <time>2007-08-01T10:14:02Z</time>
      </trkpt>
      <trkpt lat="51.5425150" lon="6.4001950">
        <ele>30.4188230</ele>
        <time>2007-08-01T10:14:09Z</time>
      </trkpt>
      <trkpt lat="51.5419090" lon="6.4005040">
        <ele>30.8995360</ele>
        <time>2007-08-01T10:14:17Z</time>
      </trkpt>
      <trkpt lat="51.5414550" lon="6.4007270">
        <ele>31.8607180</ele>
        <time>2007-08-01T10:14:23Z</time>
      </trkpt>
      <trkpt lat="51.5408640" lon="6.4010580">
        <ele>32.3415530</ele>
        <time>2007-08-01T10:14:31Z</time>
      </trkpt>
      <trkpt lat="51.5402900" lon="6.4014000">
        <ele>32.8222660</ele>
        <time>2007-08-01T10:14:39Z</time>
      </trkpt>
      <trkpt lat="51.5399160" lon="6.4016340">
        <ele>33.7834470</ele>
        <time>2007-08-01T10:14:45Z</time>
      </trkpt>
      <trkpt lat="51.5396320" lon="6.4018290">
        <ele>33.7834470</ele>
        <time>2007-08-01T10:14:50Z</time>
      </trkpt>
      <trkpt lat="51.5392880" lon="6.4021070">
        <ele>35.2254640</ele>
        <time>2007-08-01T10:14:56Z</time>
      </trkpt>
      <trkpt lat="51.5388670" lon="6.4024530">
        <ele>34.7448730</ele>
        <time>2007-08-01T10:15:03Z</time>
      </trkpt>
      <trkpt lat="51.5385000" lon="6.4027720">
        <ele>34.7448730</ele>
        <time>2007-08-01T10:15:09Z</time>
      </trkpt>
      <trkpt lat="51.5381420" lon="6.4031260">
        <ele>35.2254640</ele>
        <time>2007-08-01T10:15:15Z</time>
      </trkpt>
      <trkpt lat="51.5377770" lon="6.4035500">
        <ele>34.2641600</ele>
        <time>2007-08-01T10:15:21Z</time>
      </trkpt>
      <trkpt lat="51.5372840" lon="6.4041740">
        <ele>33.3028560</ele>
        <time>2007-08-01T10:15:29Z</time>
      </trkpt>
      <trkpt lat="51.5368440" lon="6.4048010">
        <ele>32.8222660</ele>
        <time>2007-08-01T10:15:36Z</time>
      </trkpt>
      <trkpt lat="51.5362350" lon="6.4057570">
        <ele>30.8995360</ele>
        <time>2007-08-01T10:15:46Z</time>
      </trkpt>
      <trkpt lat="51.5356850" lon="6.4066380">
        <ele>29.4575200</ele>
        <time>2007-08-01T10:15:55Z</time>
      </trkpt>
      <trkpt lat="51.5352030" lon="6.4074210">
        <ele>28.9769290</ele>
        <time>2007-08-01T10:16:03Z</time>
      </trkpt>
      <trkpt lat="51.5347970" lon="6.4080840">
        <ele>28.0155030</ele>
        <time>2007-08-01T10:16:10Z</time>
      </trkpt>
      <trkpt lat="51.5343600" lon="6.4087980">
        <ele>28.0155030</ele>
        <time>2007-08-01T10:16:18Z</time>
      </trkpt>
      <trkpt lat="51.5338290" lon="6.4096330">
        <ele>27.5349120</ele>
        <time>2007-08-01T10:16:28Z</time>
      </trkpt>
      <trkpt lat="51.5333100" lon="6.4104740">
        <ele>28.0155030</ele>
        <time>2007-08-01T10:16:38Z</time>
      </trkpt>
      <trkpt lat="51.5328340" lon="6.4112290">
        <ele>28.4962160</ele>
        <time>2007-08-01T10:16:47Z</time>
      </trkpt>
      <trkpt lat="51.5324210" lon="6.4119090">
        <ele>28.0155030</ele>
        <time>2007-08-01T10:16:55Z</time>
      </trkpt>
      <trkpt lat="51.5320140" lon="6.4125620">
        <ele>28.0155030</ele>
        <time>2007-08-01T10:17:03Z</time>
      </trkpt>
      <trkpt lat="51.5316100" lon="6.4131830">
        <ele>28.0155030</ele>
        <time>2007-08-01T10:17:11Z</time>
      </trkpt>
      <trkpt lat="51.5311490" lon="6.4139140">
        <ele>28.0155030</ele>
        <time>2007-08-01T10:17:20Z</time>
      </trkpt>
      <trkpt lat="51.5306320" lon="6.4147880">
        <ele>27.0543210</ele>
        <time>2007-08-01T10:17:30Z</time>
      </trkpt>
      <trkpt lat="51.5301740" lon="6.4155220">
        <ele>27.0543210</ele>
        <time>2007-08-01T10:17:39Z</time>
      </trkpt>
      <trkpt lat="51.5297630" lon="6.4161700">
        <ele>27.5349120</ele>
        <time>2007-08-01T10:17:47Z</time>
      </trkpt>
      <trkpt lat="51.5293630" lon="6.4168240">
        <ele>28.0155030</ele>
        <time>2007-08-01T10:17:55Z</time>
      </trkpt>
      <trkpt lat="51.5290670" lon="6.4173070">
        <ele>28.4962160</ele>
        <time>2007-08-01T10:18:01Z</time>
      </trkpt>
      <trkpt lat="51.5286620" lon="6.4178360">
        <ele>28.0155030</ele>
        <time>2007-08-01T10:18:08Z</time>
      </trkpt>
      <trkpt lat="51.5284720" lon="6.4180110">
        <ele>28.4962160</ele>
        <time>2007-08-01T10:18:11Z</time>
      </trkpt>
      <trkpt lat="51.5279730" lon="6.4182230">
        <ele>28.0155030</ele>
        <time>2007-08-01T10:18:18Z</time>
      </trkpt>
      <trkpt lat="51.5275220" lon="6.4182700">
        <ele>28.4962160</ele>
        <time>2007-08-01T10:18:25Z</time>
      </trkpt>
      <trkpt lat="51.5273170" lon="6.4182690">
        <ele>28.0155030</ele>
        <time>2007-08-01T10:18:30Z</time>
      </trkpt>
      <trkpt lat="51.5272920" lon="6.4182700">
        <ele>28.4962160</ele>
        <time>2007-08-01T10:18:33Z</time>
      </trkpt>
      <trkpt lat="51.5272910" lon="6.4182720">
        <ele>28.4962160</ele>
        <time>2007-08-01T10:18:41Z</time>
      </trkpt>
      <trkpt lat="51.5272080" lon="6.4182770">
        <ele>28.9769290</ele>
        <time>2007-08-01T10:18:44Z</time>
      </trkpt>
      <trkpt lat="51.5270030" lon="6.4183160">
        <ele>28.9769290</ele>
        <time>2007-08-01T10:18:49Z</time>
      </trkpt>
      <trkpt lat="51.5267210" lon="6.4183310">
        <ele>28.9769290</ele>
        <time>2007-08-01T10:18:54Z</time>
      </trkpt>
      <trkpt lat="51.5264940" lon="6.4181970">
        <ele>28.4962160</ele>
        <time>2007-08-01T10:18:58Z</time>
      </trkpt>
      <trkpt lat="51.5263850" lon="6.4179270">
        <ele>28.0155030</ele>
        <time>2007-08-01T10:19:01Z</time>
      </trkpt>
      <trkpt lat="51.5262020" lon="6.4170520">
        <ele>28.0155030</ele>
        <time>2007-08-01T10:19:09Z</time>
      </trkpt>
      <trkpt lat="51.5260420" lon="6.4162680">
        <ele>28.4962160</ele>
        <time>2007-08-01T10:19:16Z</time>
      </trkpt>
      <trkpt lat="51.5258500" lon="6.4155880">
        <ele>28.4962160</ele>
        <time>2007-08-01T10:19:22Z</time>
      </trkpt>
      <trkpt lat="51.5258110" lon="6.4154800">
        <ele>28.4962160</ele>
        <time>2007-08-01T10:19:23Z</time>
      </trkpt>
      <trkpt lat="51.5254040" lon="6.4146900">
        <ele>28.9769290</ele>
        <time>2007-08-01T10:19:31Z</time>
      </trkpt>
      <trkpt lat="51.5249930" lon="6.4141550">
        <ele>28.0155030</ele>
        <time>2007-08-01T10:19:38Z</time>
      </trkpt>
      <trkpt lat="51.5245310" lon="6.4137250">
        <ele>28.0155030</ele>
        <time>2007-08-01T10:19:45Z</time>
      </trkpt>
      <trkpt lat="51.5240360" lon="6.4134080">
        <ele>28.4962160</ele>
        <time>2007-08-01T10:19:52Z</time>
      </trkpt>
      <trkpt lat="51.5234550" lon="6.4132130">
        <ele>28.9769290</ele>
        <time>2007-08-01T10:20:00Z</time>
      </trkpt>
      <trkpt lat="51.5228450" lon="6.4131590">
        <ele>29.9381100</ele>
        <time>2007-08-01T10:20:08Z</time>
      </trkpt>
      <trkpt lat="51.5223090" lon="6.4132550">
        <ele>28.4962160</ele>
        <time>2007-08-01T10:20:15Z</time>
      </trkpt>
      <trkpt lat="51.5217090" lon="6.4134920">
        <ele>28.4962160</ele>
        <time>2007-08-01T10:20:23Z</time>
      </trkpt>
      <trkpt lat="51.5210510" lon="6.4138950">
        <ele>29.9381100</ele>
        <time>2007-08-01T10:20:32Z</time>
      </trkpt>
      <trkpt lat="51.5203390" lon="6.4144740">
        <ele>29.9381100</ele>
        <time>2007-08-01T10:20:42Z</time>
      </trkpt>
      <trkpt lat="51.5197270" lon="6.4150490">
        <ele>29.4575200</ele>
        <time>2007-08-01T10:20:51Z</time>
      </trkpt>
      <trkpt lat="51.5191210" lon="6.4156340">
        <ele>29.4575200</ele>
        <time>2007-08-01T10:21:00Z</time>
      </trkpt>
      <trkpt lat="51.5185350" lon="6.4161990">
        <ele>28.9769290</ele>
        <time>2007-08-01T10:21:09Z</time>
      </trkpt>
      <trkpt lat="51.5179370" lon="6.4167620">
        <ele>28.4962160</ele>
        <time>2007-08-01T10:21:18Z</time>
      </trkpt>
      <trkpt lat="51.5173090" lon="6.4172980">
        <ele>29.4575200</ele>
        <time>2007-08-01T10:21:27Z</time>
      </trkpt>
      <trkpt lat="51.5165960" lon="6.4177990">
        <ele>29.4575200</ele>
        <time>2007-08-01T10:21:37Z</time>
      </trkpt>
      <trkpt lat="51.5158750" lon="6.4182010">
        <ele>29.4575200</ele>
        <time>2007-08-01T10:21:47Z</time>
      </trkpt>
      <trkpt lat="51.5151410" lon="6.4185020">
        <ele>29.4575200</ele>
        <time>2007-08-01T10:21:57Z</time>
      </trkpt>
      <trkpt lat="51.5144730" lon="6.4187340">
        <ele>28.9769290</ele>
        <time>2007-08-01T10:22:06Z</time>
      </trkpt>
      <trkpt lat="51.5137960" lon="6.4189640">
        <ele>29.4575200</ele>
        <time>2007-08-01T10:22:15Z</time>
      </trkpt>
      <trkpt lat="51.5129070" lon="6.4192600">
        <ele>29.9381100</ele>
        <time>2007-08-01T10:22:27Z</time>
      </trkpt>
      <trkpt lat="51.5121030" lon="6.4195270">
        <ele>29.4575200</ele>
        <time>2007-08-01T10:22:38Z</time>
      </trkpt>
      <trkpt lat="51.5113390" lon="6.4197850">
        <ele>29.9381100</ele>
        <time>2007-08-01T10:22:48Z</time>
      </trkpt>
      <trkpt lat="51.5105730" lon="6.4200330">
        <ele>29.4575200</ele>
        <time>2007-08-01T10:22:58Z</time>
      </trkpt>
      <trkpt lat="51.5101070" lon="6.4201810">
        <ele>30.4188230</ele>
        <time>2007-08-01T10:23:04Z</time>
      </trkpt>
      <trkpt lat="51.5093760" lon="6.4204050">
        <ele>29.9381100</ele>
        <time>2007-08-01T10:23:13Z</time>
      </trkpt>
      <trkpt lat="51.5084600" lon="6.4206170">
        <ele>29.4575200</ele>
        <time>2007-08-01T10:23:24Z</time>
      </trkpt>
      <trkpt lat="51.5075620" lon="6.4207600">
        <ele>28.9769290</ele>
        <time>2007-08-01T10:23:35Z</time>
      </trkpt>
      <trkpt lat="51.5073774" lon="6.4207848"/>
      <trkpt lat="51.5073235" lon="6.4215643"/>
      <trkpt lat="51.5070270" lon="6.4218674"/>
      <trkpt lat="51.5050058" lon="6.4228632"/>
      <trkpt lat="51.5029846" lon="6.4238158"/>
      <trkpt lat="51.5012598" lon="6.4243787"/>
      <trkpt lat="51.5001818" lon="6.4248117"/>
      <trkpt lat="51.4994272" lon="6.4249848"/>
      <trkpt lat="51.4985379" lon="6.4246818"/>
      <trkpt lat="51.4971770" lon="6.4239242"/>
      <trkpt lat="51.4964494" lon="6.4236645"/>
      <trkpt lat="51.4953175" lon="6.4232749"/>
      <trkpt lat="51.4941318" lon="6.4227555"/>
      <trkpt lat="51.4936466" lon="6.4224525"/>
      <trkpt lat="51.4925686" lon="6.4215436"/>
      <trkpt lat="51.4923261" lon="6.4213272"/>
      <trkpt lat="51.4906822" lon="6.4207211"/>
      <trkpt lat="51.4903588" lon="6.4207211"/>
      <trkpt lat="51.4889305" lon="6.4211540"/>
      <trkpt lat="51.4872327" lon="6.4210241"/>
      <trkpt lat="51.4852385" lon="6.4184716"/>
      <trkpt lat="51.4842144" lon="6.4156155"/>
      <trkpt lat="51.4838641" lon="6.4150530"/>
      <trkpt lat="51.4827322" lon="6.4138413"/>
      <trkpt lat="51.4808188" lon="6.4119372"/>
      <trkpt lat="51.4753481" lon="6.4013781"/>
      <trkpt lat="51.4719124" lon="6.3972889"/>
      <trkpt lat="51.4699720" lon="6.3940878"/>
      <trkpt lat="51.4685167" lon="6.3924440"/>
      <trkpt lat="51.4663877" lon="6.3892429"/>
      <trkpt lat="51.4649594" lon="6.3868637"/>
      <trkpt lat="51.4597582" lon="6.3807644"/>
      <trkpt lat="51.4575213" lon="6.3779093"/>
      <trkpt lat="51.4561469" lon="6.3794684"/>
      <trkpt lat="51.4547994" lon="6.3811552"/>
      <trkpt lat="51.4548264" lon="6.3811985"/>
      <trkpt lat="51.4538562" lon="6.3827554"/>
      <trkpt lat="51.4528052" lon="6.3808092"/>
      <trkpt lat="51.4512691" lon="6.3783007"/>
      <trkpt lat="51.4508379" lon="6.3786034"/>
      <trkpt lat="51.4508190" lon="6.3787320">
        <ele>0.0000000</ele>
        <time>2006-11-30T02:09:49Z</time>
      </trkpt>
      <trkpt lat="51.4485820" lon="6.3812340">
        <ele>0.0000000</ele>
        <time>2006-11-30T02:08:18Z</time>
      </trkpt>
      <trkpt lat="51.4473010" lon="6.3822430">
        <ele>0.0000000</ele>
        <time>2006-11-30T02:07:31Z</time>
      </trkpt>
      <trkpt lat="51.4463740" lon="6.3830150">
        <ele>0.0000000</ele>
        <time>2006-11-30T02:06:56Z</time>
      </trkpt>
      <trkpt lat="51.4454520" lon="6.3840030">
        <ele>0.0000000</ele>
        <time>2006-11-30T02:06:19Z</time>
      </trkpt>
      <trkpt lat="51.4448850" lon="6.3847550">
        <ele>0.0000000</ele>
        <time>2006-11-30T02:05:54Z</time>
      </trkpt>
      <trkpt lat="51.4435780" lon="6.3866280">
        <ele>0.0000000</ele>
        <time>2006-11-30T02:04:56Z</time>
      </trkpt>
      <trkpt lat="51.4430140" lon="6.3875230">
        <ele>0.0000000</ele>
        <time>2006-11-30T02:04:29Z</time>
      </trkpt>
      <trkpt lat="51.4427170" lon="6.3883310">
        <ele>0.0000000</ele>
        <time>2006-11-30T02:04:10Z</time>
      </trkpt>
      <trkpt lat="51.4416730" lon="6.3899010">
        <ele>0.0000000</ele>
        <time>2006-11-30T02:03:22Z</time>
      </trkpt>
      <trkpt lat="51.4409390" lon="6.3912380">
        <ele>0.0000000</ele>
        <time>2006-11-30T02:02:45Z</time>
      </trkpt>
      <trkpt lat="51.4403710" lon="6.3919900">
        <ele>0.0000000</ele>
        <time>2006-11-30T02:02:21Z</time>
      </trkpt>
      <trkpt lat="51.4398840" lon="6.3923050">
        <ele>0.0000000</ele>
        <time>2006-11-30T02:02:03Z</time>
      </trkpt>
      <trkpt lat="51.4389500" lon="6.3927900">
        <ele>0.0000000</ele>
        <time>2006-11-30T02:01:30Z</time>
      </trkpt>
      <trkpt lat="51.4386440" lon="6.3931670">
        <ele>0.0000000</ele>
        <time>2006-11-30T02:01:17Z</time>
      </trkpt>
      <trkpt lat="51.4383960" lon="6.3941160">
        <ele>0.0000000</ele>
        <time>2006-11-30T02:00:56Z</time>
      </trkpt>
      <trkpt lat="51.4380270" lon="6.3957190">
        <ele>0.0000000</ele>
        <time>2006-11-30T02:00:20Z</time>
      </trkpt>
      <trkpt lat="51.4380440" lon="6.3965100">
        <ele>0.0000000</ele>
        <time>2006-11-30T02:00:04Z</time>
      </trkpt>
      <trkpt lat="51.4373370" lon="6.3970530">
        <ele>0.0000000</ele>
        <time>2006-11-30T01:59:38Z</time>
      </trkpt>
      <trkpt lat="51.4370280" lon="6.3972870">
        <ele>0.0000000</ele>
        <time>2006-11-30T01:59:26Z</time>
      </trkpt>
      <trkpt lat="51.4367330" lon="6.3981660">
        <ele>0.0000000</ele>
        <time>2006-11-30T01:59:06Z</time>
      </trkpt>
      <trkpt lat="51.4356630" lon="6.4006010">
        <ele>0.0000000</ele>
        <time>2006-11-30T01:58:04Z</time>
      </trkpt>
      <trkpt lat="51.4354450" lon="6.4009010">
        <ele>0.0000000</ele>
        <time>2006-11-30T01:57:54Z</time>
      </trkpt>
      <trkpt lat="51.4347730" lon="6.4010110">
        <ele>0.0000000</ele>
        <time>2006-11-30T01:57:32Z</time>
      </trkpt>
      <trkpt lat="51.4346000" lon="6.4013080">
        <ele>0.0000000</ele>
        <time>2006-11-30T01:57:23Z</time>
      </trkpt>
      <trkpt lat="51.4345830" lon="6.4026040">
        <ele>0.0000000</ele>
        <time>2006-11-30T01:56:56Z</time>
      </trkpt>
      <trkpt lat="51.4344360" lon="6.4040500">
        <ele>0.0000000</ele>
        <time>2006-11-30T01:56:26Z</time>
      </trkpt>
      <trkpt lat="51.4342660" lon="6.4044910">
        <ele>0.0000000</ele>
        <time>2006-11-30T01:56:15Z</time>
      </trkpt>
      <trkpt lat="51.4332700" lon="6.4021750">
        <ele>0.0000000</ele>
        <time>2006-11-30T01:55:16Z</time>
      </trkpt>
      <trkpt lat="51.4327240" lon="6.4018460">
        <ele>0.0000000</ele>
        <time>2006-11-30T01:54:57Z</time>
      </trkpt>
      <trkpt lat="51.4317630" lon="6.4011100">
        <ele>0.0000000</ele>
        <time>2006-11-30T01:54:21Z</time>
      </trkpt>
      <trkpt lat="51.4312740" lon="6.4013530">
        <ele>0.0000000</ele>
        <time>2006-11-30T01:54:04Z</time>
      </trkpt>
      <trkpt lat="51.4311030" lon="6.4017220">
        <ele>0.0000000</ele>
        <time>2006-11-30T01:53:55Z</time>
      </trkpt>
      <trkpt lat="51.4307240" lon="6.4028950">
        <ele>0.0000000</ele>
        <time>2006-11-30T01:53:27Z</time>
      </trkpt>
      <trkpt lat="51.4302540" lon="6.4040000">
        <ele>0.0000000</ele>
        <time>2006-11-30T01:52:59Z</time>
      </trkpt>
      <trkpt lat="51.4290900" lon="6.4062230">
        <ele>0.0000000</ele>
        <time>2006-11-30T01:51:59Z</time>
      </trkpt>
      <trkpt lat="51.4288540" lon="6.4057330">
        <ele>0.0000000</ele>
        <time>2006-11-30T01:51:46Z</time>
      </trkpt>
      <trkpt lat="51.4280060" lon="6.4059970">
        <ele>0.0000000</ele>
        <time>2006-11-30T01:51:17Z</time>
      </trkpt>
      <trkpt lat="51.4270150" lon="6.4059090">
        <ele>0.0000000</ele>
        <time>2006-11-30T01:50:44Z</time>
      </trkpt>
      <trkpt lat="51.4259420" lon="6.4061860">
        <ele>0.0000000</ele>
        <time>2006-11-30T01:50:08Z</time>
      </trkpt>
      <trkpt lat="51.4253450" lon="6.4076580">
        <ele>0.0000000</ele>
        <time>2006-11-30T01:49:32Z</time>
      </trkpt>
      <trkpt lat="51.4249080" lon="6.4081860">
        <ele>0.0000000</ele>
        <time>2006-11-30T01:49:13Z</time>
      </trkpt>
      <trkpt lat="51.4242920" lon="6.4087960">
        <ele>0.0000000</ele>
        <time>2006-11-30T01:48:49Z</time>
      </trkpt>
      <trkpt lat="51.4213410" lon="6.4034270">
        <ele>0.0000000</ele>
        <time>2006-11-30T01:46:20Z</time>
      </trkpt>
      <trkpt lat="51.4208620" lon="6.4020880">
        <ele>0.0000000</ele>
        <time>2006-11-30T01:45:48Z</time>
      </trkpt>
      <trkpt lat="51.4165820" lon="6.3834960">
        <ele>0.0000000</ele>
        <time>2006-11-30T01:38:56Z</time>
      </trkpt>
      <trkpt lat="51.4166110" lon="6.3827750">
        <ele>0.0000000</ele>
        <time>2006-11-30T01:38:41Z</time>
      </trkpt>
      <trkpt lat="51.4150560" lon="6.3815700">
        <ele>0.0000000</ele>
        <time>2006-11-30T01:37:43Z</time>
      </trkpt>
      <trkpt lat="51.4147210" lon="6.3826670">
        <ele>0.0000000</ele>
        <time>2006-11-30T01:37:18Z</time>
      </trkpt>
      <trkpt lat="51.4144990" lon="6.3828240">
        <ele>0.0000000</ele>
        <time>2006-11-30T01:37:10Z</time>
      </trkpt>
      <trkpt lat="51.4139970" lon="6.3824930">
        <ele>0.0000000</ele>
        <time>2006-11-30T01:36:52Z</time>
      </trkpt>
      <trkpt lat="51.4122640" lon="6.3853960">
        <ele>0.0000000</ele>
        <time>2006-11-30T01:35:28Z</time>
      </trkpt>
      <trkpt lat="51.4116230" lon="6.3848570">
        <ele>0.0000000</ele>
        <time>2006-11-30T01:35:04Z</time>
      </trkpt>
      <trkpt lat="51.4113440" lon="6.3844420">
        <ele>0.0000000</ele>
        <time>2006-11-30T01:34:51Z</time>
      </trkpt>
      <trkpt lat="51.4107860" lon="6.3836110">
        <ele>0.0000000</ele>
        <time>2006-11-30T01:34:26Z</time>
      </trkpt>
      <trkpt lat="51.4070680" lon="6.3801580">
        <ele>0.0000000</ele>
        <time>2006-11-30T01:32:02Z</time>
      </trkpt>
      <trkpt lat="51.4067760" lon="6.3811810">
        <ele>0.0000000</ele>
        <time>2006-11-30T01:31:39Z</time>
      </trkpt>
      <trkpt lat="51.4041940" lon="6.3783100">
        <ele>0.0000000</ele>
        <time>2006-11-30T01:29:54Z</time>
      </trkpt>
      <trkpt lat="51.4017770" lon="6.3707580">
        <ele>0.0000000</ele>
        <time>2006-11-30T01:26:58Z</time>
      </trkpt>
      <trkpt lat="51.4019810" lon="6.3698120">
        <ele>0.0000000</ele>
        <time>2006-11-30T01:26:37Z</time>
      </trkpt>
      <trkpt lat="51.4009590" lon="6.3683620">
        <ele>0.0000000</ele>
        <time>2006-11-30T01:25:51Z</time>
      </trkpt>
      <trkpt lat="51.3998590" lon="6.3674190">
        <ele>0.0000000</ele>
        <time>2006-11-30T01:25:10Z</time>
      </trkpt>
      <trkpt lat="51.3985920" lon="6.3630360">
        <ele>0.0000000</ele>
        <time>2006-11-30T01:23:29Z</time>
      </trkpt>
      <trkpt lat="51.3979730" lon="6.3614910">
        <ele>0.0000000</ele>
        <time>2006-11-30T01:22:51Z</time>
      </trkpt>
      <trkpt lat="51.3980320" lon="6.3616640">
        <ele>28.4962160</ele>
        <time>2007-03-08T10:34:54Z</time>
      </trkpt>
      <trkpt lat="51.3980030" lon="6.3614360">
        <ele>28.4962160</ele>
        <time>2007-03-08T10:34:51Z</time>
      </trkpt>
      <trkpt lat="51.3980220" lon="6.3613300">
        <ele>28.9769290</ele>
        <time>2007-03-08T10:34:49Z</time>
      </trkpt>
      <trkpt lat="51.3981890" lon="6.3610860">
        <ele>28.0155030</ele>
        <time>2007-03-08T10:34:44Z</time>
      </trkpt>
      <trkpt lat="51.3984770" lon="6.3607360">
        <ele>28.4962160</ele>
        <time>2007-03-08T10:34:38Z</time>
      </trkpt>
      <trkpt lat="51.3989940" lon="6.3600930">
        <ele>28.0155030</ele>
        <time>2007-03-08T10:34:29Z</time>
      </trkpt>
      <trkpt lat="51.3994750" lon="6.3595210">
        <ele>28.0155030</ele>
        <time>2007-03-08T10:34:21Z</time>
      </trkpt>
      <trkpt lat="51.4000320" lon="6.3588940">
        <ele>28.0155030</ele>
        <time>2007-03-08T10:34:12Z</time>
      </trkpt>
      <trkpt lat="51.4004050" lon="6.3584900">
        <ele>28.0155030</ele>
        <time>2007-03-08T10:34:06Z</time>
      </trkpt>
      <trkpt lat="51.4006780" lon="6.3581990">
        <ele>28.0155030</ele>
        <time>2007-03-08T10:34:01Z</time>
      </trkpt>
      <trkpt lat="51.4011720" lon="6.3576470">
        <ele>28.9769290</ele>
        <time>2007-03-08T10:33:53Z</time>
      </trkpt>
      <trkpt lat="51.4016760" lon="6.3571150">
        <ele>28.4962160</ele>
        <time>2007-03-08T10:33:45Z</time>
      </trkpt>
      <trkpt lat="51.4020960" lon="6.3566600">
        <ele>28.4962160</ele>
        <time>2007-03-08T10:33:38Z</time>
      </trkpt>
      <trkpt lat="51.4024920" lon="6.3562180">
        <ele>28.0155030</ele>
        <time>2007-03-08T10:33:31Z</time>
      </trkpt>
      <trkpt lat="51.4029870" lon="6.3556390">
        <ele>27.5349120</ele>
        <time>2007-03-08T10:33:22Z</time>
      </trkpt>
      <trkpt lat="51.4033290" lon="6.3551320">
        <ele>27.5349120</ele>
        <time>2007-03-08T10:33:15Z</time>
      </trkpt>
      <trkpt lat="51.4035400" lon="6.3547850">
        <ele>27.5349120</ele>
        <time>2007-03-08T10:33:10Z</time>
      </trkpt>
      <trkpt lat="51.4036240" lon="6.3545550">
        <ele>27.0543210</ele>
        <time>2007-03-08T10:33:06Z</time>
      </trkpt>
      <trkpt lat="51.4035240" lon="6.3543490">
        <ele>27.0543210</ele>
        <time>2007-03-08T10:33:02Z</time>
      </trkpt>
      <trkpt lat="51.4034870" lon="6.3543020">
        <ele>27.5349120</ele>
        <time>2007-03-08T10:33:01Z</time>
      </trkpt>
      <trkpt lat="51.4032840" lon="6.3544910">
        <ele>26.5736080</ele>
        <time>2007-03-08T10:32:56Z</time>
      </trkpt>
      <trkpt lat="51.4032550" lon="6.3545680">
        <ele>27.5349120</ele>
        <time>2007-03-08T10:32:55Z</time>
      </trkpt>
      <trkpt lat="51.4030730" lon="6.3545430">
        <ele>27.5349120</ele>
        <time>2007-03-08T10:32:51Z</time>
      </trkpt>
      <trkpt lat="51.4028060" lon="6.3540530">
        <ele>28.0155030</ele>
        <time>2007-03-08T10:32:44Z</time>
      </trkpt>
      <trkpt lat="51.4027250" lon="6.3539180">
        <ele>27.5349120</ele>
        <time>2007-03-08T10:32:42Z</time>
      </trkpt>
      <trkpt lat="51.4026880" lon="6.3538420">
        <ele>27.5349120</ele>
        <time>2007-03-08T10:32:41Z</time>
      </trkpt>
      <trkpt lat="51.4023430" lon="6.3532320">
        <ele>27.5349120</ele>
        <time>2007-03-08T10:32:33Z</time>
      </trkpt>
      <trkpt lat="51.4019940" lon="6.3526010">
        <ele>26.5736080</ele>
        <time>2007-03-08T10:32:25Z</time>
      </trkpt>
      <trkpt lat="51.4017650" lon="6.3521930">
        <ele>26.0928960</ele>
        <time>2007-03-08T10:32:19Z</time>
      </trkpt>
      <trkpt lat="51.4016340" lon="6.3521390">
        <ele>26.0928960</ele>
        <time>2007-03-08T10:32:15Z</time>
      </trkpt>
      <trkpt lat="51.4014110" lon="6.3523670">
        <ele>26.5736080</ele>
        <time>2007-03-08T10:32:10Z</time>
      </trkpt>
      <trkpt lat="51.4010740" lon="6.3527100">
        <ele>27.5349120</ele>
        <time>2007-03-08T10:32:04Z</time>
      </trkpt>
      <trkpt lat="51.4005550" lon="6.3532470">
        <ele>28.4962160</ele>
        <time>2007-03-08T10:31:55Z</time>
      </trkpt>
      <trkpt lat="51.4001400" lon="6.3536330">
        <ele>27.5349120</ele>
        <time>2007-03-08T10:31:48Z</time>
      </trkpt>
      <trkpt lat="51.4000800" lon="6.3536810">
        <ele>25.1317140</ele>
        <time>2007-03-08T10:31:47Z</time>
      </trkpt>
      <trkpt lat="51.4000200" lon="6.3537270">
        <ele>28.9769290</ele>
        <time>2007-03-08T10:31:46Z</time>
      </trkpt>
      <trkpt lat="51.3998330" lon="6.3538620">
        <ele>27.5349120</ele>
        <time>2007-03-08T10:31:43Z</time>
      </trkpt>
      <trkpt lat="51.3994400" lon="6.3541460">
        <ele>28.0155030</ele>
        <time>2007-03-08T10:31:37Z</time>
      </trkpt>
      <trkpt lat="51.3989370" lon="6.3545210">
        <ele>27.0543210</ele>
        <time>2007-03-08T10:31:29Z</time>
      </trkpt>
      <trkpt lat="51.3982250" lon="6.3550990">
        <ele>27.5349120</ele>
        <time>2007-03-08T10:31:18Z</time>
      </trkpt>
      <trkpt lat="51.3976330" lon="6.3556040">
        <ele>27.5349120</ele>
        <time>2007-03-08T10:31:09Z</time>
      </trkpt>
      <trkpt lat="51.3969690" lon="6.3561670">
        <ele>28.9769290</ele>
        <time>2007-03-08T10:30:59Z</time>
      </trkpt>
      <trkpt lat="51.3964680" lon="6.3565950">
        <ele>28.4962160</ele>
        <time>2007-03-08T10:30:51Z</time>
      </trkpt>
      <trkpt lat="51.3960640" lon="6.3569560">
        <ele>28.4962160</ele>
        <time>2007-03-08T10:30:44Z</time>
      </trkpt>
      <trkpt lat="51.3957320" lon="6.3572630">
        <ele>28.0155030</ele>
        <time>2007-03-08T10:30:38Z</time>
      </trkpt>
      <trkpt lat="51.3960700" lon="6.3568580">
        <ele>0.0000000</ele>
        <time>2006-11-30T01:20:54Z</time>
      </trkpt>
      <trkpt lat="51.3954580" lon="6.3576120">
        <ele>0.0000000</ele>
        <time>2006-11-30T01:20:29Z</time>
      </trkpt>
      <trkpt lat="51.3951130" lon="6.3582780">
        <ele>0.0000000</ele>
        <time>2006-11-30T01:20:11Z</time>
      </trkpt>
      <trkpt lat="51.3940570" lon="6.3592730">
        <ele>0.0000000</ele>
        <time>2006-11-30T01:19:30Z</time>
      </trkpt>
      <trkpt lat="51.3935660" lon="6.3594450">
        <ele>0.0000000</ele>
        <time>2006-11-30T01:19:13Z</time>
      </trkpt>
      <trkpt lat="51.3923130" lon="6.3557090">
        <ele>0.0000000</ele>
        <time>2006-11-30T01:17:45Z</time>
      </trkpt>
      <trkpt lat="51.3915900" lon="6.3555350">
        <ele>0.0000000</ele>
        <time>2006-11-30T01:17:20Z</time>
      </trkpt>
      <trkpt lat="51.3906830" lon="6.3551570">
        <ele>0.0000000</ele>
        <time>2006-11-30T01:16:49Z</time>
      </trkpt>
      <trkpt lat="51.3893280" lon="6.3548760">
        <ele>0.0000000</ele>
        <time>2006-11-30T01:16:03Z</time>
      </trkpt>
      <trkpt lat="51.3886540" lon="6.3549150">
        <ele>0.0000000</ele>
        <time>2006-11-30T01:15:41Z</time>
      </trkpt>
      <trkpt lat="51.3877070" lon="6.3547540">
        <ele>0.0000000</ele>
        <time>2006-11-30T01:15:09Z</time>
      </trkpt>
      <trkpt lat="51.3872860" lon="6.3540600">
        <ele>0.0000000</ele>
        <time>2006-11-30T01:14:49Z</time>
      </trkpt>
      <trkpt lat="51.3855840" lon="6.3543010">
        <ele>0.0000000</ele>
        <time>2006-11-30T01:13:52Z</time>
      </trkpt>
      <trkpt lat="51.3853240" lon="6.3547480">
        <ele>0.0000000</ele>
        <time>2006-11-30T01:13:39Z</time>
      </trkpt>
      <trkpt lat="51.3842600" lon="6.3553840">
        <ele>0.0000000</ele>
        <time>2006-11-30T01:13:01Z</time>
      </trkpt>
      <trkpt lat="51.3831890" lon="6.3557330">
        <ele>0.0000000</ele>
        <time>2006-11-30T01:12:25Z</time>
      </trkpt>
      <trkpt lat="51.3824420" lon="6.3564940">
        <ele>0.0000000</ele>
        <time>2006-11-30T01:11:55Z</time>
      </trkpt>
      <trkpt lat="51.3813820" lon="6.3573450">
        <ele>0.0000000</ele>
        <time>2006-11-30T01:11:16Z</time>
      </trkpt>
      <trkpt lat="51.3800610" lon="6.3585710">
        <ele>0.0000000</ele>
        <time>2006-11-30T01:10:25Z</time>
      </trkpt>
      <trkpt lat="51.3792590" lon="6.3589040">
        <ele>0.0000000</ele>
        <time>2006-11-30T01:09:57Z</time>
      </trkpt>
      <trkpt lat="51.3784510" lon="6.3589510">
        <ele>0.0000000</ele>
        <time>2006-11-30T01:09:30Z</time>
      </trkpt>
      <trkpt lat="51.3775090" lon="6.3590050">
        <ele>0.0000000</ele>
        <time>2006-11-30T01:08:59Z</time>
      </trkpt>
      <trkpt lat="51.3774350" lon="6.3597280">
        <ele>0.0000000</ele>
        <time>2006-11-30T01:08:44Z</time>
      </trkpt>
      <trkpt lat="51.3748760" lon="6.3598750">
        <ele>0.0000000</ele>
        <time>2006-11-30T01:07:18Z</time>
      </trkpt>
      <trkpt lat="51.3753730" lon="6.3579790">
        <ele>0.0000000</ele>
        <time>2006-11-30T01:06:35Z</time>
      </trkpt>
      <trkpt lat="51.3760810" lon="6.3554960">
        <ele>0.0000000</ele>
        <time>2006-11-30T01:05:39Z</time>
      </trkpt>
      <trkpt lat="51.3762620" lon="6.3535460">
        <ele>0.0000000</ele>
        <time>2006-11-30T01:04:58Z</time>
      </trkpt>
      <trkpt lat="51.3755120" lon="6.3502140">
        <ele>0.0000000</ele>
        <time>2006-11-30T01:03:41Z</time>
      </trkpt>
      <trkpt lat="51.3749730" lon="6.3482340">
        <ele>0.0000000</ele>
        <time>2006-11-30T01:02:56Z</time>
      </trkpt>
      <trkpt lat="51.3749390" lon="6.3467280">
        <ele>0.0000000</ele>
        <time>2006-11-30T01:02:25Z</time>
      </trkpt>
      <trkpt lat="51.3752890" lon="6.3403870">
        <ele>0.0000000</ele>
        <time>2006-11-30T01:00:12Z</time>
      </trkpt>
      <trkpt lat="51.3754840" lon="6.3390820">
        <ele>0.0000000</ele>
        <time>2006-11-30T00:59:44Z</time>
      </trkpt>
      <trkpt lat="51.3756440" lon="6.3382110">
        <ele>0.0000000</ele>
        <time>2006-11-30T00:59:25Z</time>
      </trkpt>
      <trkpt lat="51.3724240" lon="6.3369620">
        <ele>0.0000000</ele>
        <time>2006-11-30T00:57:35Z</time>
      </trkpt>
      <trkpt lat="51.3710560" lon="6.3361080">
        <ele>0.0000000</ele>
        <time>2006-11-30T00:56:46Z</time>
      </trkpt>
      <trkpt lat="51.3698290" lon="6.3355320">
        <ele>0.0000000</ele>
        <time>2006-11-30T00:56:03Z</time>
      </trkpt>
      <trkpt lat="51.3680350" lon="6.3357080">
        <ele>0.0000000</ele>
        <time>2006-11-30T00:55:03Z</time>
      </trkpt>
      <trkpt lat="51.3640990" lon="6.3365830">
        <ele>0.0000000</ele>
        <time>2006-11-30T00:52:51Z</time>
      </trkpt>
      <trkpt lat="51.3636540" lon="6.3367530">
        <ele>0.0000000</ele>
        <time>2006-11-30T00:52:35Z</time>
      </trkpt>
      <trkpt lat="51.3602510" lon="6.3393200">
        <ele>0.0000000</ele>
        <time>2006-11-30T00:50:30Z</time>
      </trkpt>
      <trkpt lat="51.3583960" lon="6.3407910">
        <ele>0.0000000</ele>
        <time>2006-11-30T00:49:21Z</time>
      </trkpt>
      <trkpt lat="51.3572340" lon="6.3410740">
        <ele>0.0000000</ele>
        <time>2006-11-30T00:48:42Z</time>
      </trkpt>
      <trkpt lat="51.3563840" lon="6.3412670">
        <ele>0.0000000</ele>
        <time>2006-11-30T00:48:13Z</time>
      </trkpt>
      <trkpt lat="51.3554500" lon="6.3416800">
        <ele>0.0000000</ele>
        <time>2006-11-30T00:47:41Z</time>
      </trkpt>
      <trkpt lat="51.3548590" lon="6.3414270">
        <ele>0.0000000</ele>
        <time>2006-11-30T00:47:20Z</time>
      </trkpt>
      <trkpt lat="51.3538520" lon="6.3406240">
        <ele>0.0000000</ele>
        <time>2006-11-30T00:46:43Z</time>
      </trkpt>
      <trkpt lat="51.3530360" lon="6.3403120">
        <ele>0.0000000</ele>
        <time>2006-11-30T00:46:15Z</time>
      </trkpt>
      <trkpt lat="51.3512050" lon="6.3408490">
        <ele>0.0000000</ele>
        <time>2006-11-30T00:45:13Z</time>
      </trkpt>
      <trkpt lat="51.3492430" lon="6.3415370">
        <ele>0.0000000</ele>
        <time>2006-11-30T00:44:06Z</time>
      </trkpt>
      <trkpt lat="51.3468270" lon="6.3420360">
        <ele>0.0000000</ele>
        <time>2006-11-30T00:42:44Z</time>
      </trkpt>
      <trkpt lat="51.3452300" lon="6.3429900">
        <ele>0.0000000</ele>
        <time>2006-11-30T00:41:48Z</time>
      </trkpt>
      <trkpt lat="51.3442090" lon="6.3435510">
        <ele>0.0000000</ele>
        <time>2006-11-30T00:41:12Z</time>
      </trkpt>
      <trkpt lat="51.3434060" lon="6.3438130">
        <ele>0.0000000</ele>
        <time>2006-11-30T00:40:44Z</time>
      </trkpt>
      <trkpt lat="51.3427720" lon="6.3436340">
        <ele>0.0000000</ele>
        <time>2006-11-30T00:40:23Z</time>
      </trkpt>
      <trkpt lat="51.3422720" lon="6.3433760">
        <ele>0.0000000</ele>
        <time>2006-11-30T00:40:05Z</time>
      </trkpt>
      <trkpt lat="51.3415590" lon="6.3436330">
        <ele>0.0000000</ele>
        <time>2006-11-30T00:39:41Z</time>
      </trkpt>
      <trkpt lat="51.3407520" lon="6.3437510">
        <ele>0.0000000</ele>
        <time>2006-11-30T00:39:14Z</time>
      </trkpt>
      <trkpt lat="51.3399010" lon="6.3438720">
        <ele>0.0000000</ele>
        <time>2006-11-30T00:38:45Z</time>
      </trkpt>
      <trkpt lat="51.3385920" lon="6.3436610">
        <ele>0.0000000</ele>
        <time>2006-11-30T00:38:01Z</time>
      </trkpt>
      <trkpt lat="51.3375080" lon="6.3434360">
        <ele>0.0000000</ele>
        <time>2006-11-30T00:37:25Z</time>
      </trkpt>
      <trkpt lat="51.3371990" lon="6.3436690">
        <ele>0.0000000</ele>
        <time>2006-11-30T00:37:14Z</time>
      </trkpt>
      <trkpt lat="51.3378100" lon="6.3448540">
        <ele>0.0000000</ele>
        <time>2006-11-30T00:36:42Z</time>
      </trkpt>
      <trkpt lat="51.3385160" lon="6.3462490">
        <ele>0.0000000</ele>
        <time>2006-11-30T00:36:04Z</time>
      </trkpt>
      <trkpt lat="51.3386650" lon="6.3468860">
        <ele>0.0000000</ele>
        <time>2006-11-30T00:35:50Z</time>
      </trkpt>
      <trkpt lat="51.3388720" lon="6.3500320">
        <ele>0.0000000</ele>
        <time>2006-11-30T00:34:44Z</time>
      </trkpt>
      <trkpt lat="51.3393800" lon="6.3566050">
        <ele>0.0000000</ele>
        <time>2006-11-30T00:32:26Z</time>
      </trkpt>
      <trkpt lat="51.3394860" lon="6.3593260">
        <ele>0.0000000</ele>
        <time>2006-11-30T00:31:29Z</time>
      </trkpt>
      <trkpt lat="51.3397000" lon="6.3608210">
        <ele>0.0000000</ele>
        <time>2006-11-30T00:30:57Z</time>
      </trkpt>
      <trkpt lat="51.3399440" lon="6.3616680">
        <ele>0.0000000</ele>
        <time>2006-11-30T00:30:38Z</time>
      </trkpt>
      <trkpt lat="51.3420290" lon="6.3664290">
        <ele>0.0000000</ele>
        <time>2006-11-30T00:28:37Z</time>
      </trkpt>
      <trkpt lat="51.3404860" lon="6.3678100">
        <ele>0.0000000</ele>
        <time>2006-11-30T00:27:38Z</time>
      </trkpt>
      <trkpt lat="51.3396580" lon="6.3689340">
        <ele>0.0000000</ele>
        <time>2006-11-30T00:27:02Z</time>
      </trkpt>
      <trkpt lat="51.3387730" lon="6.3695580">
        <ele>0.0000000</ele>
        <time>2006-11-30T00:26:29Z</time>
      </trkpt>
      <trkpt lat="51.3363390" lon="6.3712770">
        <ele>0.0000000</ele>
        <time>2006-11-30T00:25:01Z</time>
      </trkpt>
      <trkpt lat="51.3322220" lon="6.3740950">
        <ele>0.0000000</ele>
        <time>2006-11-30T00:22:31Z</time>
      </trkpt>
      <trkpt lat="51.3296580" lon="6.3760360">
        <ele>0.0000000</ele>
        <time>2006-11-30T00:20:57Z</time>
      </trkpt>
      <trkpt lat="51.3289620" lon="6.3770800">
        <ele>0.0000000</ele>
        <time>2006-11-30T00:20:25Z</time>
      </trkpt>
      <trkpt lat="51.3265470" lon="6.3796570">
        <ele>0.0000000</ele>
        <time>2006-11-30T00:18:48Z</time>
      </trkpt>
      <trkpt lat="51.3260070" lon="6.3796170">
        <ele>0.0000000</ele>
        <time>2006-11-30T00:18:30Z</time>
      </trkpt>
      <trkpt lat="51.3260120" lon="6.3798310">
        <ele>0.0000000</ele>
        <time>2006-11-30T00:18:25Z</time>
      </trkpt>
      <trkpt lat="51.3261180" lon="6.3805430">
        <ele>0.0000000</ele>
        <time>2006-11-30T00:18:10Z</time>
      </trkpt>
      <trkpt lat="51.3264560" lon="6.3816000">
        <ele>0.0000000</ele>
        <time>2006-11-30T00:17:45Z</time>
      </trkpt>
      <trkpt lat="51.3269310" lon="6.3827210">
        <ele>0.0000000</ele>
        <time>2006-11-30T00:17:17Z</time>
      </trkpt>
      <trkpt lat="51.3278030" lon="6.3835320">
        <ele>0.0000000</ele>
        <time>2006-11-30T00:16:43Z</time>
      </trkpt>
      <trkpt lat="51.3289960" lon="6.3846120">
        <ele>0.0000000</ele>
        <time>2006-11-30T00:15:58Z</time>
      </trkpt>
      <trkpt lat="51.3305300" lon="6.3868930">
        <ele>0.0000000</ele>
        <time>2006-11-30T00:14:48Z</time>
      </trkpt>
      <trkpt lat="51.3317450" lon="6.3889760">
        <ele>0.0000000</ele>
        <time>2006-11-30T00:13:48Z</time>
      </trkpt>
      <trkpt lat="51.3320400" lon="6.3901080">
        <ele>0.0000000</ele>
        <time>2006-11-30T00:13:23Z</time>
      </trkpt>
      <trkpt lat="51.3324780" lon="6.3915900">
        <ele>0.0000000</ele>
        <time>2006-11-30T00:12:49Z</time>
      </trkpt>
      <trkpt lat="51.3330580" lon="6.3934230">
        <ele>0.0000000</ele>
        <time>2006-11-30T00:12:06Z</time>
      </trkpt>
      <trkpt lat="51.3331050" lon="6.3934920">
        <ele>0.0000000</ele>
        <time>2006-11-30T00:12:04Z</time>
      </trkpt>
      <trkpt lat="51.3312810" lon="6.3943840">
        <ele>0.0000000</ele>
        <time>2006-11-30T00:10:59Z</time>
      </trkpt>
      <trkpt lat="51.3299950" lon="6.3951750">
        <ele>0.0000000</ele>
        <time>2006-11-30T00:10:13Z</time>
      </trkpt>
      <trkpt lat="51.3289370" lon="6.3960960">
        <ele>0.0000000</ele>
        <time>2006-11-30T00:09:32Z</time>
      </trkpt>
      <trkpt lat="51.3287690" lon="6.3966080">
        <ele>0.0000000</ele>
        <time>2006-11-30T00:09:20Z</time>
      </trkpt>
      <trkpt lat="51.3281960" lon="6.3971420">
        <ele>0.0000000</ele>
        <time>2006-11-30T00:08:58Z</time>
      </trkpt>
      <trkpt lat="51.3272760" lon="6.3981990">
        <ele>0.0000000</ele>
        <time>2006-11-30T00:08:20Z</time>
      </trkpt>
      <trkpt lat="51.3261710" lon="6.3990510">
        <ele>0.0000000</ele>
        <time>2006-11-30T00:07:40Z</time>
      </trkpt>
      <trkpt lat="51.3251090" lon="6.3998280">
        <ele>0.0000000</ele>
        <time>2006-11-30T00:07:01Z</time>
      </trkpt>
      <trkpt lat="51.3250240" lon="6.4000480">
        <ele>0.0000000</ele>
        <time>2006-11-30T00:06:55Z</time>
      </trkpt>
      <trkpt lat="51.3235150" lon="6.4009230">
        <ele>0.0000000</ele>
        <time>2006-11-30T00:06:02Z</time>
      </trkpt>
      <trkpt lat="51.3226380" lon="6.4019050">
        <ele>0.0000000</ele>
        <time>2006-11-30T00:05:26Z</time>
      </trkpt>
      <trkpt lat="51.3218070" lon="6.4029570">
        <ele>0.0000000</ele>
        <time>2006-11-30T00:04:51Z</time>
      </trkpt>
      <trkpt lat="51.3211560" lon="6.4039980">
        <ele>0.0000000</ele>
        <time>2006-11-30T00:04:20Z</time>
      </trkpt>
      <trkpt lat="51.3208690" lon="6.4052340">
        <ele>0.0000000</ele>
        <time>2006-11-30T00:03:52Z</time>
      </trkpt>
      <trkpt lat="51.3209840" lon="6.4063750">
        <ele>0.0000000</ele>
        <time>2006-11-30T00:03:28Z</time>
      </trkpt>
      <trkpt lat="51.3210960" lon="6.4073730">
        <ele>0.0000000</ele>
        <time>2006-11-30T00:03:07Z</time>
      </trkpt>
      <trkpt lat="51.3212060" lon="6.4082990">
        <ele>0.0000000</ele>
        <time>2006-11-30T00:02:47Z</time>
      </trkpt>
      <trkpt lat="51.3214510" lon="6.4092180">
        <ele>0.0000000</ele>
        <time>2006-11-30T00:02:27Z</time>
      </trkpt>
      <trkpt lat="51.3211000" lon="6.4095970">
        <ele>0.0000000</ele>
        <time>2006-11-30T00:02:13Z</time>
      </trkpt>
      <trkpt lat="51.3204360" lon="6.4100640">
        <ele>0.0000000</ele>
        <time>2006-11-30T00:01:48Z</time>
      </trkpt>
      <trkpt lat="51.3196300" lon="6.4101820">
        <ele>0.0000000</ele>
        <time>2006-11-30T00:01:21Z</time>
      </trkpt>
      <trkpt lat="51.3192710" lon="6.4102020">
        <ele>0.0000000</ele>
        <time>2006-11-30T00:01:09Z</time>
      </trkpt>
      <trkpt lat="51.3182870" lon="6.4144900">
        <ele>0.0000000</ele>
        <time>2006-11-29T23:59:34Z</time>
      </trkpt>
      <trkpt lat="51.3182560" lon="6.4151370">
        <ele>0.0000000</ele>
        <time>2006-11-29T23:59:21Z</time>
      </trkpt>
      <trkpt lat="51.3182910" lon="6.4167130">
        <ele>0.0000000</ele>
        <time>2006-11-29T23:58:48Z</time>
      </trkpt>
      <trkpt lat="51.3182760" lon="6.4180770">
        <ele>0.0000000</ele>
        <time>2006-11-29T23:58:19Z</time>
      </trkpt>
      <trkpt lat="51.3178060" lon="6.4191790">
        <ele>0.0000000</ele>
        <time>2006-11-29T23:57:51Z</time>
      </trkpt>
      <trkpt lat="51.3172040" lon="6.4204330">
        <ele>0.0000000</ele>
        <time>2006-11-29T23:57:18Z</time>
      </trkpt>
      <trkpt lat="51.3171200" lon="6.4207240">
        <ele>0.0000000</ele>
        <time>2006-11-29T23:57:12Z</time>
      </trkpt>
      <trkpt lat="51.3172210" lon="6.4212210">
        <ele>0.0000000</ele>
        <time>2006-11-29T23:57:01Z</time>
      </trkpt>
      <trkpt lat="51.3170640" lon="6.4222340">
        <ele>0.0000000</ele>
        <time>2006-11-29T23:56:39Z</time>
      </trkpt>
      <trkpt lat="51.3165180" lon="6.4239860">
        <ele>0.0000000</ele>
        <time>2006-11-29T23:55:58Z</time>
      </trkpt>
      <trkpt lat="51.3157730" lon="6.4268970">
        <ele>0.0000000</ele>
        <time>2006-11-29T23:54:53Z</time>
      </trkpt>
      <trkpt lat="51.3153280" lon="6.4291460">
        <ele>0.0000000</ele>
        <time>2006-11-29T23:54:04Z</time>
      </trkpt>
      <trkpt lat="51.3153960" lon="6.4302180">
        <ele>0.0000000</ele>
        <time>2006-11-29T23:53:41Z</time>
      </trkpt>
      <trkpt lat="51.3154660" lon="6.4313620">
        <ele>0.0000000</ele>
        <time>2006-11-29T23:53:17Z</time>
      </trkpt>
      <trkpt lat="51.3154870" lon="6.4322930">
        <ele>0.0000000</ele>
        <time>2006-11-29T23:52:58Z</time>
      </trkpt>
      <trkpt lat="51.3153730" lon="6.4332320">
        <ele>0.0000000</ele>
        <time>2006-11-29T23:52:38Z</time>
      </trkpt>
      <trkpt lat="51.3153760" lon="6.4333750">
        <ele>0.0000000</ele>
        <time>2006-11-29T23:52:35Z</time>
      </trkpt>
      <trkpt lat="51.3149340" lon="6.4357670">
        <ele>0.0000000</ele>
        <time>2006-11-29T23:51:43Z</time>
      </trkpt>
      <trkpt lat="51.3146960" lon="6.4372150">
        <ele>0.0000000</ele>
        <time>2006-11-29T23:51:12Z</time>
      </trkpt>
      <trkpt lat="51.3145860" lon="6.4383680">
        <ele>0.0000000</ele>
        <time>2006-11-29T23:50:47Z</time>
      </trkpt>
      <trkpt lat="51.3146220" lon="6.4400160">
        <ele>0.0000000</ele>
        <time>2006-11-29T23:50:13Z</time>
      </trkpt>
      <trkpt lat="51.3146470" lon="6.4411630">
        <ele>0.0000000</ele>
        <time>2006-11-29T23:49:49Z</time>
      </trkpt>
      <trkpt lat="51.3145500" lon="6.4408470">
        <ele>36.6674800</ele>
        <time>2007-08-01T11:14:41Z</time>
      </trkpt>
      <trkpt lat="51.3142020" lon="6.4408950">
        <ele>36.1867680</ele>
        <time>2007-08-01T11:14:46Z</time>
      </trkpt>
      <trkpt lat="51.3136880" lon="6.4408640">
        <ele>36.1867680</ele>
        <time>2007-08-01T11:14:53Z</time>
      </trkpt>
      <trkpt lat="51.3132730" lon="6.4407390">
        <ele>36.6674800</ele>
        <time>2007-08-01T11:14:59Z</time>
      </trkpt>
      <trkpt lat="51.3128490" lon="6.4405990">
        <ele>36.6674800</ele>
        <time>2007-08-01T11:15:05Z</time>
      </trkpt>
      <trkpt lat="51.3123430" lon="6.4404350">
        <ele>36.6674800</ele>
        <time>2007-08-01T11:15:12Z</time>
      </trkpt>
      <trkpt lat="51.3118510" lon="6.4402820">
        <ele>36.1867680</ele>
        <time>2007-08-01T11:15:19Z</time>
      </trkpt>
      <trkpt lat="51.3113580" lon="6.4401310">
        <ele>36.1867680</ele>
        <time>2007-08-01T11:15:26Z</time>
      </trkpt>
      <trkpt lat="51.3109540" lon="6.4399740">
        <ele>36.6674800</ele>
        <time>2007-08-01T11:15:32Z</time>
      </trkpt>
      <trkpt lat="51.3103380" lon="6.4396780">
        <ele>35.7060550</ele>
        <time>2007-08-01T11:15:41Z</time>
      </trkpt>
      <trkpt lat="51.3099850" lon="6.4395290">
        <ele>35.7060550</ele>
        <time>2007-08-01T11:15:47Z</time>
      </trkpt>
      <trkpt lat="51.3097840" lon="6.4393270">
        <ele>37.6286620</ele>
        <time>2007-08-01T11:15:52Z</time>
      </trkpt>
      <trkpt lat="51.3097090" lon="6.4392490">
        <ele>37.6286620</ele>
        <time>2007-08-01T11:15:56Z</time>
      </trkpt>
      <trkpt lat="51.3096060" lon="6.4393010">
        <ele>36.6674800</ele>
        <time>2007-08-01T11:16:00Z</time>
      </trkpt>
      <trkpt lat="51.3095660" lon="6.4393700">
        <ele>37.1480710</ele>
        <time>2007-08-01T11:16:02Z</time>
      </trkpt>
      <trkpt lat="51.3095280" lon="6.4394230">
        <ele>36.6674800</ele>
        <time>2007-08-01T11:16:06Z</time>
      </trkpt>
      <trkpt lat="51.3095260" lon="6.4394260">
        <ele>36.6674800</ele>
        <time>2007-08-01T11:16:10Z</time>
      </trkpt>
      <trkpt lat="51.3094500" lon="6.4394820">
        <ele>36.6674800</ele>
        <time>2007-08-01T11:16:13Z</time>
      </trkpt>
      <trkpt lat="51.3092800" lon="6.4394280">
        <ele>34.7448730</ele>
        <time>2007-08-01T11:16:17Z</time>
      </trkpt>
      <trkpt lat="51.3088980" lon="6.4391020">
        <ele>35.2254640</ele>
        <time>2007-08-01T11:16:24Z</time>
      </trkpt>
      <trkpt lat="51.3083490" lon="6.4387290">
        <ele>34.2641600</ele>
        <time>2007-08-01T11:16:33Z</time>
      </trkpt>
      <trkpt lat="51.3077890" lon="6.4384000">
        <ele>34.7448730</ele>
        <time>2007-08-01T11:16:42Z</time>
      </trkpt>
      <trkpt lat="51.3072900" lon="6.4381090">
        <ele>34.7448730</ele>
        <time>2007-08-01T11:16:50Z</time>
      </trkpt>
      <trkpt lat="51.3067860" lon="6.4378040">
        <ele>35.2254640</ele>
        <time>2007-08-01T11:16:58Z</time>
      </trkpt>
      <trkpt lat="51.3063430" lon="6.4374930">
        <ele>34.2641600</ele>
        <time>2007-08-01T11:17:05Z</time>
      </trkpt>
      <trkpt lat="51.3058490" lon="6.4370830">
        <ele>33.7834470</ele>
        <time>2007-08-01T11:17:13Z</time>
      </trkpt>
      <trkpt lat="51.3053990" lon="6.4366490">
        <ele>33.7834470</ele>
        <time>2007-08-01T11:17:21Z</time>
      </trkpt>
      <trkpt lat="51.3049580" lon="6.4361530">
        <ele>33.7834470</ele>
        <time>2007-08-01T11:17:29Z</time>
      </trkpt>
      <trkpt lat="51.3044740" lon="6.4355250">
        <ele>34.2641600</ele>
        <time>2007-08-01T11:17:38Z</time>
      </trkpt>
      <trkpt lat="51.3039940" lon="6.4348240">
        <ele>34.2641600</ele>
        <time>2007-08-01T11:17:47Z</time>
      </trkpt>
      <trkpt lat="51.3036080" lon="6.4341530">
        <ele>34.2641600</ele>
        <time>2007-08-01T11:17:55Z</time>
      </trkpt>
      <trkpt lat="51.3034450" lon="6.4338070">
        <ele>34.2641600</ele>
        <time>2007-08-01T11:17:59Z</time>
      </trkpt>
      <trkpt lat="51.3032600" lon="6.4336650">
        <ele>34.7448730</ele>
        <time>2007-08-01T11:18:03Z</time>
      </trkpt>
      <trkpt lat="51.3032100" lon="6.4336930">
        <ele>34.2641600</ele>
        <time>2007-08-01T11:18:04Z</time>
      </trkpt>
      <trkpt lat="51.3030450" lon="6.4337990">
        <ele>34.7448730</ele>
        <time>2007-08-01T11:18:07Z</time>
      </trkpt>
      <trkpt lat="51.3027270" lon="6.4338260">
        <ele>34.7448730</ele>
        <time>2007-08-01T11:18:12Z</time>
      </trkpt>
      <trkpt lat="51.3026150" lon="6.4337320">
        <ele>35.2254640</ele>
        <time>2007-08-01T11:18:14Z</time>
      </trkpt>
      <trkpt lat="51.3025110" lon="6.4336100">
        <ele>35.2254640</ele>
        <time>2007-08-01T11:18:16Z</time>
      </trkpt>
      <trkpt lat="51.3020180" lon="6.4331660">
        <ele>35.2254640</ele>
        <time>2007-08-01T11:18:24Z</time>
      </trkpt>
      <trkpt lat="51.3016280" lon="6.4328570">
        <ele>34.7448730</ele>
        <time>2007-08-01T11:18:30Z</time>
      </trkpt>
      <trkpt lat="51.3012040" lon="6.4327220">
        <ele>34.7448730</ele>
        <time>2007-08-01T11:18:36Z</time>
      </trkpt>
      <trkpt lat="51.3007310" lon="6.4325060">
        <ele>35.2254640</ele>
        <time>2007-08-01T11:18:43Z</time>
      </trkpt>
      <trkpt lat="51.3002700" lon="6.4323360">
        <ele>34.7448730</ele>
        <time>2007-08-01T11:18:50Z</time>
      </trkpt>
      <trkpt lat="51.2999710" lon="6.4322740">
        <ele>35.2254640</ele>
        <time>2007-08-01T11:18:55Z</time>
      </trkpt>
      <trkpt lat="51.2998270" lon="6.4320790">
        <ele>35.2254640</ele>
        <time>2007-08-01T11:18:59Z</time>
      </trkpt>
      <trkpt lat="51.2996550" lon="6.4319560">
        <ele>35.7060550</ele>
        <time>2007-08-01T11:19:04Z</time>
      </trkpt>
      <trkpt lat="51.2990810" lon="6.4323440">
        <ele>36.1867680</ele>
        <time>2007-08-01T11:19:14Z</time>
      </trkpt>
      <trkpt lat="51.2987920" lon="6.4326570">
        <ele>36.1867680</ele>
        <time>2007-08-01T11:19:19Z</time>
      </trkpt>
      <trkpt lat="51.2985440" lon="6.4330900">
        <ele>35.7060550</ele>
        <time>2007-08-01T11:19:24Z</time>
      </trkpt>
      <trkpt lat="51.2982360" lon="6.4338240">
        <ele>35.2254640</ele>
        <time>2007-08-01T11:19:31Z</time>
      </trkpt>
      <trkpt lat="51.2979150" lon="6.4343460">
        <ele>35.2254640</ele>
        <time>2007-08-01T11:19:37Z</time>
      </trkpt>
      <trkpt lat="51.2975460" lon="6.4346840">
        <ele>36.1867680</ele>
        <time>2007-08-01T11:19:43Z</time>
      </trkpt>
      <trkpt lat="51.2970060" lon="6.4350750">
        <ele>35.7060550</ele>
        <time>2007-08-01T11:19:51Z</time>
      </trkpt>
      <trkpt lat="51.2963830" lon="6.4355240">
        <ele>35.7060550</ele>
        <time>2007-08-01T11:20:00Z</time>
      </trkpt>
      <trkpt lat="51.2958090" lon="6.4358950">
        <ele>35.2254640</ele>
        <time>2007-08-01T11:20:08Z</time>
      </trkpt>
      <trkpt lat="51.2951390" lon="6.4362310">
        <ele>35.2254640</ele>
        <time>2007-08-01T11:20:17Z</time>
      </trkpt>
      <trkpt lat="51.2945910" lon="6.4364220">
        <ele>34.7448730</ele>
        <time>2007-08-01T11:20:24Z</time>
      </trkpt>
      <trkpt lat="51.2941040" lon="6.4364530">
        <ele>35.2254640</ele>
        <time>2007-08-01T11:20:30Z</time>
      </trkpt>
      <trkpt lat="51.2934850" lon="6.4363640">
        <ele>34.7448730</ele>
        <time>2007-08-01T11:20:38Z</time>
      </trkpt>
      <trkpt lat="51.2930360" lon="6.4364130">
        <ele>35.7060550</ele>
        <time>2007-08-01T11:20:44Z</time>
      </trkpt>
      <trkpt lat="51.2924460" lon="6.4366730">
        <ele>35.2254640</ele>
        <time>2007-08-01T11:20:52Z</time>
      </trkpt>
      <trkpt lat="51.2920080" lon="6.4368400">
        <ele>35.2254640</ele>
        <time>2007-08-01T11:20:58Z</time>
      </trkpt>
      <trkpt lat="51.2914160" lon="6.4370640">
        <ele>35.2254640</ele>
        <time>2007-08-01T11:21:06Z</time>
      </trkpt>
      <trkpt lat="51.2909100" lon="6.4372520">
        <ele>35.2254640</ele>
        <time>2007-08-01T11:21:13Z</time>
      </trkpt>
      <trkpt lat="51.2904390" lon="6.4374670">
        <ele>35.7060550</ele>
        <time>2007-08-01T11:21:20Z</time>
      </trkpt>
      <trkpt lat="51.2901210" lon="6.4377410">
        <ele>35.7060550</ele>
        <time>2007-08-01T11:21:25Z</time>
      </trkpt>
      <trkpt lat="51.2898420" lon="6.4381230">
        <ele>36.1867680</ele>
        <time>2007-08-01T11:21:30Z</time>
      </trkpt>
      <trkpt lat="51.2895630" lon="6.4388200">
        <ele>35.7060550</ele>
        <time>2007-08-01T11:21:37Z</time>
      </trkpt>
      <trkpt lat="51.2893510" lon="6.4396920">
        <ele>35.7060550</ele>
        <time>2007-08-01T11:21:45Z</time>
      </trkpt>
      <trkpt lat="51.2891730" lon="6.4403520">
        <ele>35.2254640</ele>
        <time>2007-08-01T11:21:51Z</time>
      </trkpt>
      <trkpt lat="51.2890790" lon="6.4406730">
        <ele>35.7060550</ele>
        <time>2007-08-01T11:21:54Z</time>
      </trkpt>
      <trkpt lat="51.2888170" lon="6.4415420">
        <ele>35.7060550</ele>
        <time>2007-08-01T11:22:02Z</time>
      </trkpt>
      <trkpt lat="51.2884640" lon="6.4425210">
        <ele>35.7060550</ele>
        <time>2007-08-01T11:22:11Z</time>
      </trkpt>
      <trkpt lat="51.2882110" lon="6.4431580">
        <ele>36.1867680</ele>
        <time>2007-08-01T11:22:17Z</time>
      </trkpt>
      <trkpt lat="51.2880060" lon="6.4436890">
        <ele>35.7060550</ele>
        <time>2007-08-01T11:22:22Z</time>
      </trkpt>
      <trkpt lat="51.2878070" lon="6.4442260">
        <ele>35.7060550</ele>
        <time>2007-08-01T11:22:27Z</time>
      </trkpt>
      <trkpt lat="51.2874840" lon="6.4451070">
        <ele>35.2254640</ele>
        <time>2007-08-01T11:22:35Z</time>
      </trkpt>
      <trkpt lat="51.2869880" lon="6.4464280">
        <ele>34.7448730</ele>
        <time>2007-08-01T11:22:47Z</time>
      </trkpt>
      <trkpt lat="51.2866670" lon="6.4472800">
        <ele>35.2254640</ele>
        <time>2007-08-01T11:22:55Z</time>
      </trkpt>
      <trkpt lat="51.2863540" lon="6.4479660">
        <ele>34.7448730</ele>
        <time>2007-08-01T11:23:02Z</time>
      </trkpt>
      <trkpt lat="51.2859270" lon="6.4486610">
        <ele>35.2254640</ele>
        <time>2007-08-01T11:23:10Z</time>
      </trkpt>
      <trkpt lat="51.2854910" lon="6.4491460">
        <ele>35.7060550</ele>
        <time>2007-08-01T11:23:17Z</time>
      </trkpt>
      <trkpt lat="51.2852480" lon="6.4493530">
        <ele>36.6674800</ele>
        <time>2007-08-01T11:23:21Z</time>
      </trkpt>
      <trkpt lat="51.2849660" lon="6.4495740">
        <ele>35.7060550</ele>
        <time>2007-08-01T11:23:26Z</time>
      </trkpt>
      <trkpt lat="51.2848900" lon="6.4496320">
        <ele>36.1867680</ele>
        <time>2007-08-01T11:23:28Z</time>
      </trkpt>
      <trkpt lat="51.2846230" lon="6.4498930">
        <ele>35.7060550</ele>
        <time>2007-08-01T11:23:34Z</time>
      </trkpt>
      <trkpt lat="51.2843260" lon="6.4503110">
        <ele>35.7060550</ele>
        <time>2007-08-01T11:23:40Z</time>
      </trkpt>
      <trkpt lat="51.2840100" lon="6.4509530">
        <ele>35.2254640</ele>
        <time>2007-08-01T11:23:47Z</time>
      </trkpt>
      <trkpt lat="51.2837110" lon="6.4515810">
        <ele>35.7060550</ele>
        <time>2007-08-01T11:23:54Z</time>
      </trkpt>
      <trkpt lat="51.2833680" lon="6.4522750">
        <ele>35.2254640</ele>
        <time>2007-08-01T11:24:02Z</time>
      </trkpt>
      <trkpt lat="51.2832800" lon="6.4524340">
        <ele>35.2254640</ele>
        <time>2007-08-01T11:24:04Z</time>
      </trkpt>
      <trkpt lat="51.2828220" lon="6.4533760">
        <ele>35.2254640</ele>
        <time>2007-08-01T11:24:15Z</time>
      </trkpt>
      <trkpt lat="51.2824210" lon="6.4542680">
        <ele>36.1867680</ele>
        <time>2007-08-01T11:24:25Z</time>
      </trkpt>
      <trkpt lat="51.2821600" lon="6.4548070">
        <ele>36.1867680</ele>
        <time>2007-08-01T11:24:31Z</time>
      </trkpt>
      <trkpt lat="51.2818570" lon="6.4554430">
        <ele>35.7060550</ele>
        <time>2007-08-01T11:24:38Z</time>
      </trkpt>
      <trkpt lat="51.2815410" lon="6.4560630">
        <ele>35.2254640</ele>
        <time>2007-08-01T11:24:45Z</time>
      </trkpt>
      <trkpt lat="51.2812800" lon="6.4566560">
        <ele>35.7060550</ele>
        <time>2007-08-01T11:24:52Z</time>
      </trkpt>
      <trkpt lat="51.2810940" lon="6.4570700">
        <ele>35.2254640</ele>
        <time>2007-08-01T11:24:58Z</time>
      </trkpt>
      <trkpt lat="51.2809480" lon="6.4573480">
        <ele>35.7060550</ele>
        <time>2007-08-01T11:25:03Z</time>
      </trkpt>
      <trkpt lat="51.2808480" lon="6.4576310">
        <ele>35.7060550</ele>
        <time>2007-08-01T11:25:09Z</time>
      </trkpt>
      <trkpt lat="51.2807920" lon="6.4579130">
        <ele>35.7060550</ele>
        <time>2007-08-01T11:25:13Z</time>
      </trkpt>
      <trkpt lat="51.2807560" lon="6.4587020">
        <ele>35.7060550</ele>
        <time>2007-08-01T11:25:21Z</time>
      </trkpt>
      <trkpt lat="51.2806840" lon="6.4594430">
        <ele>35.7060550</ele>
        <time>2007-08-01T11:25:28Z</time>
      </trkpt>
      <trkpt lat="51.2805950" lon="6.4597380">
        <ele>35.7060550</ele>
        <time>2007-08-01T11:25:31Z</time>
      </trkpt>
      <trkpt lat="51.2803180" lon="6.4602160">
        <ele>36.1867680</ele>
        <time>2007-08-01T11:25:37Z</time>
      </trkpt>
      <trkpt lat="51.2801570" lon="6.4605540">
        <ele>36.6674800</ele>
        <time>2007-08-01T11:25:41Z</time>
      </trkpt>
      <trkpt lat="51.2799570" lon="6.4613300">
        <ele>36.1867680</ele>
        <time>2007-08-01T11:25:49Z</time>
      </trkpt>
      <trkpt lat="51.2799290" lon="6.4618610">
        <ele>36.6674800</ele>
        <time>2007-08-01T11:25:54Z</time>
      </trkpt>
      <trkpt lat="51.2799910" lon="6.4626450">
        <ele>36.6674800</ele>
        <time>2007-08-01T11:26:01Z</time>
      </trkpt>
      <trkpt lat="51.2800820" lon="6.4634090">
        <ele>36.6674800</ele>
        <time>2007-08-01T11:26:08Z</time>
      </trkpt>
      <trkpt lat="51.2800370" lon="6.4637490">
        <ele>36.6674800</ele>
        <time>2007-08-01T11:26:12Z</time>
      </trkpt>
      <trkpt lat="51.2798410" lon="6.4642470">
        <ele>36.6674800</ele>
        <time>2007-08-01T11:26:19Z</time>
      </trkpt>
      <trkpt lat="51.2796350" lon="6.4644200">
        <ele>36.1867680</ele>
        <time>2007-08-01T11:26:24Z</time>
      </trkpt>
      <trkpt lat="51.2795580" lon="6.4646060">
        <ele>36.1867680</ele>
        <time>2007-08-01T11:26:27Z</time>
      </trkpt>
      <trkpt lat="51.2795430" lon="6.4646930">
        <ele>36.1867680</ele>
        <time>2007-08-01T11:26:28Z</time>
      </trkpt>
      <trkpt lat="51.2794790" lon="6.4650780">
        <ele>36.6674800</ele>
        <time>2007-08-01T11:26:32Z</time>
      </trkpt>
      <trkpt lat="51.2793070" lon="6.4655220">
        <ele>36.1867680</ele>
        <time>2007-08-01T11:26:37Z</time>
      </trkpt>
      <trkpt lat="51.2791220" lon="6.4660540">
        <ele>35.7060550</ele>
        <time>2007-08-01T11:26:43Z</time>
      </trkpt>
      <trkpt lat="51.2789260" lon="6.4666900">
        <ele>36.1867680</ele>
        <time>2007-08-01T11:26:50Z</time>
      </trkpt>
      <trkpt lat="51.2787350" lon="6.4674710">
        <ele>36.1867680</ele>
        <time>2007-08-01T11:26:58Z</time>
      </trkpt>
      <trkpt lat="51.2785540" lon="6.4682220">
        <ele>35.2254640</ele>
        <time>2007-08-01T11:27:06Z</time>
      </trkpt>
      <trkpt lat="51.2783660" lon="6.4684800">
        <ele>36.1867680</ele>
        <time>2007-08-01T11:27:10Z</time>
      </trkpt>
      <trkpt lat="51.2778000" lon="6.4687440">
        <ele>36.1867680</ele>
        <time>2007-08-01T11:27:19Z</time>
      </trkpt>
      <trkpt lat="51.2773650" lon="6.4689170">
        <ele>36.6674800</ele>
        <time>2007-08-01T11:27:26Z</time>
      </trkpt>
      <trkpt lat="51.2768940" lon="6.4691840">
        <ele>36.6674800</ele>
        <time>2007-08-01T11:27:34Z</time>
      </trkpt>
      <trkpt lat="51.2765730" lon="6.4695190">
        <ele>36.6674800</ele>
        <time>2007-08-01T11:27:40Z</time>
      </trkpt>
      <trkpt lat="51.2762420" lon="6.4700560">
        <ele>36.1867680</ele>
        <time>2007-08-01T11:27:47Z</time>
      </trkpt>
      <trkpt lat="51.2759000" lon="6.4707440">
        <ele>36.6674800</ele>
        <time>2007-08-01T11:27:55Z</time>
      </trkpt>
      <trkpt lat="51.2756100" lon="6.4713670">
        <ele>36.6674800</ele>
        <time>2007-08-01T11:28:02Z</time>
      </trkpt>
      <trkpt lat="51.2753440" lon="6.4718880">
        <ele>36.1867680</ele>
        <time>2007-08-01T11:28:08Z</time>
      </trkpt>
      <trkpt lat="51.2750490" lon="6.4724980">
        <ele>36.6674800</ele>
        <time>2007-08-01T11:28:15Z</time>
      </trkpt>
      <trkpt lat="51.2748370" lon="6.4729380">
        <ele>37.1480710</ele>
        <time>2007-08-01T11:28:20Z</time>
      </trkpt>
      <trkpt lat="51.2746140" lon="6.4734930">
        <ele>37.1480710</ele>
        <time>2007-08-01T11:28:26Z</time>
      </trkpt>
      <trkpt lat="51.2744090" lon="6.4743230">
        <ele>36.6674800</ele>
        <time>2007-08-01T11:28:34Z</time>
      </trkpt>
      <trkpt lat="51.2741630" lon="6.4755190">
        <ele>37.6286620</ele>
        <time>2007-08-01T11:28:45Z</time>
      </trkpt>
      <trkpt lat="51.2740130" lon="6.4765260">
        <ele>37.6286620</ele>
        <time>2007-08-01T11:28:54Z</time>
      </trkpt>
      <trkpt lat="51.2738230" lon="6.4775250">
        <ele>37.1480710</ele>
        <time>2007-08-01T11:29:03Z</time>
      </trkpt>
      <trkpt lat="51.2736010" lon="6.4781210">
        <ele>37.1480710</ele>
        <time>2007-08-01T11:29:09Z</time>
      </trkpt>
      <trkpt lat="51.2732410" lon="6.4789510">
        <ele>37.1480710</ele>
        <time>2007-08-01T11:29:18Z</time>
      </trkpt>
      <trkpt lat="51.2731420" lon="6.4794950">
        <ele>37.1480710</ele>
        <time>2007-08-01T11:29:23Z</time>
      </trkpt>
      <trkpt lat="51.2731300" lon="6.4800650">
        <ele>37.1480710</ele>
        <time>2007-08-01T11:29:28Z</time>
      </trkpt>
      <trkpt lat="51.2731700" lon="6.4810830">
        <ele>37.6286620</ele>
        <time>2007-08-01T11:29:37Z</time>
      </trkpt>
      <trkpt lat="51.2732130" lon="6.4822260">
        <ele>37.6286620</ele>
        <time>2007-08-01T11:29:47Z</time>
      </trkpt>
      <trkpt lat="51.2732350" lon="6.4831440">
        <ele>37.6286620</ele>
        <time>2007-08-01T11:29:55Z</time>
      </trkpt>
      <trkpt lat="51.2732770" lon="6.4842090">
        <ele>38.1093750</ele>
        <time>2007-08-01T11:30:04Z</time>
      </trkpt>
      <trkpt lat="51.2733150" lon="6.4851260">
        <ele>38.1093750</ele>
        <time>2007-08-01T11:30:12Z</time>
      </trkpt>
      <trkpt lat="51.2732660" lon="6.4858240">
        <ele>37.6286620</ele>
        <time>2007-08-01T11:30:18Z</time>
      </trkpt>
      <trkpt lat="51.2731610" lon="6.4867490">
        <ele>37.6286620</ele>
        <time>2007-08-01T11:30:26Z</time>
      </trkpt>
      <trkpt lat="51.2730610" lon="6.4875740">
        <ele>37.1480710</ele>
        <time>2007-08-01T11:30:33Z</time>
      </trkpt>
      <trkpt lat="51.2729380" lon="6.4886770">
        <ele>37.1480710</ele>
        <time>2007-08-01T11:30:42Z</time>
      </trkpt>
      <trkpt lat="51.2728090" lon="6.4897500">
        <ele>36.6674800</ele>
        <time>2007-08-01T11:30:51Z</time>
      </trkpt>
      <trkpt lat="51.2726610" lon="6.4906680">
        <ele>37.1480710</ele>
        <time>2007-08-01T11:30:59Z</time>
      </trkpt>
      <trkpt lat="51.2724370" lon="6.4911350">
        <ele>37.1480710</ele>
        <time>2007-08-01T11:31:04Z</time>
      </trkpt>
      <trkpt lat="51.2719170" lon="6.4919120">
        <ele>37.1480710</ele>
        <time>2007-08-01T11:31:14Z</time>
      </trkpt>
      <trkpt lat="51.2716920" lon="6.4925290">
        <ele>37.1480710</ele>
        <time>2007-08-01T11:31:20Z</time>
      </trkpt>
      <trkpt lat="51.2714010" lon="6.4933530">
        <ele>37.1480710</ele>
        <time>2007-08-01T11:31:28Z</time>
      </trkpt>
      <trkpt lat="51.2711390" lon="6.4940800">
        <ele>36.6674800</ele>
        <time>2007-08-01T11:31:35Z</time>
      </trkpt>
      <trkpt lat="51.2708400" lon="6.4949330">
        <ele>36.6674800</ele>
        <time>2007-08-01T11:31:43Z</time>
      </trkpt>
      <trkpt lat="51.2704600" lon="6.4959780">
        <ele>36.6674800</ele>
        <time>2007-08-01T11:31:53Z</time>
      </trkpt>
      <trkpt lat="51.2700620" lon="6.4968430">
        <ele>36.6674800</ele>
        <time>2007-08-01T11:32:02Z</time>
      </trkpt>
      <trkpt lat="51.2696720" lon="6.4975300">
        <ele>36.6674800</ele>
        <time>2007-08-01T11:32:10Z</time>
      </trkpt>
      <trkpt lat="51.2695750" lon="6.4979420">
        <ele>37.1480710</ele>
        <time>2007-08-01T11:32:14Z</time>
      </trkpt>
      <trkpt lat="51.2695840" lon="6.4980550">
        <ele>37.1480710</ele>
        <time>2007-08-01T11:32:15Z</time>
      </trkpt>
      <trkpt lat="51.2696880" lon="6.4983610">
        <ele>37.1480710</ele>
        <time>2007-08-01T11:32:18Z</time>
      </trkpt>
      <trkpt lat="51.2697420" lon="6.4984430">
        <ele>37.1480710</ele>
        <time>2007-08-01T11:32:19Z</time>
      </trkpt>
      <trkpt lat="51.2700920" lon="6.4989070">
        <ele>36.1867680</ele>
        <time>2007-08-01T11:32:25Z</time>
      </trkpt>
      <trkpt lat="51.2702090" lon="6.4990780">
        <ele>37.1480710</ele>
        <time>2007-08-01T11:32:27Z</time>
      </trkpt>
      <trkpt lat="51.2703320" lon="6.4995070">
        <ele>37.1480710</ele>
        <time>2007-08-01T11:32:31Z</time>
      </trkpt>
      <trkpt lat="51.2702770" lon="6.4998360">
        <ele>37.1480710</ele>
        <time>2007-08-01T11:32:34Z</time>
      </trkpt>
      <trkpt lat="51.2702380" lon="6.4999290">
        <ele>37.1480710</ele>
        <time>2007-08-01T11:32:35Z</time>
      </trkpt>
      <trkpt lat="51.2699630" lon="6.5004620">
        <ele>37.6286620</ele>
        <time>2007-08-01T11:32:42Z</time>
      </trkpt>
      <trkpt lat="51.2699010" lon="6.5005890">
        <ele>37.6286620</ele>
        <time>2007-08-01T11:32:44Z</time>
      </trkpt>
      <trkpt lat="51.2697370" lon="6.5007780">
        <ele>38.1093750</ele>
        <time>2007-08-01T11:32:49Z</time>
      </trkpt>
      <trkpt lat="51.2696400" lon="6.5007550">
        <ele>38.1093750</ele>
        <time>2007-08-01T11:32:51Z</time>
      </trkpt>
      <trkpt lat="51.2692120" lon="6.5005480">
        <ele>38.1093750</ele>
        <time>2007-08-01T11:32:58Z</time>
      </trkpt>
      <trkpt lat="51.2685820" lon="6.5002390">
        <ele>38.1093750</ele>
        <time>2007-08-01T11:33:07Z</time>
      </trkpt>
      <trkpt lat="51.2681590" lon="6.4999450">
        <ele>37.6286620</ele>
        <time>2007-08-01T11:33:13Z</time>
      </trkpt>
      <trkpt lat="51.2675590" lon="6.4993460">
        <ele>37.1480710</ele>
        <time>2007-08-01T11:33:22Z</time>
      </trkpt>
      <trkpt lat="51.2669010" lon="6.4987070">
        <ele>36.1867680</ele>
        <time>2007-08-01T11:33:32Z</time>
      </trkpt>
      <trkpt lat="51.2664440" lon="6.4983860">
        <ele>37.1480710</ele>
        <time>2007-08-01T11:33:39Z</time>
      </trkpt>
      <trkpt lat="51.2658800" lon="6.4981370">
        <ele>37.6286620</ele>
        <time>2007-08-01T11:33:47Z</time>
      </trkpt>
      <trkpt lat="51.2653330" lon="6.4979030">
        <ele>37.1480710</ele>
        <time>2007-08-01T11:33:55Z</time>
      </trkpt>
      <trkpt lat="51.2649780" lon="6.4977930">
        <ele>37.6286620</ele>
        <time>2007-08-01T11:34:01Z</time>
      </trkpt>
      <trkpt lat="51.2649190" lon="6.4977710">
        <ele>37.6286620</ele>
        <time>2007-08-01T11:34:02Z</time>
      </trkpt>
      <trkpt lat="51.2647000" lon="6.4978620">
        <ele>37.6286620</ele>
        <time>2007-08-01T11:34:06Z</time>
      </trkpt>
      <trkpt lat="51.2646390" lon="6.4980320">
        <ele>37.1480710</ele>
        <time>2007-08-01T11:34:08Z</time>
      </trkpt>
      <trkpt lat="51.2644330" lon="6.4987330">
        <ele>36.6674800</ele>
        <time>2007-08-01T11:34:16Z</time>
      </trkpt>
      <trkpt lat="51.2642490" lon="6.4993830">
        <ele>36.6674800</ele>
        <time>2007-08-01T11:34:23Z</time>
      </trkpt>
      <trkpt lat="51.2640070" lon="6.5002140">
        <ele>37.6286620</ele>
        <time>2007-08-01T11:34:32Z</time>
      </trkpt>
      <trkpt lat="51.2638510" lon="6.5007580">
        <ele>38.5900880</ele>
        <time>2007-08-01T11:34:38Z</time>
      </trkpt>
      <trkpt lat="51.2636910" lon="6.5012690">
        <ele>40.5128170</ele>
        <time>2007-08-01T11:34:44Z</time>
      </trkpt>
      <trkpt lat="51.2635480" lon="6.5018660">
        <ele>42.4354250</ele>
        <time>2007-08-01T11:34:51Z</time>
      </trkpt>
      <trkpt lat="51.2634940" lon="6.5024230">
        <ele>42.9160160</ele>
        <time>2007-08-01T11:34:57Z</time>
      </trkpt>
      <trkpt lat="51.2634510" lon="6.5031740">
        <ele>42.9160160</ele>
        <time>2007-08-01T11:35:05Z</time>
      </trkpt>
      <trkpt lat="51.2634320" lon="6.5038890">
        <ele>41.4739990</ele>
        <time>2007-08-01T11:35:12Z</time>
      </trkpt>
      <trkpt lat="51.2634250" lon="6.5041060">
        <ele>40.5128170</ele>
        <time>2007-08-01T11:35:14Z</time>
      </trkpt>
      <trkpt lat="51.2633780" lon="6.5049470">
        <ele>38.5900880</ele>
        <time>2007-08-01T11:35:21Z</time>
      </trkpt>
      <trkpt lat="51.2633590" lon="6.5054450">
        <ele>37.1480710</ele>
        <time>2007-08-01T11:35:25Z</time>
      </trkpt>
      <trkpt lat="51.2633060" lon="6.5056840">
        <ele>37.6286620</ele>
        <time>2007-08-01T11:35:29Z</time>
      </trkpt>
      <trkpt lat="51.2632550" lon="6.5056090">
        <ele>36.6674800</ele>
        <time>2007-08-01T11:35:32Z</time>
      </trkpt>
      <trkpt lat="51.2632610" lon="6.5054440">
        <ele>36.6674800</ele>
        <time>2007-08-01T11:35:35Z</time>
      </trkpt>
      <trkpt lat="51.2632690" lon="6.5049000">
        <ele>36.1867680</ele>
        <time>2007-08-01T11:35:42Z</time>
      </trkpt>
      <trkpt lat="51.2633100" lon="6.5038470">
        <ele>36.6674800</ele>
        <time>2007-08-01T11:35:52Z</time>
      </trkpt>
      <trkpt lat="51.2633070" lon="6.5032120">
        <ele>36.6674800</ele>
        <time>2007-08-01T11:35:58Z</time>
      </trkpt>
      <trkpt lat="51.2632670" lon="6.5029610">
        <ele>36.6674800</ele>
        <time>2007-08-01T11:36:01Z</time>
      </trkpt>
      <trkpt lat="51.2632160" lon="6.5029040">
        <ele>36.1867680</ele>
        <time>2007-08-01T11:36:02Z</time>
      </trkpt>
      <trkpt lat="51.2628080" lon="6.5025740">
        <ele>36.1867680</ele>
        <time>2007-08-01T11:36:09Z</time>
      </trkpt>
      <trkpt lat="51.2623280" lon="6.5022440">
        <ele>36.6674800</ele>
        <time>2007-08-01T11:36:17Z</time>
      </trkpt>
      <trkpt lat="51.2618070" lon="6.5018340">
        <ele>36.6674800</ele>
        <time>2007-08-01T11:36:26Z</time>
      </trkpt>
      <trkpt lat="51.2612590" lon="6.5013930">
        <ele>35.2254640</ele>
        <time>2007-08-01T11:36:35Z</time>
      </trkpt>
      <trkpt lat="51.2607860" lon="6.5010020">
        <ele>35.2254640</ele>
        <time>2007-08-01T11:36:43Z</time>
      </trkpt>
      <trkpt lat="51.2602530" lon="6.5005580">
        <ele>35.7060550</ele>
        <time>2007-08-01T11:36:52Z</time>
      </trkpt>
      <trkpt lat="51.2598800" lon="6.5002000">
        <ele>35.2254640</ele>
        <time>2007-08-01T11:36:59Z</time>
      </trkpt>
      <trkpt lat="51.2598320" lon="6.5001580">
        <ele>35.2254640</ele>
        <time>2007-08-01T11:37:00Z</time>
      </trkpt>
      <trkpt lat="51.2597040" lon="6.5001880">
        <ele>35.7060550</ele>
        <time>2007-08-01T11:37:04Z</time>
      </trkpt>
      <trkpt lat="51.2596960" lon="6.5002720">
        <ele>35.7060550</ele>
        <time>2007-08-01T11:37:05Z</time>
      </trkpt>
      <trkpt lat="51.2596540" lon="6.5005990">
        <ele>35.2254640</ele>
        <time>2007-08-01T11:37:09Z</time>
      </trkpt>
      <trkpt lat="51.2595540" lon="6.5011110">
        <ele>35.2254640</ele>
        <time>2007-08-01T11:37:14Z</time>
      </trkpt>
      <trkpt lat="51.2593590" lon="6.5019340">
        <ele>35.2254640</ele>
        <time>2007-08-01T11:37:22Z</time>
      </trkpt>
      <trkpt lat="51.2592540" lon="6.5024380">
        <ele>35.2254640</ele>
        <time>2007-08-01T11:37:27Z</time>
      </trkpt>
      <trkpt lat="51.2591500" lon="6.5030290">
        <ele>35.7060550</ele>
        <time>2007-08-01T11:37:33Z</time>
      </trkpt>
      <trkpt lat="51.2590370" lon="6.5035030">
        <ele>35.2254640</ele>
        <time>2007-08-01T11:37:38Z</time>
      </trkpt>
      <trkpt lat="51.2588770" lon="6.5040250">
        <ele>34.7448730</ele>
        <time>2007-08-01T11:37:43Z</time>
      </trkpt>
      <trkpt lat="51.2586410" lon="6.5048160">
        <ele>34.7448730</ele>
        <time>2007-08-01T11:37:51Z</time>
      </trkpt>
      <trkpt lat="51.2584910" lon="6.5052710">
        <ele>35.2254640</ele>
        <time>2007-08-01T11:37:56Z</time>
      </trkpt>
      <trkpt lat="51.2582600" lon="6.5059590">
        <ele>35.7060550</ele>
        <time>2007-08-01T11:38:03Z</time>
      </trkpt>
      <trkpt lat="51.2579510" lon="6.5068560">
        <ele>35.2254640</ele>
        <time>2007-08-01T11:38:12Z</time>
      </trkpt>
      <trkpt lat="51.2576900" lon="6.5075970">
        <ele>34.7448730</ele>
        <time>2007-08-01T11:38:20Z</time>
      </trkpt>
      <trkpt lat="51.2573830" lon="6.5084920">
        <ele>35.7060550</ele>
        <time>2007-08-01T11:38:30Z</time>
      </trkpt>
      <trkpt lat="51.2571060" lon="6.5092970">
        <ele>35.2254640</ele>
        <time>2007-08-01T11:38:39Z</time>
      </trkpt>
      <trkpt lat="51.2568330" lon="6.5100950">
        <ele>34.7448730</ele>
        <time>2007-08-01T11:38:48Z</time>
      </trkpt>
      <trkpt lat="51.2565590" lon="6.5109050">
        <ele>35.2254640</ele>
        <time>2007-08-01T11:38:57Z</time>
      </trkpt>
      <trkpt lat="51.2562240" lon="6.5118960">
        <ele>35.2254640</ele>
        <time>2007-08-01T11:39:08Z</time>
      </trkpt>
      <trkpt lat="51.2558950" lon="6.5128860">
        <ele>35.7060550</ele>
        <time>2007-08-01T11:39:19Z</time>
      </trkpt>
      <trkpt lat="51.2557370" lon="6.5133450">
        <ele>35.7060550</ele>
        <time>2007-08-01T11:39:25Z</time>
      </trkpt>
      <trkpt lat="51.2557060" lon="6.5135640">
        <ele>36.1867680</ele>
        <time>2007-08-01T11:39:29Z</time>
      </trkpt>
      <trkpt lat="51.2557200" lon="6.5139670">
        <ele>35.7060550</ele>
        <time>2007-08-01T11:39:35Z</time>
      </trkpt>
      <trkpt lat="51.2557170" lon="6.5144870">
        <ele>36.1867680</ele>
        <time>2007-08-01T11:39:41Z</time>
      </trkpt>
      <trkpt lat="51.2557160" lon="6.5151500">
        <ele>35.7060550</ele>
        <time>2007-08-01T11:39:48Z</time>
      </trkpt>
      <trkpt lat="51.2557090" lon="6.5157500">
        <ele>35.7060550</ele>
        <time>2007-08-01T11:39:54Z</time>
      </trkpt>
      <trkpt lat="51.2557250" lon="6.5160480">
        <ele>35.7060550</ele>
        <time>2007-08-01T11:39:57Z</time>
      </trkpt>
      <trkpt lat="51.2558860" lon="6.5169340">
        <ele>36.1867680</ele>
        <time>2007-08-01T11:40:06Z</time>
      </trkpt>
      <trkpt lat="51.2559080" lon="6.5170310">
        <ele>36.6674800</ele>
        <time>2007-08-01T11:40:07Z</time>
      </trkpt>
      <trkpt lat="51.2560470" lon="6.5173720">
        <ele>36.6674800</ele>
        <time>2007-08-01T11:40:11Z</time>
      </trkpt>
      <trkpt lat="51.2565120" lon="6.5180830">
        <ele>37.1480710</ele>
        <time>2007-08-01T11:40:21Z</time>
      </trkpt>
      <trkpt lat="51.2569210" lon="6.5187030">
        <ele>36.6674800</ele>
        <time>2007-08-01T11:40:29Z</time>
      </trkpt>
      <trkpt lat="51.2571910" lon="6.5194610">
        <ele>37.1480710</ele>
        <time>2007-08-01T11:40:37Z</time>
      </trkpt>
      <trkpt lat="51.2574890" lon="6.5204250">
        <ele>37.1480710</ele>
        <time>2007-08-01T11:40:47Z</time>
      </trkpt>
      <trkpt lat="51.2577090" lon="6.5213080">
        <ele>36.1867680</ele>
        <time>2007-08-01T11:40:56Z</time>
      </trkpt>
      <trkpt lat="51.2577210" lon="6.5217210">
        <ele>37.1480710</ele>
        <time>2007-08-01T11:41:00Z</time>
      </trkpt>
      <trkpt lat="51.2576230" lon="6.5225010">
        <ele>37.6286620</ele>
        <time>2007-08-01T11:41:08Z</time>
      </trkpt>
      <trkpt lat="51.2575060" lon="6.5232030">
        <ele>37.1480710</ele>
        <time>2007-08-01T11:41:15Z</time>
      </trkpt>
      <trkpt lat="51.2573860" lon="6.5241150">
        <ele>37.1480710</ele>
        <time>2007-08-01T11:41:24Z</time>
      </trkpt>
      <trkpt lat="51.2573150" lon="6.5247050">
        <ele>37.1480710</ele>
        <time>2007-08-01T11:41:30Z</time>
      </trkpt>
      <trkpt lat="51.2572140" lon="6.5255340">
        <ele>37.6286620</ele>
        <time>2007-08-01T11:41:38Z</time>
      </trkpt>
      <trkpt lat="51.2571500" lon="6.5262320">
        <ele>36.6674800</ele>
        <time>2007-08-01T11:41:45Z</time>
      </trkpt>
      <trkpt lat="51.2571110" lon="6.5270220">
        <ele>37.1480710</ele>
        <time>2007-08-01T11:41:53Z</time>
      </trkpt>
      <trkpt lat="51.2570850" lon="6.5278120">
        <ele>37.6286620</ele>
        <time>2007-08-01T11:42:01Z</time>
      </trkpt>
      <trkpt lat="51.2570480" lon="6.5287300">
        <ele>37.1480710</ele>
        <time>2007-08-01T11:42:10Z</time>
      </trkpt>
      <trkpt lat="51.2570300" lon="6.5295010">
        <ele>37.6286620</ele>
        <time>2007-08-01T11:42:18Z</time>
      </trkpt>
      <trkpt lat="51.2570110" lon="6.5299130">
        <ele>37.1480710</ele>
        <time>2007-08-01T11:42:23Z</time>
      </trkpt>
      <trkpt lat="51.2568810" lon="6.5301210">
        <ele>37.1480710</ele>
        <time>2007-08-01T11:42:27Z</time>
      </trkpt>
      <trkpt lat="51.2564780" lon="6.5304650">
        <ele>37.1480710</ele>
        <time>2007-08-01T11:42:35Z</time>
      </trkpt>
      <trkpt lat="51.2560530" lon="6.5308500">
        <ele>37.6286620</ele>
        <time>2007-08-01T11:42:43Z</time>
      </trkpt>
      <trkpt lat="51.2557230" lon="6.5311490">
        <ele>36.6674800</ele>
        <time>2007-08-01T11:42:49Z</time>
      </trkpt>
      <trkpt lat="51.2555450" lon="6.5315590">
        <ele>37.1480710</ele>
        <time>2007-08-01T11:42:54Z</time>
      </trkpt>
      <trkpt lat="51.2553090" lon="6.5323090">
        <ele>36.6674800</ele>
        <time>2007-08-01T11:43:02Z</time>
      </trkpt>
      <trkpt lat="51.2549730" lon="6.5332350">
        <ele>37.1480710</ele>
        <time>2007-08-01T11:43:12Z</time>
      </trkpt>
      <trkpt lat="51.2547420" lon="6.5338750">
        <ele>36.6674800</ele>
        <time>2007-08-01T11:43:19Z</time>
      </trkpt>
      <trkpt lat="51.2547130" lon="6.5339710">
        <ele>37.1480710</ele>
        <time>2007-08-01T11:43:20Z</time>
      </trkpt>
      <trkpt lat="51.2545940" lon="6.5346970">
        <ele>36.6674800</ele>
        <time>2007-08-01T11:43:27Z</time>
      </trkpt>
      <trkpt lat="51.2545740" lon="6.5350140">
        <ele>37.1480710</ele>
        <time>2007-08-01T11:43:30Z</time>
      </trkpt>
      <trkpt lat="51.2545870" lon="6.5357530">
        <ele>37.1480710</ele>
        <time>2007-08-01T11:43:37Z</time>
      </trkpt>
      <trkpt lat="51.2545230" lon="6.5364130">
        <ele>37.1480710</ele>
        <time>2007-08-01T11:43:43Z</time>
      </trkpt>
      <trkpt lat="51.2545140" lon="6.5366220">
        <ele>37.6286620</ele>
        <time>2007-08-01T11:43:45Z</time>
      </trkpt>
      <trkpt lat="51.2543750" lon="6.5376550">
        <ele>36.6674800</ele>
        <time>2007-08-01T11:43:55Z</time>
      </trkpt>
      <trkpt lat="51.2542330" lon="6.5385110">
        <ele>37.1480710</ele>
        <time>2007-08-01T11:44:03Z</time>
      </trkpt>
      <trkpt lat="51.2540970" lon="6.5392250">
        <ele>37.6286620</ele>
        <time>2007-08-01T11:44:10Z</time>
      </trkpt>
      <trkpt lat="51.2540770" lon="6.5393220">
        <ele>37.6286620</ele>
        <time>2007-08-01T11:44:11Z</time>
      </trkpt>
      <trkpt lat="51.2540430" lon="6.5396150">
        <ele>37.6286620</ele>
        <time>2007-08-01T11:44:14Z</time>
      </trkpt>
      <trkpt lat="51.2539550" lon="6.5399260">
        <ele>37.6286620</ele>
        <time>2007-08-01T11:44:18Z</time>
      </trkpt>
      <trkpt lat="51.2538620" lon="6.5399430">
        <ele>37.1480710</ele>
        <time>2007-08-01T11:44:20Z</time>
      </trkpt>
      <trkpt lat="51.2534560" lon="6.5397730">
        <ele>37.1480710</ele>
        <time>2007-08-01T11:44:27Z</time>
      </trkpt>
      <trkpt lat="51.2530550" lon="6.5396790">
        <ele>38.1093750</ele>
        <time>2007-08-01T11:44:33Z</time>
      </trkpt>
      <trkpt lat="51.2525830" lon="6.5396060">
        <ele>37.6286620</ele>
        <time>2007-08-01T11:44:40Z</time>
      </trkpt>
      <trkpt lat="51.2520420" lon="6.5396040">
        <ele>37.6286620</ele>
        <time>2007-08-01T11:44:48Z</time>
      </trkpt>
      <trkpt lat="51.2514360" lon="6.5397370">
        <ele>38.1093750</ele>
        <time>2007-08-01T11:44:57Z</time>
      </trkpt>
      <trkpt lat="51.2509260" lon="6.5399470">
        <ele>37.6286620</ele>
        <time>2007-08-01T11:45:05Z</time>
      </trkpt>
      <trkpt lat="51.2505000" lon="6.5402070">
        <ele>37.6286620</ele>
        <time>2007-08-01T11:45:12Z</time>
      </trkpt>
      <trkpt lat="51.2501300" lon="6.5404930">
        <ele>38.1093750</ele>
        <time>2007-08-01T11:45:18Z</time>
      </trkpt>
      <trkpt lat="51.2497620" lon="6.5408600">
        <ele>37.6286620</ele>
        <time>2007-08-01T11:45:24Z</time>
      </trkpt>
      <trkpt lat="51.2492600" lon="6.5413750">
        <ele>37.6286620</ele>
        <time>2007-08-01T11:45:32Z</time>
      </trkpt>
      <trkpt lat="51.2487380" lon="6.5419250">
        <ele>38.1093750</ele>
        <time>2007-08-01T11:45:41Z</time>
      </trkpt>
      <trkpt lat="51.2483380" lon="6.5423450">
        <ele>38.1093750</ele>
        <time>2007-08-01T11:45:48Z</time>
      </trkpt>
      <trkpt lat="51.2477470" lon="6.5429590">
        <ele>37.6286620</ele>
        <time>2007-08-01T11:45:58Z</time>
      </trkpt>
      <trkpt lat="51.2471130" lon="6.5436150">
        <ele>37.1480710</ele>
        <time>2007-08-01T11:46:09Z</time>
      </trkpt>
      <trkpt lat="51.2465970" lon="6.5440660">
        <ele>37.6286620</ele>
        <time>2007-08-01T11:46:18Z</time>
      </trkpt>
      <trkpt lat="51.2459350" lon="6.5445160">
        <ele>37.1480710</ele>
        <time>2007-08-01T11:46:29Z</time>
      </trkpt>
      <trkpt lat="51.2452730" lon="6.5448210">
        <ele>37.6286620</ele>
        <time>2007-08-01T11:46:39Z</time>
      </trkpt>
      <trkpt lat="51.2447950" lon="6.5449630">
        <ele>37.6286620</ele>
        <time>2007-08-01T11:46:46Z</time>
      </trkpt>
      <trkpt lat="51.2442980" lon="6.5450460">
        <ele>37.6286620</ele>
        <time>2007-08-01T11:46:53Z</time>
      </trkpt>
      <trkpt lat="51.2438890" lon="6.5450650">
        <ele>37.6286620</ele>
        <time>2007-08-01T11:46:59Z</time>
      </trkpt>
      <trkpt lat="51.2434110" lon="6.5450170">
        <ele>37.6286620</ele>
        <time>2007-08-01T11:47:06Z</time>
      </trkpt>
      <trkpt lat="51.2428730" lon="6.5448930">
        <ele>38.1093750</ele>
        <time>2007-08-01T11:47:14Z</time>
      </trkpt>
      <trkpt lat="51.2422120" lon="6.5446620">
        <ele>37.6286620</ele>
        <time>2007-08-01T11:47:24Z</time>
      </trkpt>
      <trkpt lat="51.2416300" lon="6.5443470">
        <ele>38.1093750</ele>
        <time>2007-08-01T11:47:33Z</time>
      </trkpt>
      <trkpt lat="51.2411230" lon="6.5439870">
        <ele>38.5900880</ele>
        <time>2007-08-01T11:47:41Z</time>
      </trkpt>
      <trkpt lat="51.2406030" lon="6.5435330">
        <ele>38.1093750</ele>
        <time>2007-08-01T11:47:50Z</time>
      </trkpt>
      <trkpt lat="51.2402330" lon="6.5431450">
        <ele>38.1093750</ele>
        <time>2007-08-01T11:47:57Z</time>
      </trkpt>
      <trkpt lat="51.2400710" lon="6.5429710">
        <ele>38.5900880</ele>
        <time>2007-08-01T11:48:01Z</time>
      </trkpt>
      <trkpt lat="51.2399450" lon="6.5429970">
        <ele>38.5900880</ele>
        <time>2007-08-01T11:48:05Z</time>
      </trkpt>
      <trkpt lat="51.2398600" lon="6.5430250">
        <ele>39.0706790</ele>
        <time>2007-08-01T11:48:07Z</time>
      </trkpt>
      <trkpt lat="51.2396710" lon="6.5431570">
        <ele>38.5900880</ele>
        <time>2007-08-01T11:48:11Z</time>
      </trkpt>
      <trkpt lat="51.2393200" lon="6.5436820">
        <ele>39.0706790</ele>
        <time>2007-08-01T11:48:19Z</time>
      </trkpt>
      <trkpt lat="51.2390970" lon="6.5440470">
        <ele>38.5900880</ele>
        <time>2007-08-01T11:48:24Z</time>
      </trkpt>
      <trkpt lat="51.2387270" lon="6.5446690">
        <ele>39.0706790</ele>
        <time>2007-08-01T11:48:32Z</time>
      </trkpt>
      <trkpt lat="51.2384690" lon="6.5451820">
        <ele>38.1093750</ele>
        <time>2007-08-01T11:48:38Z</time>
      </trkpt>
      <trkpt lat="51.2383570" lon="6.5454600">
        <ele>37.6286620</ele>
        <time>2007-08-01T11:48:41Z</time>
      </trkpt>
      <trkpt lat="51.2382420" lon="6.5458290">
        <ele>37.6286620</ele>
        <time>2007-08-01T11:48:45Z</time>
      </trkpt>
      <trkpt lat="51.2381290" lon="6.5467040">
        <ele>38.1093750</ele>
        <time>2007-08-01T11:48:53Z</time>
      </trkpt>
      <trkpt lat="51.2380020" lon="6.5475630">
        <ele>37.6286620</ele>
        <time>2007-08-01T11:49:01Z</time>
      </trkpt>
      <trkpt lat="51.2377930" lon="6.5481510">
        <ele>37.6286620</ele>
        <time>2007-08-01T11:49:07Z</time>
      </trkpt>
      <trkpt lat="51.2375080" lon="6.5489000">
        <ele>37.6286620</ele>
        <time>2007-08-01T11:49:15Z</time>
      </trkpt>
      <trkpt lat="51.2371920" lon="6.5497870">
        <ele>38.1093750</ele>
        <time>2007-08-01T11:49:24Z</time>
      </trkpt>
      <trkpt lat="51.2368860" lon="6.5506930">
        <ele>38.1093750</ele>
        <time>2007-08-01T11:49:33Z</time>
      </trkpt>
      <trkpt lat="51.2367680" lon="6.5513640">
        <ele>38.1093750</ele>
        <time>2007-08-01T11:49:39Z</time>
      </trkpt>
      <trkpt lat="51.2367560" lon="6.5514790">
        <ele>37.6286620</ele>
        <time>2007-08-01T11:49:40Z</time>
      </trkpt>
      <trkpt lat="51.2367780" lon="6.5522820">
        <ele>38.1093750</ele>
        <time>2007-08-01T11:49:47Z</time>
      </trkpt>
      <trkpt lat="51.2368010" lon="6.5528350">
        <ele>38.5900880</ele>
        <time>2007-08-01T11:49:52Z</time>
      </trkpt>
      <trkpt lat="51.2367980" lon="6.5529380">
        <ele>38.5900880</ele>
        <time>2007-08-01T11:49:53Z</time>
      </trkpt>
      <trkpt lat="51.2367140" lon="6.5531480">
        <ele>38.5900880</ele>
        <time>2007-08-01T11:49:56Z</time>
      </trkpt>
      <trkpt lat="51.2365900" lon="6.5530920">
        <ele>39.0706790</ele>
        <time>2007-08-01T11:49:58Z</time>
      </trkpt>
      <trkpt lat="51.2365330" lon="6.5530460">
        <ele>38.5900880</ele>
        <time>2007-08-01T11:49:59Z</time>
      </trkpt>
      <trkpt lat="51.2360250" lon="6.5526070">
        <ele>39.0706790</ele>
        <time>2007-08-01T11:50:08Z</time>
      </trkpt>
      <trkpt lat="51.2356530" lon="6.5523200">
        <ele>40.5128170</ele>
        <time>2007-08-01T11:50:15Z</time>
      </trkpt>
      <trkpt lat="51.2352890" lon="6.5520460">
        <ele>41.9547120</ele>
        <time>2007-08-01T11:50:22Z</time>
      </trkpt>
      <trkpt lat="51.2349350" lon="6.5517820">
        <ele>43.8773190</ele>
        <time>2007-08-01T11:50:29Z</time>
      </trkpt>
      <trkpt lat="51.2345770" lon="6.5515360">
        <ele>44.8386230</ele>
        <time>2007-08-01T11:50:36Z</time>
      </trkpt>
      <trkpt lat="51.2341570" lon="6.5512720">
        <ele>46.7612300</ele>
        <time>2007-08-01T11:50:44Z</time>
      </trkpt>
      <trkpt lat="51.2335770" lon="6.5509620">
        <ele>46.7612300</ele>
        <time>2007-08-01T11:50:55Z</time>
      </trkpt>
      <trkpt lat="51.2331050" lon="6.5507610">
        <ele>46.2806400</ele>
        <time>2007-08-01T11:51:03Z</time>
      </trkpt>
      <trkpt lat="51.2325800" lon="6.5505710">
        <ele>43.3966060</ele>
        <time>2007-08-01T11:51:11Z</time>
      </trkpt>
      <trkpt lat="51.2322160" lon="6.5504600">
        <ele>41.4739990</ele>
        <time>2007-08-01T11:51:16Z</time>
      </trkpt>
      <trkpt lat="51.2316580" lon="6.5503100">
        <ele>39.5512700</ele>
        <time>2007-08-01T11:51:23Z</time>
      </trkpt>
      <trkpt lat="51.2307570" lon="6.5501090">
        <ele>37.6286620</ele>
        <time>2007-08-01T11:51:34Z</time>
      </trkpt>
      <trkpt lat="51.2303880" lon="6.5500260">
        <ele>37.6286620</ele>
        <time>2007-08-01T11:51:39Z</time>
      </trkpt>
      <trkpt lat="51.2297740" lon="6.5499040">
        <ele>37.6286620</ele>
        <time>2007-08-01T11:51:48Z</time>
      </trkpt>
      <trkpt lat="51.2295360" lon="6.5498640">
        <ele>38.1093750</ele>
        <time>2007-08-01T11:51:53Z</time>
      </trkpt>
      <trkpt lat="51.2294830" lon="6.5499260">
        <ele>38.1093750</ele>
        <time>2007-08-01T11:51:55Z</time>
      </trkpt>
      <trkpt lat="51.2293680" lon="6.5502600">
        <ele>37.6286620</ele>
        <time>2007-08-01T11:52:00Z</time>
      </trkpt>
      <trkpt lat="51.2293520" lon="6.5503480">
        <ele>37.6286620</ele>
        <time>2007-08-01T11:52:01Z</time>
      </trkpt>
      <trkpt lat="51.2292580" lon="6.5511440">
        <ele>38.1093750</ele>
        <time>2007-08-01T11:52:09Z</time>
      </trkpt>
      <trkpt lat="51.2291500" lon="6.5522140">
        <ele>37.6286620</ele>
        <time>2007-08-01T11:52:19Z</time>
      </trkpt>
      <trkpt lat="51.2290140" lon="6.5534110">
        <ele>38.1093750</ele>
        <time>2007-08-01T11:52:30Z</time>
      </trkpt>
      <trkpt lat="51.2288570" lon="6.5547190">
        <ele>37.6286620</ele>
        <time>2007-08-01T11:52:42Z</time>
      </trkpt>
      <trkpt lat="51.2287990" lon="6.5555010">
        <ele>37.6286620</ele>
        <time>2007-08-01T11:52:49Z</time>
      </trkpt>
      <trkpt lat="51.2287290" lon="6.5563970">
        <ele>37.6286620</ele>
        <time>2007-08-01T11:52:57Z</time>
      </trkpt>
      <trkpt lat="51.2286870" lon="6.5571710">
        <ele>37.1480710</ele>
        <time>2007-08-01T11:53:04Z</time>
      </trkpt>
      <trkpt lat="51.2286480" lon="6.5579490">
        <ele>37.1480710</ele>
        <time>2007-08-01T11:53:11Z</time>
      </trkpt>
      <trkpt lat="51.2286410" lon="6.5580610">
        <ele>37.1480710</ele>
        <time>2007-08-01T11:53:12Z</time>
      </trkpt>
      <trkpt lat="51.2286070" lon="6.5588940">
        <ele>37.1480710</ele>
        <time>2007-08-01T11:53:19Z</time>
      </trkpt>
      <trkpt lat="51.2285880" lon="6.5598350">
        <ele>37.6286620</ele>
        <time>2007-08-01T11:53:27Z</time>
      </trkpt>
      <trkpt lat="51.2285600" lon="6.5607500">
        <ele>37.1480710</ele>
        <time>2007-08-01T11:53:35Z</time>
      </trkpt>
      <trkpt lat="51.2285260" lon="6.5614190">
        <ele>36.6674800</ele>
        <time>2007-08-01T11:53:41Z</time>
      </trkpt>
      <trkpt lat="51.2284660" lon="6.5617150">
        <ele>37.1480710</ele>
        <time>2007-08-01T11:53:44Z</time>
      </trkpt>
      <trkpt lat="51.2283240" lon="6.5619770">
        <ele>37.1480710</ele>
        <time>2007-08-01T11:53:48Z</time>
      </trkpt>
      <trkpt lat="51.2281940" lon="6.5619760">
        <ele>37.6286620</ele>
        <time>2007-08-01T11:53:50Z</time>
      </trkpt>
      <trkpt lat="51.2276200" lon="6.5618640">
        <ele>36.6674800</ele>
        <time>2007-08-01T11:53:58Z</time>
      </trkpt>
      <trkpt lat="51.2267950" lon="6.5616990">
        <ele>36.6674800</ele>
        <time>2007-08-01T11:54:09Z</time>
      </trkpt>
      <trkpt lat="51.2260910" lon="6.5615680">
        <ele>36.6674800</ele>
        <time>2007-08-01T11:54:18Z</time>
      </trkpt>
      <trkpt lat="51.2255530" lon="6.5614620">
        <ele>36.1867680</ele>
        <time>2007-08-01T11:54:25Z</time>
      </trkpt>
      <trkpt lat="51.2250890" lon="6.5613750">
        <ele>36.1867680</ele>
        <time>2007-08-01T11:54:31Z</time>
      </trkpt>
      <trkpt lat="51.2244520" lon="6.5612910">
        <ele>36.1867680</ele>
        <time>2007-08-01T11:54:39Z</time>
      </trkpt>
      <trkpt lat="51.2237410" lon="6.5613470">
        <ele>36.6674800</ele>
        <time>2007-08-01T11:54:48Z</time>
      </trkpt>
      <trkpt lat="51.2232930" lon="6.5614890">
        <ele>36.6674800</ele>
        <time>2007-08-01T11:54:54Z</time>
      </trkpt>
      <trkpt lat="51.2228550" lon="6.5617160">
        <ele>37.1480710</ele>
        <time>2007-08-01T11:55:00Z</time>
      </trkpt>
      <trkpt lat="51.2224470" lon="6.5620240">
        <ele>36.6674800</ele>
        <time>2007-08-01T11:55:06Z</time>
      </trkpt>
      <trkpt lat="51.2220010" lon="6.5624540">
        <ele>36.1867680</ele>
        <time>2007-08-01T11:55:13Z</time>
      </trkpt>
      <trkpt lat="51.2216580" lon="6.5629030">
        <ele>36.6674800</ele>
        <time>2007-08-01T11:55:19Z</time>
      </trkpt>
      <trkpt lat="51.2212910" lon="6.5634860">
        <ele>37.1480710</ele>
        <time>2007-08-01T11:55:26Z</time>
      </trkpt>
      <trkpt lat="51.2209060" lon="6.5642940">
        <ele>37.6286620</ele>
        <time>2007-08-01T11:55:35Z</time>
      </trkpt>
      <trkpt lat="51.2206370" lon="6.5650840">
        <ele>37.6286620</ele>
        <time>2007-08-01T11:55:43Z</time>
      </trkpt>
      <trkpt lat="51.2204280" lon="6.5658960">
        <ele>38.1093750</ele>
        <time>2007-08-01T11:55:51Z</time>
      </trkpt>
      <trkpt lat="51.2202550" lon="6.5667340">
        <ele>38.5900880</ele>
        <time>2007-08-01T11:55:59Z</time>
      </trkpt>
      <trkpt lat="51.2200760" lon="6.5677220">
        <ele>38.5900880</ele>
        <time>2007-08-01T11:56:08Z</time>
      </trkpt>
      <trkpt lat="51.2199070" lon="6.5685860">
        <ele>37.6286620</ele>
        <time>2007-08-01T11:56:16Z</time>
      </trkpt>
      <trkpt lat="51.2197590" lon="6.5692980">
        <ele>38.5900880</ele>
        <time>2007-08-01T11:56:23Z</time>
      </trkpt>
      <trkpt lat="51.2195940" lon="6.5698710">
        <ele>38.1093750</ele>
        <time>2007-08-01T11:56:29Z</time>
      </trkpt>
      <trkpt lat="51.2195918" lon="6.5698615"/>
      <trkpt lat="51.2193898" lon="6.5702272"/>
      <trkpt lat="51.2190799" lon="6.5707435"/>
      <trkpt lat="51.2182444" lon="6.5719051"/>
      <trkpt lat="51.2175706" lon="6.5727011"/>
      <trkpt lat="51.2172338" lon="6.5730668"/>
      <trkpt lat="51.2166274" lon="6.5742499"/>
      <trkpt lat="51.2156438" lon="6.5753686"/>
      <trkpt lat="51.2143771" lon="6.5786385"/>
      <trkpt lat="51.2140134" lon="6.5801444"/>
      <trkpt lat="51.2137503" lon="6.5813482"/>
      <trkpt lat="51.2138716" lon="6.5814558"/>
      <trkpt lat="51.2144376" lon="6.5823594"/>
      <trkpt lat="51.2150439" lon="6.5828111"/>
      <trkpt lat="51.2152326" lon="6.5830693"/>
      <trkpt lat="51.2160006" lon="6.5858015"/>
      <trkpt lat="51.2164588" lon="6.5866405"/>
      <trkpt lat="51.2170786" lon="6.5873504"/>
      <trkpt lat="51.2175098" lon="6.5881464"/>
      <trkpt lat="51.2188034" lon="6.5873719"/>
      <trkpt lat="51.2198005" lon="6.5870277"/>
      <trkpt lat="51.2208381" lon="6.5868771"/>
      <trkpt lat="51.2211344" lon="6.5856508"/>
      <trkpt lat="51.2214579" lon="6.5847473"/>
      <trkpt lat="51.2216465" lon="6.5846182"/>
      <trkpt lat="51.2220643" lon="6.5847258"/>
      <trkpt lat="51.2228323" lon="6.5850700"/>
      <trkpt lat="51.2226437" lon="6.5859951"/>
      <trkpt lat="51.2229806" lon="6.5860165"/>
    </trkseg>
  </trk>

</gpx>
